<?xml version="1.0" encoding="UTF-8" standalone="no" ?>
<gpx xmlns="http://www.topografix.com/GPX/1/1" xmlns:xsi="http://www.w3.org/2001/XMLSchema-instance" xsi:schemaLocation="http://www.topografix.com/GPX/1/1 http://www.topografix.com/GPX/1/1/gpx.xsd" version="1.1" creator="VisuGPX - https://www.visugpx.com">
  <metadata>
    <name>Néronde-Bussières-Balbigny-Néronde</name>
    <desc><![CDATA[Randonnée à l'intérieur d'un triangle ayant pour sommets les 3 villages cités. ]]></desc>
  </metadata>
  <trk>
    <name><![CDATA[20190107185107-EMx62]]></name>
    <trkseg>
      <trkpt lat="45.83853" lon="4.23663">
        <ele>533.629</ele>
        <time>2019-01-07T12:34:37Z</time>
      </trkpt>
      <trkpt lat="45.83853" lon="4.23654">
        <ele>531.068</ele>
        <time>2019-01-07T12:34:43Z</time>
      </trkpt>
      <trkpt lat="45.83853" lon="4.23654">
        <ele>528.591</ele>
        <time>2019-01-07T12:34:49Z</time>
      </trkpt>
      <trkpt lat="45.83849" lon="4.23645">
        <ele>520.422</ele>
        <time>2019-01-07T12:34:55Z</time>
      </trkpt>
      <trkpt lat="45.83849" lon="4.23645">
        <ele>513.912</ele>
        <time>2019-01-07T12:35:00Z</time>
      </trkpt>
      <trkpt lat="45.83843" lon="4.23633">
        <ele>507.155</ele>
        <time>2019-01-07T12:35:05Z</time>
      </trkpt>
      <trkpt lat="45.83843" lon="4.23633">
        <ele>506.912</ele>
        <time>2019-01-07T12:35:10Z</time>
      </trkpt>
      <trkpt lat="45.83834" lon="4.23629">
        <ele>506.743</ele>
        <time>2019-01-07T12:35:16Z</time>
      </trkpt>
      <trkpt lat="45.83828" lon="4.23633">
        <ele>507.043</ele>
        <time>2019-01-07T12:35:21Z</time>
      </trkpt>
      <trkpt lat="45.8382" lon="4.23632">
        <ele>507.506</ele>
        <time>2019-01-07T12:35:27Z</time>
      </trkpt>
      <trkpt lat="45.83819" lon="4.2364">
        <ele>508.144</ele>
        <time>2019-01-07T12:35:33Z</time>
      </trkpt>
      <trkpt lat="45.83815" lon="4.23646">
        <ele>509.369</ele>
        <time>2019-01-07T12:35:39Z</time>
      </trkpt>
      <trkpt lat="45.83812" lon="4.23647">
        <ele>511.091</ele>
        <time>2019-01-07T12:35:45Z</time>
      </trkpt>
      <trkpt lat="45.83809" lon="4.23655">
        <ele>512.84</ele>
        <time>2019-01-07T12:35:51Z</time>
      </trkpt>
      <trkpt lat="45.8381" lon="4.23666">
        <ele>513.835</ele>
        <time>2019-01-07T12:35:56Z</time>
      </trkpt>
      <trkpt lat="45.83809" lon="4.2367">
        <ele>514.597</ele>
        <time>2019-01-07T12:36:01Z</time>
      </trkpt>
      <trkpt lat="45.83807" lon="4.23678">
        <ele>516.016</ele>
        <time>2019-01-07T12:36:07Z</time>
      </trkpt>
      <trkpt lat="45.83801" lon="4.23687">
        <ele>516.34</ele>
        <time>2019-01-07T12:36:13Z</time>
      </trkpt>
      <trkpt lat="45.83794" lon="4.23691">
        <ele>515.789</ele>
        <time>2019-01-07T12:36:19Z</time>
      </trkpt>
      <trkpt lat="45.83789" lon="4.23697">
        <ele>516.901</ele>
        <time>2019-01-07T12:36:25Z</time>
      </trkpt>
      <trkpt lat="45.83787" lon="4.23698">
        <ele>518.259</ele>
        <time>2019-01-07T12:36:30Z</time>
      </trkpt>
      <trkpt lat="45.83787" lon="4.23702">
        <ele>519.859</ele>
        <time>2019-01-07T12:36:35Z</time>
      </trkpt>
      <trkpt lat="45.83783" lon="4.23708">
        <ele>521.614</ele>
        <time>2019-01-07T12:36:40Z</time>
      </trkpt>
      <trkpt lat="45.83781" lon="4.23714">
        <ele>523.424</ele>
        <time>2019-01-07T12:36:46Z</time>
      </trkpt>
      <trkpt lat="45.8378" lon="4.23719">
        <ele>524.646</ele>
        <time>2019-01-07T12:36:52Z</time>
      </trkpt>
      <trkpt lat="45.8378" lon="4.23724">
        <ele>525.499</ele>
        <time>2019-01-07T12:36:58Z</time>
      </trkpt>
      <trkpt lat="45.83778" lon="4.23728">
        <ele>526.614</ele>
        <time>2019-01-07T12:37:04Z</time>
      </trkpt>
      <trkpt lat="45.83778" lon="4.23735">
        <ele>527.297</ele>
        <time>2019-01-07T12:37:09Z</time>
      </trkpt>
      <trkpt lat="45.83778" lon="4.23741">
        <ele>528.16</ele>
        <time>2019-01-07T12:37:15Z</time>
      </trkpt>
      <trkpt lat="45.83778" lon="4.23746">
        <ele>528.718</ele>
        <time>2019-01-07T12:37:20Z</time>
      </trkpt>
      <trkpt lat="45.83774" lon="4.23754">
        <ele>529.86</ele>
        <time>2019-01-07T12:37:26Z</time>
      </trkpt>
      <trkpt lat="45.8377" lon="4.23763">
        <ele>531.722</ele>
        <time>2019-01-07T12:37:32Z</time>
      </trkpt>
      <trkpt lat="45.83765" lon="4.23771">
        <ele>533.668</ele>
        <time>2019-01-07T12:37:38Z</time>
      </trkpt>
      <trkpt lat="45.83762" lon="4.23779">
        <ele>535.424</ele>
        <time>2019-01-07T12:37:44Z</time>
      </trkpt>
      <trkpt lat="45.83757" lon="4.23784">
        <ele>537.289</ele>
        <time>2019-01-07T12:37:50Z</time>
      </trkpt>
      <trkpt lat="45.83751" lon="4.23788">
        <ele>538.794</ele>
        <time>2019-01-07T12:37:55Z</time>
      </trkpt>
      <trkpt lat="45.83748" lon="4.23791">
        <ele>540.263</ele>
        <time>2019-01-07T12:38:01Z</time>
      </trkpt>
      <trkpt lat="45.83745" lon="4.23798">
        <ele>541.247</ele>
        <time>2019-01-07T12:38:06Z</time>
      </trkpt>
      <trkpt lat="45.83743" lon="4.23803">
        <ele>542.301</ele>
        <time>2019-01-07T12:38:13Z</time>
      </trkpt>
      <trkpt lat="45.83742" lon="4.23809">
        <ele>543.092</ele>
        <time>2019-01-07T12:38:18Z</time>
      </trkpt>
      <trkpt lat="45.8374" lon="4.23813">
        <ele>543.868</ele>
        <time>2019-01-07T12:38:24Z</time>
      </trkpt>
      <trkpt lat="45.83737" lon="4.2382">
        <ele>544.358</ele>
        <time>2019-01-07T12:38:29Z</time>
      </trkpt>
      <trkpt lat="45.83733" lon="4.23829">
        <ele>545.359</ele>
        <time>2019-01-07T12:38:35Z</time>
      </trkpt>
      <trkpt lat="45.83729" lon="4.23835">
        <ele>546.598</ele>
        <time>2019-01-07T12:38:41Z</time>
      </trkpt>
      <trkpt lat="45.83727" lon="4.23839">
        <ele>547.86</ele>
        <time>2019-01-07T12:38:46Z</time>
      </trkpt>
      <trkpt lat="45.83723" lon="4.23842">
        <ele>548.629</ele>
        <time>2019-01-07T12:38:52Z</time>
      </trkpt>
      <trkpt lat="45.83721" lon="4.23846">
        <ele>549.018</ele>
        <time>2019-01-07T12:38:58Z</time>
      </trkpt>
      <trkpt lat="45.83718" lon="4.23849">
        <ele>549.712</ele>
        <time>2019-01-07T12:39:03Z</time>
      </trkpt>
      <trkpt lat="45.83716" lon="4.23852">
        <ele>550.313</ele>
        <time>2019-01-07T12:39:08Z</time>
      </trkpt>
      <trkpt lat="45.83712" lon="4.23855">
        <ele>551.156</ele>
        <time>2019-01-07T12:39:14Z</time>
      </trkpt>
      <trkpt lat="45.8371" lon="4.23859">
        <ele>552.004</ele>
        <time>2019-01-07T12:39:19Z</time>
      </trkpt>
      <trkpt lat="45.83707" lon="4.23863">
        <ele>553.056</ele>
        <time>2019-01-07T12:39:25Z</time>
      </trkpt>
      <trkpt lat="45.83706" lon="4.23869">
        <ele>553.875</ele>
        <time>2019-01-07T12:39:30Z</time>
      </trkpt>
      <trkpt lat="45.83703" lon="4.23875">
        <ele>554.642</ele>
        <time>2019-01-07T12:39:35Z</time>
      </trkpt>
      <trkpt lat="45.83702" lon="4.23881">
        <ele>555.765</ele>
        <time>2019-01-07T12:39:41Z</time>
      </trkpt>
      <trkpt lat="45.83702" lon="4.23888">
        <ele>556.463</ele>
        <time>2019-01-07T12:39:47Z</time>
      </trkpt>
      <trkpt lat="45.83701" lon="4.23894">
        <ele>557.055</ele>
        <time>2019-01-07T12:39:53Z</time>
      </trkpt>
      <trkpt lat="45.83698" lon="4.23899">
        <ele>557.419</ele>
        <time>2019-01-07T12:39:59Z</time>
      </trkpt>
      <trkpt lat="45.83696" lon="4.23901">
        <ele>557.683</ele>
        <time>2019-01-07T12:40:04Z</time>
      </trkpt>
      <trkpt lat="45.83694" lon="4.23906">
        <ele>557.865</ele>
        <time>2019-01-07T12:40:09Z</time>
      </trkpt>
      <trkpt lat="45.83693" lon="4.2391">
        <ele>557.595</ele>
        <time>2019-01-07T12:40:15Z</time>
      </trkpt>
      <trkpt lat="45.83691" lon="4.23915">
        <ele>557.536</ele>
        <time>2019-01-07T12:40:21Z</time>
      </trkpt>
      <trkpt lat="45.83689" lon="4.23925">
        <ele>557.826</ele>
        <time>2019-01-07T12:40:27Z</time>
      </trkpt>
      <trkpt lat="45.83687" lon="4.2393">
        <ele>557.704</ele>
        <time>2019-01-07T12:40:32Z</time>
      </trkpt>
      <trkpt lat="45.83685" lon="4.23939">
        <ele>557.704</ele>
        <time>2019-01-07T12:40:37Z</time>
      </trkpt>
      <trkpt lat="45.83684" lon="4.23946">
        <ele>557.847</ele>
        <time>2019-01-07T12:40:43Z</time>
      </trkpt>
      <trkpt lat="45.83684" lon="4.23953">
        <ele>558.506</ele>
        <time>2019-01-07T12:40:49Z</time>
      </trkpt>
      <trkpt lat="45.83682" lon="4.23963">
        <ele>559.348</ele>
        <time>2019-01-07T12:40:55Z</time>
      </trkpt>
      <trkpt lat="45.83681" lon="4.23969">
        <ele>559.959</ele>
        <time>2019-01-07T12:41:01Z</time>
      </trkpt>
      <trkpt lat="45.83677" lon="4.23974">
        <ele>560.415</ele>
        <time>2019-01-07T12:41:06Z</time>
      </trkpt>
      <trkpt lat="45.83673" lon="4.2398">
        <ele>560.965</ele>
        <time>2019-01-07T12:41:12Z</time>
      </trkpt>
      <trkpt lat="45.83669" lon="4.23985">
        <ele>561.832</ele>
        <time>2019-01-07T12:41:17Z</time>
      </trkpt>
      <trkpt lat="45.83666" lon="4.23988">
        <ele>563.043</ele>
        <time>2019-01-07T12:41:23Z</time>
      </trkpt>
      <trkpt lat="45.83662" lon="4.23994">
        <ele>564.107</ele>
        <time>2019-01-07T12:41:29Z</time>
      </trkpt>
      <trkpt lat="45.83662" lon="4.24003">
        <ele>564.713</ele>
        <time>2019-01-07T12:41:35Z</time>
      </trkpt>
      <trkpt lat="45.83662" lon="4.2401">
        <ele>565.626</ele>
        <time>2019-01-07T12:41:41Z</time>
      </trkpt>
      <trkpt lat="45.83665" lon="4.24017">
        <ele>566.802</ele>
        <time>2019-01-07T12:41:47Z</time>
      </trkpt>
      <trkpt lat="45.83668" lon="4.24021">
        <ele>567.883</ele>
        <time>2019-01-07T12:41:53Z</time>
      </trkpt>
      <trkpt lat="45.8367" lon="4.24025">
        <ele>568.535</ele>
        <time>2019-01-07T12:41:58Z</time>
      </trkpt>
      <trkpt lat="45.83674" lon="4.24031">
        <ele>569.395</ele>
        <time>2019-01-07T12:42:04Z</time>
      </trkpt>
      <trkpt lat="45.83676" lon="4.24035">
        <ele>570.203</ele>
        <time>2019-01-07T12:42:09Z</time>
      </trkpt>
      <trkpt lat="45.83679" lon="4.24039">
        <ele>570.758</ele>
        <time>2019-01-07T12:42:15Z</time>
      </trkpt>
      <trkpt lat="45.83681" lon="4.24044">
        <ele>571.054</ele>
        <time>2019-01-07T12:42:21Z</time>
      </trkpt>
      <trkpt lat="45.83684" lon="4.2405">
        <ele>571.666</ele>
        <time>2019-01-07T12:42:27Z</time>
      </trkpt>
      <trkpt lat="45.83687" lon="4.24056">
        <ele>572.38</ele>
        <time>2019-01-07T12:42:33Z</time>
      </trkpt>
      <trkpt lat="45.83691" lon="4.2406">
        <ele>573.227</ele>
        <time>2019-01-07T12:42:39Z</time>
      </trkpt>
      <trkpt lat="45.83695" lon="4.24065">
        <ele>574.052</ele>
        <time>2019-01-07T12:42:45Z</time>
      </trkpt>
      <trkpt lat="45.83698" lon="4.24067">
        <ele>574.481</ele>
        <time>2019-01-07T12:42:50Z</time>
      </trkpt>
      <trkpt lat="45.83702" lon="4.2407">
        <ele>575.13</ele>
        <time>2019-01-07T12:42:56Z</time>
      </trkpt>
      <trkpt lat="45.83703" lon="4.24074">
        <ele>575.718</ele>
        <time>2019-01-07T12:43:01Z</time>
      </trkpt>
      <trkpt lat="45.83707" lon="4.24077">
        <ele>576.264</ele>
        <time>2019-01-07T12:43:07Z</time>
      </trkpt>
      <trkpt lat="45.83708" lon="4.24081">
        <ele>576.995</ele>
        <time>2019-01-07T12:43:13Z</time>
      </trkpt>
      <trkpt lat="45.8371" lon="4.24086">
        <ele>577.844</ele>
        <time>2019-01-07T12:43:18Z</time>
      </trkpt>
      <trkpt lat="45.83712" lon="4.24091">
        <ele>578.563</ele>
        <time>2019-01-07T12:43:23Z</time>
      </trkpt>
      <trkpt lat="45.83713" lon="4.24096">
        <ele>579.389</ele>
        <time>2019-01-07T12:43:29Z</time>
      </trkpt>
      <trkpt lat="45.83714" lon="4.24102">
        <ele>580.343</ele>
        <time>2019-01-07T12:43:34Z</time>
      </trkpt>
      <trkpt lat="45.83715" lon="4.24108">
        <ele>581.808</ele>
        <time>2019-01-07T12:43:40Z</time>
      </trkpt>
      <trkpt lat="45.83714" lon="4.24112">
        <ele>582.902</ele>
        <time>2019-01-07T12:43:46Z</time>
      </trkpt>
      <trkpt lat="45.83714" lon="4.24117">
        <ele>584.044</ele>
        <time>2019-01-07T12:43:52Z</time>
      </trkpt>
      <trkpt lat="45.83714" lon="4.24122">
        <ele>584.879</ele>
        <time>2019-01-07T12:43:57Z</time>
      </trkpt>
      <trkpt lat="45.83714" lon="4.24127">
        <ele>585.62</ele>
        <time>2019-01-07T12:44:03Z</time>
      </trkpt>
      <trkpt lat="45.83715" lon="4.24132">
        <ele>586.331</ele>
        <time>2019-01-07T12:44:09Z</time>
      </trkpt>
      <trkpt lat="45.83713" lon="4.24137">
        <ele>586.866</ele>
        <time>2019-01-07T12:44:14Z</time>
      </trkpt>
      <trkpt lat="45.83707" lon="4.24136">
        <ele>587.682</ele>
        <time>2019-01-07T12:44:20Z</time>
      </trkpt>
      <trkpt lat="45.83705" lon="4.24134">
        <ele>588.303</ele>
        <time>2019-01-07T12:44:25Z</time>
      </trkpt>
      <trkpt lat="45.83702" lon="4.24131">
        <ele>588.827</ele>
        <time>2019-01-07T12:44:31Z</time>
      </trkpt>
      <trkpt lat="45.837" lon="4.24129">
        <ele>589.567</ele>
        <time>2019-01-07T12:44:37Z</time>
      </trkpt>
      <trkpt lat="45.83701" lon="4.24127">
        <ele>590.133</ele>
        <time>2019-01-07T12:44:42Z</time>
      </trkpt>
      <trkpt lat="45.83701" lon="4.24128">
        <ele>590.307</ele>
        <time>2019-01-07T12:44:48Z</time>
      </trkpt>
      <trkpt lat="45.83702" lon="4.2413">
        <ele>590.607</ele>
        <time>2019-01-07T12:44:54Z</time>
      </trkpt>
      <trkpt lat="45.83702" lon="4.2413">
        <ele>591.514</ele>
        <time>2019-01-07T12:44:59Z</time>
      </trkpt>
      <trkpt lat="45.83702" lon="4.2413">
        <ele>591.611</ele>
        <time>2019-01-07T12:45:05Z</time>
      </trkpt>
      <trkpt lat="45.83701" lon="4.24129">
        <ele>591.73</ele>
        <time>2019-01-07T12:45:11Z</time>
      </trkpt>
      <trkpt lat="45.837" lon="4.24128">
        <ele>591.511</ele>
        <time>2019-01-07T12:45:17Z</time>
      </trkpt>
      <trkpt lat="45.837" lon="4.2413">
        <ele>591.43</ele>
        <time>2019-01-07T12:45:22Z</time>
      </trkpt>
      <trkpt lat="45.837" lon="4.24131">
        <ele>591.748</ele>
        <time>2019-01-07T12:45:27Z</time>
      </trkpt>
      <trkpt lat="45.837" lon="4.24131">
        <ele>591.736</ele>
        <time>2019-01-07T12:45:33Z</time>
      </trkpt>
      <trkpt lat="45.83699" lon="4.24135">
        <ele>591.637</ele>
        <time>2019-01-07T12:45:39Z</time>
      </trkpt>
      <trkpt lat="45.83698" lon="4.24133">
        <ele>591.769</ele>
        <time>2019-01-07T12:45:45Z</time>
      </trkpt>
      <trkpt lat="45.83698" lon="4.24132">
        <ele>591.885</ele>
        <time>2019-01-07T12:45:50Z</time>
      </trkpt>
      <trkpt lat="45.83698" lon="4.24132">
        <ele>591.971</ele>
        <time>2019-01-07T12:45:56Z</time>
      </trkpt>
      <trkpt lat="45.83698" lon="4.24132">
        <ele>592.319</ele>
        <time>2019-01-07T12:46:02Z</time>
      </trkpt>
      <trkpt lat="45.83699" lon="4.24132">
        <ele>592.71</ele>
        <time>2019-01-07T12:46:07Z</time>
      </trkpt>
      <trkpt lat="45.83698" lon="4.24132">
        <ele>592.619</ele>
        <time>2019-01-07T12:46:13Z</time>
      </trkpt>
      <trkpt lat="45.83698" lon="4.24132">
        <ele>592.189</ele>
        <time>2019-01-07T12:46:19Z</time>
      </trkpt>
      <trkpt lat="45.83698" lon="4.2413">
        <ele>592.015</ele>
        <time>2019-01-07T12:46:25Z</time>
      </trkpt>
      <trkpt lat="45.83698" lon="4.2413">
        <ele>591.807</ele>
        <time>2019-01-07T12:46:30Z</time>
      </trkpt>
      <trkpt lat="45.83698" lon="4.24132">
        <ele>591.585</ele>
        <time>2019-01-07T12:46:36Z</time>
      </trkpt>
      <trkpt lat="45.83698" lon="4.24133">
        <ele>591.679</ele>
        <time>2019-01-07T12:46:42Z</time>
      </trkpt>
      <trkpt lat="45.83698" lon="4.24133">
        <ele>591.691</ele>
        <time>2019-01-07T12:46:48Z</time>
      </trkpt>
      <trkpt lat="45.83697" lon="4.24131">
        <ele>591.029</ele>
        <time>2019-01-07T12:46:53Z</time>
      </trkpt>
      <trkpt lat="45.83697" lon="4.2413">
        <ele>590.301</ele>
        <time>2019-01-07T12:46:59Z</time>
      </trkpt>
      <trkpt lat="45.83696" lon="4.24129">
        <ele>589.848</ele>
        <time>2019-01-07T12:47:04Z</time>
      </trkpt>
      <trkpt lat="45.83696" lon="4.2413">
        <ele>589.987</ele>
        <time>2019-01-07T12:47:10Z</time>
      </trkpt>
      <trkpt lat="45.83696" lon="4.2413">
        <ele>590.12</ele>
        <time>2019-01-07T12:47:15Z</time>
      </trkpt>
      <trkpt lat="45.83695" lon="4.2413">
        <ele>590.009</ele>
        <time>2019-01-07T12:47:20Z</time>
      </trkpt>
      <trkpt lat="45.83693" lon="4.24132">
        <ele>590.028</ele>
        <time>2019-01-07T12:47:26Z</time>
      </trkpt>
      <trkpt lat="45.83693" lon="4.24133">
        <ele>590.008</ele>
        <time>2019-01-07T12:47:31Z</time>
      </trkpt>
      <trkpt lat="45.83693" lon="4.24134">
        <ele>590.08</ele>
        <time>2019-01-07T12:47:37Z</time>
      </trkpt>
      <trkpt lat="45.83691" lon="4.24135">
        <ele>590.729</ele>
        <time>2019-01-07T12:47:42Z</time>
      </trkpt>
      <trkpt lat="45.8369" lon="4.24135">
        <ele>591.503</ele>
        <time>2019-01-07T12:47:47Z</time>
      </trkpt>
      <trkpt lat="45.83691" lon="4.24135">
        <ele>591.757</ele>
        <time>2019-01-07T12:47:53Z</time>
      </trkpt>
      <trkpt lat="45.83692" lon="4.24136">
        <ele>591.854</ele>
        <time>2019-01-07T12:47:59Z</time>
      </trkpt>
      <trkpt lat="45.83692" lon="4.24136">
        <ele>592.024</ele>
        <time>2019-01-07T12:48:05Z</time>
      </trkpt>
      <trkpt lat="45.83692" lon="4.24136">
        <ele>592.08</ele>
        <time>2019-01-07T12:48:10Z</time>
      </trkpt>
      <trkpt lat="45.83691" lon="4.24137">
        <ele>592.43</ele>
        <time>2019-01-07T12:48:16Z</time>
      </trkpt>
      <trkpt lat="45.83691" lon="4.24137">
        <ele>592.439</ele>
        <time>2019-01-07T12:48:22Z</time>
      </trkpt>
      <trkpt lat="45.83691" lon="4.24137">
        <ele>592.653</ele>
        <time>2019-01-07T12:48:28Z</time>
      </trkpt>
      <trkpt lat="45.83692" lon="4.24136">
        <ele>592.886</ele>
        <time>2019-01-07T12:48:34Z</time>
      </trkpt>
      <trkpt lat="45.83692" lon="4.24135">
        <ele>592.901</ele>
        <time>2019-01-07T12:48:40Z</time>
      </trkpt>
      <trkpt lat="45.83692" lon="4.24135">
        <ele>592.87</ele>
        <time>2019-01-07T12:48:46Z</time>
      </trkpt>
      <trkpt lat="45.83692" lon="4.24135">
        <ele>593.057</ele>
        <time>2019-01-07T12:48:51Z</time>
      </trkpt>
      <trkpt lat="45.83692" lon="4.24135">
        <ele>593.123</ele>
        <time>2019-01-07T12:48:57Z</time>
      </trkpt>
      <trkpt lat="45.83692" lon="4.24135">
        <ele>593.305</ele>
        <time>2019-01-07T12:49:03Z</time>
      </trkpt>
      <trkpt lat="45.83695" lon="4.24135">
        <ele>593.481</ele>
        <time>2019-01-07T12:49:09Z</time>
      </trkpt>
      <trkpt lat="45.837" lon="4.24136">
        <ele>593.623</ele>
        <time>2019-01-07T12:49:15Z</time>
      </trkpt>
      <trkpt lat="45.83702" lon="4.24138">
        <ele>593.604</ele>
        <time>2019-01-07T12:49:20Z</time>
      </trkpt>
      <trkpt lat="45.83704" lon="4.24138">
        <ele>593.48</ele>
        <time>2019-01-07T12:49:25Z</time>
      </trkpt>
      <trkpt lat="45.83705" lon="4.2414">
        <ele>593.324</ele>
        <time>2019-01-07T12:49:31Z</time>
      </trkpt>
      <trkpt lat="45.8371" lon="4.24148">
        <ele>593.26</ele>
        <time>2019-01-07T12:49:37Z</time>
      </trkpt>
      <trkpt lat="45.83713" lon="4.24154">
        <ele>593.441</ele>
        <time>2019-01-07T12:49:42Z</time>
      </trkpt>
      <trkpt lat="45.83714" lon="4.24159">
        <ele>593.268</ele>
        <time>2019-01-07T12:49:47Z</time>
      </trkpt>
      <trkpt lat="45.83715" lon="4.24168">
        <ele>593.308</ele>
        <time>2019-01-07T12:49:53Z</time>
      </trkpt>
      <trkpt lat="45.83716" lon="4.24175">
        <ele>593.809</ele>
        <time>2019-01-07T12:49:59Z</time>
      </trkpt>
      <trkpt lat="45.83718" lon="4.24183">
        <ele>594.078</ele>
        <time>2019-01-07T12:50:05Z</time>
      </trkpt>
      <trkpt lat="45.83719" lon="4.2419">
        <ele>594.35</ele>
        <time>2019-01-07T12:50:11Z</time>
      </trkpt>
      <trkpt lat="45.8372" lon="4.24199">
        <ele>594.838</ele>
        <time>2019-01-07T12:50:17Z</time>
      </trkpt>
      <trkpt lat="45.83721" lon="4.24206">
        <ele>595.169</ele>
        <time>2019-01-07T12:50:22Z</time>
      </trkpt>
      <trkpt lat="45.83722" lon="4.24211">
        <ele>595.256</ele>
        <time>2019-01-07T12:50:27Z</time>
      </trkpt>
      <trkpt lat="45.83723" lon="4.2422">
        <ele>595.725</ele>
        <time>2019-01-07T12:50:33Z</time>
      </trkpt>
      <trkpt lat="45.83723" lon="4.24229">
        <ele>595.876</ele>
        <time>2019-01-07T12:50:39Z</time>
      </trkpt>
      <trkpt lat="45.83722" lon="4.24237">
        <ele>595.942</ele>
        <time>2019-01-07T12:50:45Z</time>
      </trkpt>
      <trkpt lat="45.83722" lon="4.24246">
        <ele>596.048</ele>
        <time>2019-01-07T12:50:51Z</time>
      </trkpt>
      <trkpt lat="45.83723" lon="4.24253">
        <ele>596.399</ele>
        <time>2019-01-07T12:50:57Z</time>
      </trkpt>
      <trkpt lat="45.83725" lon="4.24262">
        <ele>596.755</ele>
        <time>2019-01-07T12:51:02Z</time>
      </trkpt>
      <trkpt lat="45.83725" lon="4.24271">
        <ele>597.305</ele>
        <time>2019-01-07T12:51:08Z</time>
      </trkpt>
      <trkpt lat="45.83725" lon="4.24277">
        <ele>597.542</ele>
        <time>2019-01-07T12:51:13Z</time>
      </trkpt>
      <trkpt lat="45.83727" lon="4.24284">
        <ele>597.718</ele>
        <time>2019-01-07T12:51:19Z</time>
      </trkpt>
      <trkpt lat="45.83729" lon="4.24295">
        <ele>598.296</ele>
        <time>2019-01-07T12:51:25Z</time>
      </trkpt>
      <trkpt lat="45.83728" lon="4.24305">
        <ele>598.94</ele>
        <time>2019-01-07T12:51:30Z</time>
      </trkpt>
      <trkpt lat="45.83728" lon="4.24315">
        <ele>599.26</ele>
        <time>2019-01-07T12:51:36Z</time>
      </trkpt>
      <trkpt lat="45.8373" lon="4.24323">
        <ele>599.687</ele>
        <time>2019-01-07T12:51:42Z</time>
      </trkpt>
      <trkpt lat="45.83732" lon="4.2433">
        <ele>599.905</ele>
        <time>2019-01-07T12:51:47Z</time>
      </trkpt>
      <trkpt lat="45.83733" lon="4.24337">
        <ele>600.382</ele>
        <time>2019-01-07T12:51:52Z</time>
      </trkpt>
      <trkpt lat="45.83733" lon="4.24346">
        <ele>601.022</ele>
        <time>2019-01-07T12:51:58Z</time>
      </trkpt>
      <trkpt lat="45.83735" lon="4.24353">
        <ele>601.552</ele>
        <time>2019-01-07T12:52:03Z</time>
      </trkpt>
      <trkpt lat="45.83736" lon="4.24361">
        <ele>602.162</ele>
        <time>2019-01-07T12:52:09Z</time>
      </trkpt>
      <trkpt lat="45.83739" lon="4.24372">
        <ele>602.241</ele>
        <time>2019-01-07T12:52:15Z</time>
      </trkpt>
      <trkpt lat="45.83742" lon="4.24381">
        <ele>602.347</ele>
        <time>2019-01-07T12:52:20Z</time>
      </trkpt>
      <trkpt lat="45.83742" lon="4.2439">
        <ele>602.598</ele>
        <time>2019-01-07T12:52:26Z</time>
      </trkpt>
      <trkpt lat="45.83742" lon="4.24399">
        <ele>602.547</ele>
        <time>2019-01-07T12:52:31Z</time>
      </trkpt>
      <trkpt lat="45.83742" lon="4.24407">
        <ele>602.308</ele>
        <time>2019-01-07T12:52:36Z</time>
      </trkpt>
      <trkpt lat="45.83743" lon="4.24417">
        <ele>602.25</ele>
        <time>2019-01-07T12:52:42Z</time>
      </trkpt>
      <trkpt lat="45.83742" lon="4.24427">
        <ele>602.078</ele>
        <time>2019-01-07T12:52:48Z</time>
      </trkpt>
      <trkpt lat="45.83742" lon="4.24436">
        <ele>602.109</ele>
        <time>2019-01-07T12:52:54Z</time>
      </trkpt>
      <trkpt lat="45.83743" lon="4.24447">
        <ele>602.245</ele>
        <time>2019-01-07T12:52:59Z</time>
      </trkpt>
      <trkpt lat="45.83742" lon="4.24456">
        <ele>602.6</ele>
        <time>2019-01-07T12:53:05Z</time>
      </trkpt>
      <trkpt lat="45.83741" lon="4.24465">
        <ele>602.515</ele>
        <time>2019-01-07T12:53:11Z</time>
      </trkpt>
      <trkpt lat="45.83742" lon="4.24473">
        <ele>602.413</ele>
        <time>2019-01-07T12:53:16Z</time>
      </trkpt>
      <trkpt lat="45.83743" lon="4.24481">
        <ele>602.508</ele>
        <time>2019-01-07T12:53:21Z</time>
      </trkpt>
      <trkpt lat="45.83744" lon="4.24487">
        <ele>602.917</ele>
        <time>2019-01-07T12:53:27Z</time>
      </trkpt>
      <trkpt lat="45.83744" lon="4.24498">
        <ele>603.191</ele>
        <time>2019-01-07T12:53:33Z</time>
      </trkpt>
      <trkpt lat="45.83747" lon="4.24503">
        <ele>603.236</ele>
        <time>2019-01-07T12:53:39Z</time>
      </trkpt>
      <trkpt lat="45.83748" lon="4.24516">
        <ele>603.244</ele>
        <time>2019-01-07T12:53:45Z</time>
      </trkpt>
      <trkpt lat="45.83746" lon="4.24525">
        <ele>603.685</ele>
        <time>2019-01-07T12:53:51Z</time>
      </trkpt>
      <trkpt lat="45.83743" lon="4.24532">
        <ele>604.299</ele>
        <time>2019-01-07T12:53:56Z</time>
      </trkpt>
      <trkpt lat="45.83741" lon="4.2454">
        <ele>605.194</ele>
        <time>2019-01-07T12:54:02Z</time>
      </trkpt>
      <trkpt lat="45.83737" lon="4.24549">
        <ele>606.037</ele>
        <time>2019-01-07T12:54:08Z</time>
      </trkpt>
      <trkpt lat="45.83735" lon="4.24554">
        <ele>606.568</ele>
        <time>2019-01-07T12:54:13Z</time>
      </trkpt>
      <trkpt lat="45.83734" lon="4.24564">
        <ele>606.984</ele>
        <time>2019-01-07T12:54:19Z</time>
      </trkpt>
      <trkpt lat="45.83731" lon="4.24573">
        <ele>607.553</ele>
        <time>2019-01-07T12:54:25Z</time>
      </trkpt>
      <trkpt lat="45.83732" lon="4.24584">
        <ele>608.145</ele>
        <time>2019-01-07T12:54:30Z</time>
      </trkpt>
      <trkpt lat="45.83732" lon="4.24592">
        <ele>608.626</ele>
        <time>2019-01-07T12:54:36Z</time>
      </trkpt>
      <trkpt lat="45.83732" lon="4.24599">
        <ele>609.06</ele>
        <time>2019-01-07T12:54:41Z</time>
      </trkpt>
      <trkpt lat="45.83732" lon="4.24609">
        <ele>609.2</ele>
        <time>2019-01-07T12:54:46Z</time>
      </trkpt>
      <trkpt lat="45.83732" lon="4.24619">
        <ele>609.339</ele>
        <time>2019-01-07T12:54:51Z</time>
      </trkpt>
      <trkpt lat="45.83732" lon="4.24628">
        <ele>609.694</ele>
        <time>2019-01-07T12:54:57Z</time>
      </trkpt>
      <trkpt lat="45.83733" lon="4.24635">
        <ele>610.055</ele>
        <time>2019-01-07T12:55:02Z</time>
      </trkpt>
      <trkpt lat="45.83734" lon="4.24642">
        <ele>610.566</ele>
        <time>2019-01-07T12:55:07Z</time>
      </trkpt>
      <trkpt lat="45.83734" lon="4.24651">
        <ele>611.077</ele>
        <time>2019-01-07T12:55:13Z</time>
      </trkpt>
      <trkpt lat="45.83735" lon="4.24658">
        <ele>611.614</ele>
        <time>2019-01-07T12:55:18Z</time>
      </trkpt>
      <trkpt lat="45.83737" lon="4.24667">
        <ele>611.845</ele>
        <time>2019-01-07T12:55:24Z</time>
      </trkpt>
      <trkpt lat="45.83738" lon="4.24673">
        <ele>612.074</ele>
        <time>2019-01-07T12:55:29Z</time>
      </trkpt>
      <trkpt lat="45.83743" lon="4.24681">
        <ele>612.363</ele>
        <time>2019-01-07T12:55:35Z</time>
      </trkpt>
      <trkpt lat="45.83743" lon="4.24683">
        <ele>612.859</ele>
        <time>2019-01-07T12:55:40Z</time>
      </trkpt>
      <trkpt lat="45.83743" lon="4.24685">
        <ele>613.036</ele>
        <time>2019-01-07T12:55:45Z</time>
      </trkpt>
      <trkpt lat="45.83741" lon="4.24687">
        <ele>612.843</ele>
        <time>2019-01-07T12:55:51Z</time>
      </trkpt>
      <trkpt lat="45.83742" lon="4.24687">
        <ele>612.915</ele>
        <time>2019-01-07T12:55:56Z</time>
      </trkpt>
      <trkpt lat="45.83744" lon="4.2469">
        <ele>613.497</ele>
        <time>2019-01-07T12:56:01Z</time>
      </trkpt>
      <trkpt lat="45.83747" lon="4.24697">
        <ele>613.772</ele>
        <time>2019-01-07T12:56:07Z</time>
      </trkpt>
      <trkpt lat="45.83749" lon="4.24706">
        <ele>614.224</ele>
        <time>2019-01-07T12:56:13Z</time>
      </trkpt>
      <trkpt lat="45.83751" lon="4.2471">
        <ele>614.931</ele>
        <time>2019-01-07T12:56:19Z</time>
      </trkpt>
      <trkpt lat="45.8375" lon="4.24713">
        <ele>615.126</ele>
        <time>2019-01-07T12:56:24Z</time>
      </trkpt>
      <trkpt lat="45.83753" lon="4.24721">
        <ele>615.232</ele>
        <time>2019-01-07T12:56:29Z</time>
      </trkpt>
      <trkpt lat="45.83757" lon="4.24726">
        <ele>615.19</ele>
        <time>2019-01-07T12:56:34Z</time>
      </trkpt>
      <trkpt lat="45.83759" lon="4.24733">
        <ele>615.307</ele>
        <time>2019-01-07T12:56:39Z</time>
      </trkpt>
      <trkpt lat="45.83763" lon="4.24739">
        <ele>615.676</ele>
        <time>2019-01-07T12:56:45Z</time>
      </trkpt>
      <trkpt lat="45.83764" lon="4.24743">
        <ele>615.569</ele>
        <time>2019-01-07T12:56:50Z</time>
      </trkpt>
      <trkpt lat="45.83768" lon="4.24752">
        <ele>615.682</ele>
        <time>2019-01-07T12:56:56Z</time>
      </trkpt>
      <trkpt lat="45.8377" lon="4.2476">
        <ele>615.967</ele>
        <time>2019-01-07T12:57:02Z</time>
      </trkpt>
      <trkpt lat="45.83771" lon="4.24765">
        <ele>616.147</ele>
        <time>2019-01-07T12:57:07Z</time>
      </trkpt>
      <trkpt lat="45.83774" lon="4.24774">
        <ele>616.986</ele>
        <time>2019-01-07T12:57:13Z</time>
      </trkpt>
      <trkpt lat="45.83776" lon="4.2478">
        <ele>617.621</ele>
        <time>2019-01-07T12:57:18Z</time>
      </trkpt>
      <trkpt lat="45.83779" lon="4.24791">
        <ele>618.483</ele>
        <time>2019-01-07T12:57:24Z</time>
      </trkpt>
      <trkpt lat="45.83781" lon="4.24797">
        <ele>619.109</ele>
        <time>2019-01-07T12:57:29Z</time>
      </trkpt>
      <trkpt lat="45.83784" lon="4.24804">
        <ele>619.532</ele>
        <time>2019-01-07T12:57:34Z</time>
      </trkpt>
      <trkpt lat="45.83787" lon="4.24814">
        <ele>619.957</ele>
        <time>2019-01-07T12:57:40Z</time>
      </trkpt>
      <trkpt lat="45.83791" lon="4.24823">
        <ele>620.62</ele>
        <time>2019-01-07T12:57:46Z</time>
      </trkpt>
      <trkpt lat="45.83794" lon="4.2483">
        <ele>621.347</ele>
        <time>2019-01-07T12:57:51Z</time>
      </trkpt>
      <trkpt lat="45.83797" lon="4.24841">
        <ele>621.897</ele>
        <time>2019-01-07T12:57:57Z</time>
      </trkpt>
      <trkpt lat="45.838" lon="4.24848">
        <ele>622.697</ele>
        <time>2019-01-07T12:58:03Z</time>
      </trkpt>
      <trkpt lat="45.83805" lon="4.24859">
        <ele>623.004</ele>
        <time>2019-01-07T12:58:09Z</time>
      </trkpt>
      <trkpt lat="45.83807" lon="4.2487">
        <ele>623.527</ele>
        <time>2019-01-07T12:58:15Z</time>
      </trkpt>
      <trkpt lat="45.83809" lon="4.24877">
        <ele>624.06</ele>
        <time>2019-01-07T12:58:21Z</time>
      </trkpt>
      <trkpt lat="45.8381" lon="4.24886">
        <ele>624.408</ele>
        <time>2019-01-07T12:58:26Z</time>
      </trkpt>
      <trkpt lat="45.83811" lon="4.24894">
        <ele>624.792</ele>
        <time>2019-01-07T12:58:31Z</time>
      </trkpt>
      <trkpt lat="45.83813" lon="4.24904">
        <ele>625.137</ele>
        <time>2019-01-07T12:58:37Z</time>
      </trkpt>
      <trkpt lat="45.83815" lon="4.2491">
        <ele>625.505</ele>
        <time>2019-01-07T12:58:42Z</time>
      </trkpt>
      <trkpt lat="45.83817" lon="4.24919">
        <ele>625.972</ele>
        <time>2019-01-07T12:58:48Z</time>
      </trkpt>
      <trkpt lat="45.8382" lon="4.24931">
        <ele>626.432</ele>
        <time>2019-01-07T12:58:53Z</time>
      </trkpt>
      <trkpt lat="45.83823" lon="4.24938">
        <ele>626.933</ele>
        <time>2019-01-07T12:58:58Z</time>
      </trkpt>
      <trkpt lat="45.83825" lon="4.24947">
        <ele>627.627</ele>
        <time>2019-01-07T12:59:04Z</time>
      </trkpt>
      <trkpt lat="45.83827" lon="4.24955">
        <ele>627.967</ele>
        <time>2019-01-07T12:59:09Z</time>
      </trkpt>
      <trkpt lat="45.83831" lon="4.24964">
        <ele>628.605</ele>
        <time>2019-01-07T12:59:15Z</time>
      </trkpt>
      <trkpt lat="45.83833" lon="4.24972">
        <ele>629.404</ele>
        <time>2019-01-07T12:59:20Z</time>
      </trkpt>
      <trkpt lat="45.83835" lon="4.24978">
        <ele>630.081</ele>
        <time>2019-01-07T12:59:25Z</time>
      </trkpt>
      <trkpt lat="45.83839" lon="4.24986">
        <ele>630.92</ele>
        <time>2019-01-07T12:59:31Z</time>
      </trkpt>
      <trkpt lat="45.83842" lon="4.24992">
        <ele>631.458</ele>
        <time>2019-01-07T12:59:36Z</time>
      </trkpt>
      <trkpt lat="45.83844" lon="4.24998">
        <ele>631.872</ele>
        <time>2019-01-07T12:59:41Z</time>
      </trkpt>
      <trkpt lat="45.83847" lon="4.25005">
        <ele>632.376</ele>
        <time>2019-01-07T12:59:47Z</time>
      </trkpt>
      <trkpt lat="45.83852" lon="4.25011">
        <ele>632.925</ele>
        <time>2019-01-07T12:59:52Z</time>
      </trkpt>
      <trkpt lat="45.83857" lon="4.25017">
        <ele>633.525</ele>
        <time>2019-01-07T12:59:57Z</time>
      </trkpt>
      <trkpt lat="45.83863" lon="4.25024">
        <ele>634.086</ele>
        <time>2019-01-07T13:00:03Z</time>
      </trkpt>
      <trkpt lat="45.83867" lon="4.2503">
        <ele>634.474</ele>
        <time>2019-01-07T13:00:08Z</time>
      </trkpt>
      <trkpt lat="45.83872" lon="4.25035">
        <ele>635.183</ele>
        <time>2019-01-07T13:00:14Z</time>
      </trkpt>
      <trkpt lat="45.83878" lon="4.25042">
        <ele>635.504</ele>
        <time>2019-01-07T13:00:20Z</time>
      </trkpt>
      <trkpt lat="45.83883" lon="4.25047">
        <ele>635.674</ele>
        <time>2019-01-07T13:00:25Z</time>
      </trkpt>
      <trkpt lat="45.83887" lon="4.25051">
        <ele>636.006</ele>
        <time>2019-01-07T13:00:30Z</time>
      </trkpt>
      <trkpt lat="45.83892" lon="4.25057">
        <ele>636.669</ele>
        <time>2019-01-07T13:00:36Z</time>
      </trkpt>
      <trkpt lat="45.83897" lon="4.25062">
        <ele>636.999</ele>
        <time>2019-01-07T13:00:41Z</time>
      </trkpt>
      <trkpt lat="45.83902" lon="4.25068">
        <ele>637.385</ele>
        <time>2019-01-07T13:00:47Z</time>
      </trkpt>
      <trkpt lat="45.83908" lon="4.25073">
        <ele>637.921</ele>
        <time>2019-01-07T13:00:53Z</time>
      </trkpt>
      <trkpt lat="45.83912" lon="4.25077">
        <ele>638.267</ele>
        <time>2019-01-07T13:00:59Z</time>
      </trkpt>
      <trkpt lat="45.83918" lon="4.25083">
        <ele>638.536</ele>
        <time>2019-01-07T13:01:05Z</time>
      </trkpt>
      <trkpt lat="45.83923" lon="4.25087">
        <ele>638.607</ele>
        <time>2019-01-07T13:01:10Z</time>
      </trkpt>
      <trkpt lat="45.83925" lon="4.25092">
        <ele>638.322</ele>
        <time>2019-01-07T13:01:15Z</time>
      </trkpt>
      <trkpt lat="45.8393" lon="4.251">
        <ele>638.108</ele>
        <time>2019-01-07T13:01:21Z</time>
      </trkpt>
      <trkpt lat="45.83934" lon="4.2511">
        <ele>638.04</ele>
        <time>2019-01-07T13:01:27Z</time>
      </trkpt>
      <trkpt lat="45.83936" lon="4.25115">
        <ele>638.312</ele>
        <time>2019-01-07T13:01:33Z</time>
      </trkpt>
      <trkpt lat="45.83936" lon="4.25123">
        <ele>638.327</ele>
        <time>2019-01-07T13:01:39Z</time>
      </trkpt>
      <trkpt lat="45.83937" lon="4.25131">
        <ele>638.614</ele>
        <time>2019-01-07T13:01:45Z</time>
      </trkpt>
      <trkpt lat="45.83937" lon="4.25141">
        <ele>638.724</ele>
        <time>2019-01-07T13:01:51Z</time>
      </trkpt>
      <trkpt lat="45.83937" lon="4.2515">
        <ele>638.832</ele>
        <time>2019-01-07T13:01:56Z</time>
      </trkpt>
      <trkpt lat="45.83936" lon="4.2516">
        <ele>639.069</ele>
        <time>2019-01-07T13:02:02Z</time>
      </trkpt>
      <trkpt lat="45.83936" lon="4.25172">
        <ele>639.345</ele>
        <time>2019-01-07T13:02:08Z</time>
      </trkpt>
      <trkpt lat="45.83937" lon="4.25177">
        <ele>639.761</ele>
        <time>2019-01-07T13:02:13Z</time>
      </trkpt>
      <trkpt lat="45.83938" lon="4.25188">
        <ele>639.959</ele>
        <time>2019-01-07T13:02:19Z</time>
      </trkpt>
      <trkpt lat="45.83939" lon="4.25196">
        <ele>639.799</ele>
        <time>2019-01-07T13:02:25Z</time>
      </trkpt>
      <trkpt lat="45.83938" lon="4.25204">
        <ele>639.667</ele>
        <time>2019-01-07T13:02:31Z</time>
      </trkpt>
      <trkpt lat="45.83938" lon="4.25213">
        <ele>639.695</ele>
        <time>2019-01-07T13:02:36Z</time>
      </trkpt>
      <trkpt lat="45.8394" lon="4.25224">
        <ele>639.889</ele>
        <time>2019-01-07T13:02:42Z</time>
      </trkpt>
      <trkpt lat="45.83941" lon="4.25229">
        <ele>640.093</ele>
        <time>2019-01-07T13:02:47Z</time>
      </trkpt>
      <trkpt lat="45.83943" lon="4.25239">
        <ele>640.042</ele>
        <time>2019-01-07T13:02:53Z</time>
      </trkpt>
      <trkpt lat="45.83944" lon="4.25246">
        <ele>640.307</ele>
        <time>2019-01-07T13:02:59Z</time>
      </trkpt>
      <trkpt lat="45.83945" lon="4.25252">
        <ele>640.479</ele>
        <time>2019-01-07T13:03:04Z</time>
      </trkpt>
      <trkpt lat="45.83946" lon="4.2526">
        <ele>640.524</ele>
        <time>2019-01-07T13:03:09Z</time>
      </trkpt>
      <trkpt lat="45.83948" lon="4.25268">
        <ele>640.597</ele>
        <time>2019-01-07T13:03:15Z</time>
      </trkpt>
      <trkpt lat="45.8395" lon="4.25276">
        <ele>640.261</ele>
        <time>2019-01-07T13:03:20Z</time>
      </trkpt>
      <trkpt lat="45.83952" lon="4.25283">
        <ele>640.191</ele>
        <time>2019-01-07T13:03:25Z</time>
      </trkpt>
      <trkpt lat="45.83954" lon="4.25292">
        <ele>640.562</ele>
        <time>2019-01-07T13:03:31Z</time>
      </trkpt>
      <trkpt lat="45.83956" lon="4.25297">
        <ele>640.951</ele>
        <time>2019-01-07T13:03:36Z</time>
      </trkpt>
      <trkpt lat="45.83958" lon="4.25303">
        <ele>641.146</ele>
        <time>2019-01-07T13:03:41Z</time>
      </trkpt>
      <trkpt lat="45.83961" lon="4.2531">
        <ele>641.389</ele>
        <time>2019-01-07T13:03:47Z</time>
      </trkpt>
      <trkpt lat="45.83963" lon="4.25314">
        <ele>641.898</ele>
        <time>2019-01-07T13:03:53Z</time>
      </trkpt>
      <trkpt lat="45.83966" lon="4.25321">
        <ele>642.296</ele>
        <time>2019-01-07T13:03:58Z</time>
      </trkpt>
      <trkpt lat="45.8397" lon="4.2533">
        <ele>642.642</ele>
        <time>2019-01-07T13:04:04Z</time>
      </trkpt>
      <trkpt lat="45.83972" lon="4.25337">
        <ele>642.869</ele>
        <time>2019-01-07T13:04:09Z</time>
      </trkpt>
      <trkpt lat="45.83974" lon="4.25341">
        <ele>643.24</ele>
        <time>2019-01-07T13:04:14Z</time>
      </trkpt>
      <trkpt lat="45.83977" lon="4.25348">
        <ele>643.401</ele>
        <time>2019-01-07T13:04:20Z</time>
      </trkpt>
      <trkpt lat="45.8398" lon="4.25354">
        <ele>643.609</ele>
        <time>2019-01-07T13:04:26Z</time>
      </trkpt>
      <trkpt lat="45.83984" lon="4.2536">
        <ele>643.934</ele>
        <time>2019-01-07T13:04:31Z</time>
      </trkpt>
      <trkpt lat="45.83987" lon="4.25366">
        <ele>644.175</ele>
        <time>2019-01-07T13:04:37Z</time>
      </trkpt>
      <trkpt lat="45.83993" lon="4.25374">
        <ele>644.573</ele>
        <time>2019-01-07T13:04:43Z</time>
      </trkpt>
      <trkpt lat="45.83997" lon="4.25379">
        <ele>645.004</ele>
        <time>2019-01-07T13:04:49Z</time>
      </trkpt>
      <trkpt lat="45.83999" lon="4.25383">
        <ele>645.243</ele>
        <time>2019-01-07T13:04:54Z</time>
      </trkpt>
      <trkpt lat="45.84004" lon="4.25391">
        <ele>645.619</ele>
        <time>2019-01-07T13:05:00Z</time>
      </trkpt>
      <trkpt lat="45.84008" lon="4.25395">
        <ele>646.106</ele>
        <time>2019-01-07T13:05:06Z</time>
      </trkpt>
      <trkpt lat="45.84012" lon="4.25402">
        <ele>646.594</ele>
        <time>2019-01-07T13:05:12Z</time>
      </trkpt>
      <trkpt lat="45.84017" lon="4.2541">
        <ele>647.219</ele>
        <time>2019-01-07T13:05:18Z</time>
      </trkpt>
      <trkpt lat="45.84021" lon="4.25419">
        <ele>648.046</ele>
        <time>2019-01-07T13:05:24Z</time>
      </trkpt>
      <trkpt lat="45.84024" lon="4.25423">
        <ele>648.606</ele>
        <time>2019-01-07T13:05:29Z</time>
      </trkpt>
      <trkpt lat="45.84029" lon="4.2543">
        <ele>649.257</ele>
        <time>2019-01-07T13:05:35Z</time>
      </trkpt>
      <trkpt lat="45.84031" lon="4.25435">
        <ele>649.488</ele>
        <time>2019-01-07T13:05:40Z</time>
      </trkpt>
      <trkpt lat="45.84035" lon="4.25439">
        <ele>649.607</ele>
        <time>2019-01-07T13:05:45Z</time>
      </trkpt>
      <trkpt lat="45.84042" lon="4.25449">
        <ele>650.054</ele>
        <time>2019-01-07T13:05:51Z</time>
      </trkpt>
      <trkpt lat="45.84044" lon="4.25455">
        <ele>650.184</ele>
        <time>2019-01-07T13:05:56Z</time>
      </trkpt>
      <trkpt lat="45.84047" lon="4.25461">
        <ele>650.335</ele>
        <time>2019-01-07T13:06:02Z</time>
      </trkpt>
      <trkpt lat="45.84053" lon="4.2547">
        <ele>651.01</ele>
        <time>2019-01-07T13:06:08Z</time>
      </trkpt>
      <trkpt lat="45.84057" lon="4.25476">
        <ele>651.717</ele>
        <time>2019-01-07T13:06:13Z</time>
      </trkpt>
      <trkpt lat="45.8406" lon="4.25483">
        <ele>652.474</ele>
        <time>2019-01-07T13:06:19Z</time>
      </trkpt>
      <trkpt lat="45.84066" lon="4.25488">
        <ele>653.049</ele>
        <time>2019-01-07T13:06:25Z</time>
      </trkpt>
      <trkpt lat="45.84068" lon="4.25493">
        <ele>653.546</ele>
        <time>2019-01-07T13:06:31Z</time>
      </trkpt>
      <trkpt lat="45.84072" lon="4.25498">
        <ele>653.833</ele>
        <time>2019-01-07T13:06:37Z</time>
      </trkpt>
      <trkpt lat="45.84074" lon="4.25504">
        <ele>654.291</ele>
        <time>2019-01-07T13:06:43Z</time>
      </trkpt>
      <trkpt lat="45.84076" lon="4.25509">
        <ele>654.481</ele>
        <time>2019-01-07T13:06:48Z</time>
      </trkpt>
      <trkpt lat="45.84079" lon="4.25518">
        <ele>654.878</ele>
        <time>2019-01-07T13:06:54Z</time>
      </trkpt>
      <trkpt lat="45.84084" lon="4.25527">
        <ele>654.938</ele>
        <time>2019-01-07T13:07:00Z</time>
      </trkpt>
      <trkpt lat="45.84088" lon="4.25533">
        <ele>655.378</ele>
        <time>2019-01-07T13:07:06Z</time>
      </trkpt>
      <trkpt lat="45.84092" lon="4.25541">
        <ele>655.764</ele>
        <time>2019-01-07T13:07:12Z</time>
      </trkpt>
      <trkpt lat="45.84097" lon="4.25549">
        <ele>656.14</ele>
        <time>2019-01-07T13:07:18Z</time>
      </trkpt>
      <trkpt lat="45.84102" lon="4.25556">
        <ele>656.724</ele>
        <time>2019-01-07T13:07:24Z</time>
      </trkpt>
      <trkpt lat="45.84108" lon="4.25562">
        <ele>657.065</ele>
        <time>2019-01-07T13:07:30Z</time>
      </trkpt>
      <trkpt lat="45.84111" lon="4.25567">
        <ele>657.391</ele>
        <time>2019-01-07T13:07:36Z</time>
      </trkpt>
      <trkpt lat="45.84113" lon="4.25576">
        <ele>657.531</ele>
        <time>2019-01-07T13:07:42Z</time>
      </trkpt>
      <trkpt lat="45.84116" lon="4.25585">
        <ele>657.602</ele>
        <time>2019-01-07T13:07:48Z</time>
      </trkpt>
      <trkpt lat="45.84118" lon="4.25591">
        <ele>657.625</ele>
        <time>2019-01-07T13:07:54Z</time>
      </trkpt>
      <trkpt lat="45.8412" lon="4.25602">
        <ele>657.694</ele>
        <time>2019-01-07T13:08:00Z</time>
      </trkpt>
      <trkpt lat="45.84121" lon="4.25614">
        <ele>657.979</ele>
        <time>2019-01-07T13:08:06Z</time>
      </trkpt>
      <trkpt lat="45.8412" lon="4.25621">
        <ele>658.312</ele>
        <time>2019-01-07T13:08:12Z</time>
      </trkpt>
      <trkpt lat="45.8412" lon="4.25629">
        <ele>658.455</ele>
        <time>2019-01-07T13:08:17Z</time>
      </trkpt>
      <trkpt lat="45.84119" lon="4.25639">
        <ele>658.769</ele>
        <time>2019-01-07T13:08:23Z</time>
      </trkpt>
      <trkpt lat="45.84117" lon="4.25646">
        <ele>659.186</ele>
        <time>2019-01-07T13:08:28Z</time>
      </trkpt>
      <trkpt lat="45.84114" lon="4.25654">
        <ele>659.779</ele>
        <time>2019-01-07T13:08:34Z</time>
      </trkpt>
      <trkpt lat="45.84112" lon="4.25662">
        <ele>660.366</ele>
        <time>2019-01-07T13:08:40Z</time>
      </trkpt>
      <trkpt lat="45.8411" lon="4.25669">
        <ele>660.847</ele>
        <time>2019-01-07T13:08:46Z</time>
      </trkpt>
      <trkpt lat="45.84107" lon="4.25675">
        <ele>661.289</ele>
        <time>2019-01-07T13:08:52Z</time>
      </trkpt>
      <trkpt lat="45.84106" lon="4.25681">
        <ele>661.779</ele>
        <time>2019-01-07T13:08:57Z</time>
      </trkpt>
      <trkpt lat="45.84104" lon="4.2569">
        <ele>662.708</ele>
        <time>2019-01-07T13:09:03Z</time>
      </trkpt>
      <trkpt lat="45.84103" lon="4.25695">
        <ele>663.37</ele>
        <time>2019-01-07T13:09:08Z</time>
      </trkpt>
      <trkpt lat="45.84102" lon="4.25702">
        <ele>664.048</ele>
        <time>2019-01-07T13:09:13Z</time>
      </trkpt>
      <trkpt lat="45.841" lon="4.25709">
        <ele>664.881</ele>
        <time>2019-01-07T13:09:19Z</time>
      </trkpt>
      <trkpt lat="45.84099" lon="4.25715">
        <ele>665.524</ele>
        <time>2019-01-07T13:09:24Z</time>
      </trkpt>
      <trkpt lat="45.84097" lon="4.25722">
        <ele>666.12</ele>
        <time>2019-01-07T13:09:30Z</time>
      </trkpt>
      <trkpt lat="45.84096" lon="4.25726">
        <ele>666.423</ele>
        <time>2019-01-07T13:09:35Z</time>
      </trkpt>
      <trkpt lat="45.84095" lon="4.25733">
        <ele>666.592</ele>
        <time>2019-01-07T13:09:40Z</time>
      </trkpt>
      <trkpt lat="45.84095" lon="4.25742">
        <ele>667.089</ele>
        <time>2019-01-07T13:09:46Z</time>
      </trkpt>
      <trkpt lat="45.84093" lon="4.25751">
        <ele>667.663</ele>
        <time>2019-01-07T13:09:52Z</time>
      </trkpt>
      <trkpt lat="45.84093" lon="4.25758">
        <ele>668.566</ele>
        <time>2019-01-07T13:09:58Z</time>
      </trkpt>
      <trkpt lat="45.84093" lon="4.25768">
        <ele>669.312</ele>
        <time>2019-01-07T13:10:04Z</time>
      </trkpt>
      <trkpt lat="45.84093" lon="4.25777">
        <ele>670.12</ele>
        <time>2019-01-07T13:10:10Z</time>
      </trkpt>
      <trkpt lat="45.84092" lon="4.25786">
        <ele>670.815</ele>
        <time>2019-01-07T13:10:16Z</time>
      </trkpt>
      <trkpt lat="45.84093" lon="4.25794">
        <ele>671.394</ele>
        <time>2019-01-07T13:10:21Z</time>
      </trkpt>
      <trkpt lat="45.84094" lon="4.25803">
        <ele>672.15</ele>
        <time>2019-01-07T13:10:27Z</time>
      </trkpt>
      <trkpt lat="45.84096" lon="4.25812">
        <ele>672.876</ele>
        <time>2019-01-07T13:10:33Z</time>
      </trkpt>
      <trkpt lat="45.84098" lon="4.25821">
        <ele>673.261</ele>
        <time>2019-01-07T13:10:39Z</time>
      </trkpt>
      <trkpt lat="45.841" lon="4.25827">
        <ele>673.509</ele>
        <time>2019-01-07T13:10:44Z</time>
      </trkpt>
      <trkpt lat="45.84102" lon="4.25833">
        <ele>673.874</ele>
        <time>2019-01-07T13:10:49Z</time>
      </trkpt>
      <trkpt lat="45.84105" lon="4.2584">
        <ele>674.3</ele>
        <time>2019-01-07T13:10:55Z</time>
      </trkpt>
      <trkpt lat="45.84107" lon="4.25846">
        <ele>674.28</ele>
        <time>2019-01-07T13:11:00Z</time>
      </trkpt>
      <trkpt lat="45.8411" lon="4.25855">
        <ele>674.921</ele>
        <time>2019-01-07T13:11:06Z</time>
      </trkpt>
      <trkpt lat="45.84113" lon="4.2586">
        <ele>675.585</ele>
        <time>2019-01-07T13:11:12Z</time>
      </trkpt>
      <trkpt lat="45.84117" lon="4.25866">
        <ele>675.864</ele>
        <time>2019-01-07T13:11:17Z</time>
      </trkpt>
      <trkpt lat="45.8412" lon="4.25873">
        <ele>676.388</ele>
        <time>2019-01-07T13:11:22Z</time>
      </trkpt>
      <trkpt lat="45.84125" lon="4.2588">
        <ele>676.967</ele>
        <time>2019-01-07T13:11:28Z</time>
      </trkpt>
      <trkpt lat="45.84129" lon="4.25886">
        <ele>677.539</ele>
        <time>2019-01-07T13:11:33Z</time>
      </trkpt>
      <trkpt lat="45.84133" lon="4.25892">
        <ele>678.734</ele>
        <time>2019-01-07T13:11:39Z</time>
      </trkpt>
      <trkpt lat="45.84138" lon="4.25896">
        <ele>679.674</ele>
        <time>2019-01-07T13:11:45Z</time>
      </trkpt>
      <trkpt lat="45.84142" lon="4.25901">
        <ele>680.396</ele>
        <time>2019-01-07T13:11:51Z</time>
      </trkpt>
      <trkpt lat="45.84145" lon="4.25903">
        <ele>680.806</ele>
        <time>2019-01-07T13:11:56Z</time>
      </trkpt>
      <trkpt lat="45.84149" lon="4.25906">
        <ele>681.249</ele>
        <time>2019-01-07T13:12:02Z</time>
      </trkpt>
      <trkpt lat="45.84149" lon="4.25907">
        <ele>681.605</ele>
        <time>2019-01-07T13:12:08Z</time>
      </trkpt>
      <trkpt lat="45.84149" lon="4.25907">
        <ele>682.073</ele>
        <time>2019-01-07T13:12:13Z</time>
      </trkpt>
      <trkpt lat="45.84147" lon="4.25906">
        <ele>682.021</ele>
        <time>2019-01-07T13:12:19Z</time>
      </trkpt>
      <trkpt lat="45.84149" lon="4.25907">
        <ele>682.089</ele>
        <time>2019-01-07T13:12:25Z</time>
      </trkpt>
      <trkpt lat="45.8415" lon="4.25906">
        <ele>682.195</ele>
        <time>2019-01-07T13:12:30Z</time>
      </trkpt>
      <trkpt lat="45.8415" lon="4.25906">
        <ele>682.121</ele>
        <time>2019-01-07T13:12:36Z</time>
      </trkpt>
      <trkpt lat="45.84148" lon="4.25904">
        <ele>681.851</ele>
        <time>2019-01-07T13:12:42Z</time>
      </trkpt>
      <trkpt lat="45.84147" lon="4.25903">
        <ele>681.464</ele>
        <time>2019-01-07T13:12:47Z</time>
      </trkpt>
      <trkpt lat="45.84147" lon="4.25902">
        <ele>680.151</ele>
        <time>2019-01-07T13:12:52Z</time>
      </trkpt>
      <trkpt lat="45.84151" lon="4.25907">
        <ele>679.6</ele>
        <time>2019-01-07T13:12:57Z</time>
      </trkpt>
      <trkpt lat="45.8416" lon="4.25914">
        <ele>679.634</ele>
        <time>2019-01-07T13:13:02Z</time>
      </trkpt>
      <trkpt lat="45.84168" lon="4.25923">
        <ele>680.167</ele>
        <time>2019-01-07T13:13:08Z</time>
      </trkpt>
      <trkpt lat="45.84173" lon="4.25931">
        <ele>680.926</ele>
        <time>2019-01-07T13:13:14Z</time>
      </trkpt>
      <trkpt lat="45.84178" lon="4.25939">
        <ele>681.429</ele>
        <time>2019-01-07T13:13:19Z</time>
      </trkpt>
      <trkpt lat="45.84184" lon="4.25947">
        <ele>681.784</ele>
        <time>2019-01-07T13:13:24Z</time>
      </trkpt>
      <trkpt lat="45.8419" lon="4.25956">
        <ele>682.238</ele>
        <time>2019-01-07T13:13:30Z</time>
      </trkpt>
      <trkpt lat="45.84195" lon="4.25964">
        <ele>682.903</ele>
        <time>2019-01-07T13:13:35Z</time>
      </trkpt>
      <trkpt lat="45.84198" lon="4.25972">
        <ele>683.23</ele>
        <time>2019-01-07T13:13:41Z</time>
      </trkpt>
      <trkpt lat="45.84198" lon="4.25972">
        <ele>683.555</ele>
        <time>2019-01-07T13:13:46Z</time>
      </trkpt>
      <trkpt lat="45.84197" lon="4.2597">
        <ele>684.23</ele>
        <time>2019-01-07T13:13:52Z</time>
      </trkpt>
      <trkpt lat="45.8419" lon="4.25964">
        <ele>684.803</ele>
        <time>2019-01-07T13:13:57Z</time>
      </trkpt>
      <trkpt lat="45.84184" lon="4.25956">
        <ele>685.164</ele>
        <time>2019-01-07T13:14:03Z</time>
      </trkpt>
      <trkpt lat="45.84178" lon="4.25946">
        <ele>685.196</ele>
        <time>2019-01-07T13:14:09Z</time>
      </trkpt>
      <trkpt lat="45.84173" lon="4.2594">
        <ele>685.252</ele>
        <time>2019-01-07T13:14:15Z</time>
      </trkpt>
      <trkpt lat="45.84166" lon="4.2593">
        <ele>685.271</ele>
        <time>2019-01-07T13:14:21Z</time>
      </trkpt>
      <trkpt lat="45.84161" lon="4.25923">
        <ele>685.235</ele>
        <time>2019-01-07T13:14:27Z</time>
      </trkpt>
      <trkpt lat="45.84155" lon="4.25916">
        <ele>685.28</ele>
        <time>2019-01-07T13:14:33Z</time>
      </trkpt>
      <trkpt lat="45.84151" lon="4.25912">
        <ele>685.329</ele>
        <time>2019-01-07T13:14:39Z</time>
      </trkpt>
      <trkpt lat="45.84152" lon="4.25911">
        <ele>685.316</ele>
        <time>2019-01-07T13:14:45Z</time>
      </trkpt>
      <trkpt lat="45.84154" lon="4.25911">
        <ele>685.595</ele>
        <time>2019-01-07T13:14:51Z</time>
      </trkpt>
      <trkpt lat="45.84154" lon="4.25912">
        <ele>685.722</ele>
        <time>2019-01-07T13:14:57Z</time>
      </trkpt>
      <trkpt lat="45.84153" lon="4.25912">
        <ele>685.402</ele>
        <time>2019-01-07T13:15:03Z</time>
      </trkpt>
      <trkpt lat="45.84153" lon="4.25911">
        <ele>685.784</ele>
        <time>2019-01-07T13:15:09Z</time>
      </trkpt>
      <trkpt lat="45.84152" lon="4.25909">
        <ele>686.177</ele>
        <time>2019-01-07T13:15:15Z</time>
      </trkpt>
      <trkpt lat="45.84151" lon="4.25908">
        <ele>686.445</ele>
        <time>2019-01-07T13:15:20Z</time>
      </trkpt>
      <trkpt lat="45.84152" lon="4.25909">
        <ele>686.599</ele>
        <time>2019-01-07T13:15:26Z</time>
      </trkpt>
      <trkpt lat="45.84154" lon="4.25911">
        <ele>686.885</ele>
        <time>2019-01-07T13:15:31Z</time>
      </trkpt>
      <trkpt lat="45.84155" lon="4.25913">
        <ele>687.011</ele>
        <time>2019-01-07T13:15:36Z</time>
      </trkpt>
      <trkpt lat="45.84156" lon="4.25914">
        <ele>687.536</ele>
        <time>2019-01-07T13:15:42Z</time>
      </trkpt>
      <trkpt lat="45.84155" lon="4.25911">
        <ele>687.59</ele>
        <time>2019-01-07T13:15:48Z</time>
      </trkpt>
      <trkpt lat="45.84154" lon="4.25911">
        <ele>687.727</ele>
        <time>2019-01-07T13:15:54Z</time>
      </trkpt>
      <trkpt lat="45.84153" lon="4.2591">
        <ele>688.064</ele>
        <time>2019-01-07T13:16:00Z</time>
      </trkpt>
      <trkpt lat="45.84154" lon="4.2591">
        <ele>688.37</ele>
        <time>2019-01-07T13:16:05Z</time>
      </trkpt>
      <trkpt lat="45.84155" lon="4.25909">
        <ele>688.752</ele>
        <time>2019-01-07T13:16:11Z</time>
      </trkpt>
      <trkpt lat="45.84154" lon="4.2591">
        <ele>689.518</ele>
        <time>2019-01-07T13:16:17Z</time>
      </trkpt>
      <trkpt lat="45.84153" lon="4.25912">
        <ele>690.644</ele>
        <time>2019-01-07T13:16:23Z</time>
      </trkpt>
      <trkpt lat="45.84151" lon="4.25914">
        <ele>690.98</ele>
        <time>2019-01-07T13:16:28Z</time>
      </trkpt>
      <trkpt lat="45.84148" lon="4.25916">
        <ele>691.157</ele>
        <time>2019-01-07T13:16:34Z</time>
      </trkpt>
      <trkpt lat="45.84148" lon="4.25919">
        <ele>690.701</ele>
        <time>2019-01-07T13:16:40Z</time>
      </trkpt>
      <trkpt lat="45.84149" lon="4.25921">
        <ele>690.364</ele>
        <time>2019-01-07T13:16:45Z</time>
      </trkpt>
      <trkpt lat="45.84148" lon="4.25922">
        <ele>689.785</ele>
        <time>2019-01-07T13:16:51Z</time>
      </trkpt>
      <trkpt lat="45.84147" lon="4.25924">
        <ele>689.178</ele>
        <time>2019-01-07T13:16:56Z</time>
      </trkpt>
      <trkpt lat="45.84147" lon="4.25924">
        <ele>688.903</ele>
        <time>2019-01-07T13:17:02Z</time>
      </trkpt>
      <trkpt lat="45.84145" lon="4.25925">
        <ele>688.487</ele>
        <time>2019-01-07T13:17:07Z</time>
      </trkpt>
      <trkpt lat="45.84139" lon="4.25936">
        <ele>687.804</ele>
        <time>2019-01-07T13:17:13Z</time>
      </trkpt>
      <trkpt lat="45.84134" lon="4.25944">
        <ele>687.074</ele>
        <time>2019-01-07T13:17:18Z</time>
      </trkpt>
      <trkpt lat="45.8413" lon="4.2595">
        <ele>686.962</ele>
        <time>2019-01-07T13:17:24Z</time>
      </trkpt>
      <trkpt lat="45.84127" lon="4.25953">
        <ele>686.536</ele>
        <time>2019-01-07T13:17:29Z</time>
      </trkpt>
      <trkpt lat="45.84124" lon="4.25957">
        <ele>685.916</ele>
        <time>2019-01-07T13:17:34Z</time>
      </trkpt>
      <trkpt lat="45.8412" lon="4.25961">
        <ele>685.224</ele>
        <time>2019-01-07T13:17:39Z</time>
      </trkpt>
      <trkpt lat="45.84118" lon="4.25963">
        <ele>684.563</ele>
        <time>2019-01-07T13:17:44Z</time>
      </trkpt>
      <trkpt lat="45.84113" lon="4.25965">
        <ele>683.684</ele>
        <time>2019-01-07T13:17:50Z</time>
      </trkpt>
      <trkpt lat="45.8411" lon="4.25971">
        <ele>683.134</ele>
        <time>2019-01-07T13:17:56Z</time>
      </trkpt>
      <trkpt lat="45.84107" lon="4.25974">
        <ele>682.444</ele>
        <time>2019-01-07T13:18:01Z</time>
      </trkpt>
      <trkpt lat="45.84104" lon="4.25976">
        <ele>681.939</ele>
        <time>2019-01-07T13:18:06Z</time>
      </trkpt>
      <trkpt lat="45.841" lon="4.25981">
        <ele>681.551</ele>
        <time>2019-01-07T13:18:12Z</time>
      </trkpt>
      <trkpt lat="45.84093" lon="4.25989">
        <ele>680.896</ele>
        <time>2019-01-07T13:18:17Z</time>
      </trkpt>
      <trkpt lat="45.84092" lon="4.25994">
        <ele>679.908</ele>
        <time>2019-01-07T13:18:23Z</time>
      </trkpt>
      <trkpt lat="45.84088" lon="4.25998">
        <ele>678.823</ele>
        <time>2019-01-07T13:18:29Z</time>
      </trkpt>
      <trkpt lat="45.84084" lon="4.26002">
        <ele>677.72</ele>
        <time>2019-01-07T13:18:34Z</time>
      </trkpt>
      <trkpt lat="45.84078" lon="4.26004">
        <ele>676.852</ele>
        <time>2019-01-07T13:18:39Z</time>
      </trkpt>
      <trkpt lat="45.84071" lon="4.26004">
        <ele>675.781</ele>
        <time>2019-01-07T13:18:45Z</time>
      </trkpt>
      <trkpt lat="45.84066" lon="4.26002">
        <ele>675.158</ele>
        <time>2019-01-07T13:18:50Z</time>
      </trkpt>
      <trkpt lat="45.84059" lon="4.26003">
        <ele>674.577</ele>
        <time>2019-01-07T13:18:56Z</time>
      </trkpt>
      <trkpt lat="45.84056" lon="4.26004">
        <ele>673.861</ele>
        <time>2019-01-07T13:19:01Z</time>
      </trkpt>
      <trkpt lat="45.8405" lon="4.26003">
        <ele>673.592</ele>
        <time>2019-01-07T13:19:06Z</time>
      </trkpt>
      <trkpt lat="45.84044" lon="4.26002">
        <ele>672.729</ele>
        <time>2019-01-07T13:19:12Z</time>
      </trkpt>
      <trkpt lat="45.84036" lon="4.26003">
        <ele>671.552</ele>
        <time>2019-01-07T13:19:17Z</time>
      </trkpt>
      <trkpt lat="45.84029" lon="4.26002">
        <ele>670.343</ele>
        <time>2019-01-07T13:19:23Z</time>
      </trkpt>
      <trkpt lat="45.84024" lon="4.26001">
        <ele>669.346</ele>
        <time>2019-01-07T13:19:28Z</time>
      </trkpt>
      <trkpt lat="45.84018" lon="4.25996">
        <ele>668.384</ele>
        <time>2019-01-07T13:19:33Z</time>
      </trkpt>
      <trkpt lat="45.84011" lon="4.25999">
        <ele>667.035</ele>
        <time>2019-01-07T13:19:39Z</time>
      </trkpt>
      <trkpt lat="45.84007" lon="4.26002">
        <ele>666.417</ele>
        <time>2019-01-07T13:19:45Z</time>
      </trkpt>
      <trkpt lat="45.83996" lon="4.26">
        <ele>665.601</ele>
        <time>2019-01-07T13:19:51Z</time>
      </trkpt>
      <trkpt lat="45.83988" lon="4.25997">
        <ele>664.478</ele>
        <time>2019-01-07T13:19:57Z</time>
      </trkpt>
      <trkpt lat="45.8398" lon="4.25997">
        <ele>663.72</ele>
        <time>2019-01-07T13:20:02Z</time>
      </trkpt>
      <trkpt lat="45.83975" lon="4.25995">
        <ele>662.682</ele>
        <time>2019-01-07T13:20:07Z</time>
      </trkpt>
      <trkpt lat="45.83969" lon="4.25991">
        <ele>661.408</ele>
        <time>2019-01-07T13:20:13Z</time>
      </trkpt>
      <trkpt lat="45.83963" lon="4.25988">
        <ele>660.922</ele>
        <time>2019-01-07T13:20:19Z</time>
      </trkpt>
      <trkpt lat="45.83957" lon="4.25988">
        <ele>660.365</ele>
        <time>2019-01-07T13:20:24Z</time>
      </trkpt>
      <trkpt lat="45.8395" lon="4.25985">
        <ele>659.76</ele>
        <time>2019-01-07T13:20:30Z</time>
      </trkpt>
      <trkpt lat="45.83943" lon="4.25983">
        <ele>659.568</ele>
        <time>2019-01-07T13:20:35Z</time>
      </trkpt>
      <trkpt lat="45.83937" lon="4.25982">
        <ele>659.246</ele>
        <time>2019-01-07T13:20:41Z</time>
      </trkpt>
      <trkpt lat="45.83932" lon="4.2598">
        <ele>658.928</ele>
        <time>2019-01-07T13:20:46Z</time>
      </trkpt>
      <trkpt lat="45.83925" lon="4.25979">
        <ele>658.008</ele>
        <time>2019-01-07T13:20:52Z</time>
      </trkpt>
      <trkpt lat="45.83919" lon="4.25978">
        <ele>657.061</ele>
        <time>2019-01-07T13:20:57Z</time>
      </trkpt>
      <trkpt lat="45.83914" lon="4.25977">
        <ele>656.142</ele>
        <time>2019-01-07T13:21:03Z</time>
      </trkpt>
      <trkpt lat="45.83908" lon="4.25975">
        <ele>655.565</ele>
        <time>2019-01-07T13:21:08Z</time>
      </trkpt>
      <trkpt lat="45.83903" lon="4.25974">
        <ele>655.172</ele>
        <time>2019-01-07T13:21:13Z</time>
      </trkpt>
      <trkpt lat="45.83898" lon="4.25972">
        <ele>655.146</ele>
        <time>2019-01-07T13:21:18Z</time>
      </trkpt>
      <trkpt lat="45.83891" lon="4.25972">
        <ele>655.167</ele>
        <time>2019-01-07T13:21:24Z</time>
      </trkpt>
      <trkpt lat="45.83886" lon="4.25971">
        <ele>654.74</ele>
        <time>2019-01-07T13:21:30Z</time>
      </trkpt>
      <trkpt lat="45.83878" lon="4.25969">
        <ele>654.329</ele>
        <time>2019-01-07T13:21:36Z</time>
      </trkpt>
      <trkpt lat="45.83875" lon="4.25968">
        <ele>653.972</ele>
        <time>2019-01-07T13:21:41Z</time>
      </trkpt>
      <trkpt lat="45.8387" lon="4.25969">
        <ele>653.876</ele>
        <time>2019-01-07T13:21:46Z</time>
      </trkpt>
      <trkpt lat="45.83863" lon="4.25966">
        <ele>654.014</ele>
        <time>2019-01-07T13:21:52Z</time>
      </trkpt>
      <trkpt lat="45.83857" lon="4.25963">
        <ele>653.898</ele>
        <time>2019-01-07T13:21:57Z</time>
      </trkpt>
      <trkpt lat="45.8385" lon="4.25962">
        <ele>653.94</ele>
        <time>2019-01-07T13:22:03Z</time>
      </trkpt>
      <trkpt lat="45.83842" lon="4.2596">
        <ele>653.184</ele>
        <time>2019-01-07T13:22:09Z</time>
      </trkpt>
      <trkpt lat="45.83836" lon="4.2596">
        <ele>652.3</ele>
        <time>2019-01-07T13:22:15Z</time>
      </trkpt>
      <trkpt lat="45.8383" lon="4.25958">
        <ele>651.091</ele>
        <time>2019-01-07T13:22:21Z</time>
      </trkpt>
      <trkpt lat="45.83822" lon="4.25957">
        <ele>649.932</ele>
        <time>2019-01-07T13:22:27Z</time>
      </trkpt>
      <trkpt lat="45.83815" lon="4.25952">
        <ele>649.297</ele>
        <time>2019-01-07T13:22:33Z</time>
      </trkpt>
      <trkpt lat="45.83812" lon="4.25951">
        <ele>648.755</ele>
        <time>2019-01-07T13:22:39Z</time>
      </trkpt>
      <trkpt lat="45.83808" lon="4.25954">
        <ele>647.787</ele>
        <time>2019-01-07T13:22:44Z</time>
      </trkpt>
      <trkpt lat="45.83804" lon="4.25964">
        <ele>647.278</ele>
        <time>2019-01-07T13:22:49Z</time>
      </trkpt>
      <trkpt lat="45.83804" lon="4.25974">
        <ele>646.266</ele>
        <time>2019-01-07T13:22:55Z</time>
      </trkpt>
      <trkpt lat="45.83804" lon="4.25982">
        <ele>645.616</ele>
        <time>2019-01-07T13:23:00Z</time>
      </trkpt>
      <trkpt lat="45.83805" lon="4.25989">
        <ele>645.076</ele>
        <time>2019-01-07T13:23:06Z</time>
      </trkpt>
      <trkpt lat="45.83802" lon="4.25996">
        <ele>644.83</ele>
        <time>2019-01-07T13:23:12Z</time>
      </trkpt>
      <trkpt lat="45.83802" lon="4.25995">
        <ele>644.489</ele>
        <time>2019-01-07T13:23:18Z</time>
      </trkpt>
      <trkpt lat="45.83802" lon="4.25995">
        <ele>644.326</ele>
        <time>2019-01-07T13:23:23Z</time>
      </trkpt>
      <trkpt lat="45.838" lon="4.25996">
        <ele>644.313</ele>
        <time>2019-01-07T13:23:29Z</time>
      </trkpt>
      <trkpt lat="45.83798" lon="4.25997">
        <ele>644.579</ele>
        <time>2019-01-07T13:23:34Z</time>
      </trkpt>
      <trkpt lat="45.83793" lon="4.25997">
        <ele>644.819</ele>
        <time>2019-01-07T13:23:40Z</time>
      </trkpt>
      <trkpt lat="45.83787" lon="4.25993">
        <ele>644.937</ele>
        <time>2019-01-07T13:23:45Z</time>
      </trkpt>
      <trkpt lat="45.83783" lon="4.25991">
        <ele>644.96</ele>
        <time>2019-01-07T13:23:51Z</time>
      </trkpt>
      <trkpt lat="45.83777" lon="4.25989">
        <ele>644.902</ele>
        <time>2019-01-07T13:23:56Z</time>
      </trkpt>
      <trkpt lat="45.83773" lon="4.25987">
        <ele>645.037</ele>
        <time>2019-01-07T13:24:01Z</time>
      </trkpt>
      <trkpt lat="45.83769" lon="4.25983">
        <ele>645.078</ele>
        <time>2019-01-07T13:24:07Z</time>
      </trkpt>
      <trkpt lat="45.83764" lon="4.25978">
        <ele>645.366</ele>
        <time>2019-01-07T13:24:12Z</time>
      </trkpt>
      <trkpt lat="45.83761" lon="4.25975">
        <ele>645.678</ele>
        <time>2019-01-07T13:24:17Z</time>
      </trkpt>
      <trkpt lat="45.8376" lon="4.25974">
        <ele>646.149</ele>
        <time>2019-01-07T13:24:23Z</time>
      </trkpt>
      <trkpt lat="45.8376" lon="4.25975">
        <ele>646.647</ele>
        <time>2019-01-07T13:24:29Z</time>
      </trkpt>
      <trkpt lat="45.83757" lon="4.25973">
        <ele>646.363</ele>
        <time>2019-01-07T13:24:34Z</time>
      </trkpt>
      <trkpt lat="45.83754" lon="4.25969">
        <ele>645.97</ele>
        <time>2019-01-07T13:24:40Z</time>
      </trkpt>
      <trkpt lat="45.83751" lon="4.25968">
        <ele>645.845</ele>
        <time>2019-01-07T13:24:46Z</time>
      </trkpt>
      <trkpt lat="45.83748" lon="4.25966">
        <ele>645.389</ele>
        <time>2019-01-07T13:24:52Z</time>
      </trkpt>
      <trkpt lat="45.83742" lon="4.25963">
        <ele>644.919</ele>
        <time>2019-01-07T13:24:57Z</time>
      </trkpt>
      <trkpt lat="45.83736" lon="4.25961">
        <ele>644.97</ele>
        <time>2019-01-07T13:25:03Z</time>
      </trkpt>
      <trkpt lat="45.8373" lon="4.25959">
        <ele>644.775</ele>
        <time>2019-01-07T13:25:08Z</time>
      </trkpt>
      <trkpt lat="45.83728" lon="4.25956">
        <ele>644.413</ele>
        <time>2019-01-07T13:25:13Z</time>
      </trkpt>
      <trkpt lat="45.83721" lon="4.25951">
        <ele>644.179</ele>
        <time>2019-01-07T13:25:19Z</time>
      </trkpt>
      <trkpt lat="45.83715" lon="4.25948">
        <ele>644.006</ele>
        <time>2019-01-07T13:25:24Z</time>
      </trkpt>
      <trkpt lat="45.83709" lon="4.25946">
        <ele>643.681</ele>
        <time>2019-01-07T13:25:29Z</time>
      </trkpt>
      <trkpt lat="45.83704" lon="4.25943">
        <ele>643.403</ele>
        <time>2019-01-07T13:25:35Z</time>
      </trkpt>
      <trkpt lat="45.83699" lon="4.25939">
        <ele>643.291</ele>
        <time>2019-01-07T13:25:40Z</time>
      </trkpt>
      <trkpt lat="45.83691" lon="4.25934">
        <ele>642.992</ele>
        <time>2019-01-07T13:25:46Z</time>
      </trkpt>
      <trkpt lat="45.83686" lon="4.25931">
        <ele>642.553</ele>
        <time>2019-01-07T13:25:51Z</time>
      </trkpt>
      <trkpt lat="45.83683" lon="4.25929">
        <ele>642.094</ele>
        <time>2019-01-07T13:25:56Z</time>
      </trkpt>
      <trkpt lat="45.83677" lon="4.25924">
        <ele>641.624</ele>
        <time>2019-01-07T13:26:02Z</time>
      </trkpt>
      <trkpt lat="45.83672" lon="4.25919">
        <ele>641.305</ele>
        <time>2019-01-07T13:26:08Z</time>
      </trkpt>
      <trkpt lat="45.83666" lon="4.25916">
        <ele>641.309</ele>
        <time>2019-01-07T13:26:13Z</time>
      </trkpt>
      <trkpt lat="45.83661" lon="4.25913">
        <ele>641.575</ele>
        <time>2019-01-07T13:26:18Z</time>
      </trkpt>
      <trkpt lat="45.83655" lon="4.2591">
        <ele>641.575</ele>
        <time>2019-01-07T13:26:24Z</time>
      </trkpt>
      <trkpt lat="45.83649" lon="4.25907">
        <ele>641.489</ele>
        <time>2019-01-07T13:26:29Z</time>
      </trkpt>
      <trkpt lat="45.83645" lon="4.25902">
        <ele>640.964</ele>
        <time>2019-01-07T13:26:34Z</time>
      </trkpt>
      <trkpt lat="45.83638" lon="4.25899">
        <ele>640.193</ele>
        <time>2019-01-07T13:26:40Z</time>
      </trkpt>
      <trkpt lat="45.83632" lon="4.25896">
        <ele>639.698</ele>
        <time>2019-01-07T13:26:45Z</time>
      </trkpt>
      <trkpt lat="45.83627" lon="4.25892">
        <ele>639.066</ele>
        <time>2019-01-07T13:26:51Z</time>
      </trkpt>
      <trkpt lat="45.83623" lon="4.25888">
        <ele>638.539</ele>
        <time>2019-01-07T13:26:56Z</time>
      </trkpt>
      <trkpt lat="45.83616" lon="4.25885">
        <ele>637.672</ele>
        <time>2019-01-07T13:27:02Z</time>
      </trkpt>
      <trkpt lat="45.83611" lon="4.25882">
        <ele>636.87</ele>
        <time>2019-01-07T13:27:07Z</time>
      </trkpt>
      <trkpt lat="45.83608" lon="4.25877">
        <ele>635.926</ele>
        <time>2019-01-07T13:27:12Z</time>
      </trkpt>
      <trkpt lat="45.83603" lon="4.25875">
        <ele>635.184</ele>
        <time>2019-01-07T13:27:18Z</time>
      </trkpt>
      <trkpt lat="45.83594" lon="4.25866">
        <ele>634.223</ele>
        <time>2019-01-07T13:27:25Z</time>
      </trkpt>
      <trkpt lat="45.83589" lon="4.25862">
        <ele>633.494</ele>
        <time>2019-01-07T13:27:31Z</time>
      </trkpt>
      <trkpt lat="45.83584" lon="4.25861">
        <ele>633.291</ele>
        <time>2019-01-07T13:27:37Z</time>
      </trkpt>
      <trkpt lat="45.83579" lon="4.25861">
        <ele>632.908</ele>
        <time>2019-01-07T13:27:42Z</time>
      </trkpt>
      <trkpt lat="45.83572" lon="4.25859">
        <ele>632.473</ele>
        <time>2019-01-07T13:27:48Z</time>
      </trkpt>
      <trkpt lat="45.83566" lon="4.25854">
        <ele>631.743</ele>
        <time>2019-01-07T13:27:53Z</time>
      </trkpt>
      <trkpt lat="45.83562" lon="4.25851">
        <ele>631.07</ele>
        <time>2019-01-07T13:27:58Z</time>
      </trkpt>
      <trkpt lat="45.83558" lon="4.25847">
        <ele>630.185</ele>
        <time>2019-01-07T13:28:04Z</time>
      </trkpt>
      <trkpt lat="45.83555" lon="4.25844">
        <ele>629.869</ele>
        <time>2019-01-07T13:28:09Z</time>
      </trkpt>
      <trkpt lat="45.83549" lon="4.25842">
        <ele>629.612</ele>
        <time>2019-01-07T13:28:14Z</time>
      </trkpt>
      <trkpt lat="45.83543" lon="4.25838">
        <ele>629.109</ele>
        <time>2019-01-07T13:28:20Z</time>
      </trkpt>
      <trkpt lat="45.83537" lon="4.25834">
        <ele>628.778</ele>
        <time>2019-01-07T13:28:25Z</time>
      </trkpt>
      <trkpt lat="45.83532" lon="4.25832">
        <ele>628.532</ele>
        <time>2019-01-07T13:28:31Z</time>
      </trkpt>
      <trkpt lat="45.83527" lon="4.25828">
        <ele>628.531</ele>
        <time>2019-01-07T13:28:36Z</time>
      </trkpt>
      <trkpt lat="45.83521" lon="4.25823">
        <ele>628.448</ele>
        <time>2019-01-07T13:28:42Z</time>
      </trkpt>
      <trkpt lat="45.83518" lon="4.2582">
        <ele>628.312</ele>
        <time>2019-01-07T13:28:47Z</time>
      </trkpt>
      <trkpt lat="45.83513" lon="4.25815">
        <ele>628.079</ele>
        <time>2019-01-07T13:28:53Z</time>
      </trkpt>
      <trkpt lat="45.83506" lon="4.25809">
        <ele>627.751</ele>
        <time>2019-01-07T13:28:59Z</time>
      </trkpt>
      <trkpt lat="45.83499" lon="4.25807">
        <ele>627.36</ele>
        <time>2019-01-07T13:29:05Z</time>
      </trkpt>
      <trkpt lat="45.83492" lon="4.25803">
        <ele>626.511</ele>
        <time>2019-01-07T13:29:11Z</time>
      </trkpt>
      <trkpt lat="45.83487" lon="4.25801">
        <ele>626.17</ele>
        <time>2019-01-07T13:29:16Z</time>
      </trkpt>
      <trkpt lat="45.8348" lon="4.25797">
        <ele>626.017</ele>
        <time>2019-01-07T13:29:22Z</time>
      </trkpt>
      <trkpt lat="45.83474" lon="4.25792">
        <ele>625.899</ele>
        <time>2019-01-07T13:29:27Z</time>
      </trkpt>
      <trkpt lat="45.83468" lon="4.25787">
        <ele>625.511</ele>
        <time>2019-01-07T13:29:33Z</time>
      </trkpt>
      <trkpt lat="45.83463" lon="4.25784">
        <ele>625.322</ele>
        <time>2019-01-07T13:29:39Z</time>
      </trkpt>
      <trkpt lat="45.83458" lon="4.25781">
        <ele>625.393</ele>
        <time>2019-01-07T13:29:45Z</time>
      </trkpt>
      <trkpt lat="45.83455" lon="4.25777">
        <ele>625.563</ele>
        <time>2019-01-07T13:29:50Z</time>
      </trkpt>
      <trkpt lat="45.83453" lon="4.25775">
        <ele>625.865</ele>
        <time>2019-01-07T13:29:56Z</time>
      </trkpt>
      <trkpt lat="45.83453" lon="4.25773">
        <ele>625.781</ele>
        <time>2019-01-07T13:30:02Z</time>
      </trkpt>
      <trkpt lat="45.83454" lon="4.25771">
        <ele>625.687</ele>
        <time>2019-01-07T13:30:08Z</time>
      </trkpt>
      <trkpt lat="45.83455" lon="4.25771">
        <ele>625.58</ele>
        <time>2019-01-07T13:30:13Z</time>
      </trkpt>
      <trkpt lat="45.83456" lon="4.25772">
        <ele>625.545</ele>
        <time>2019-01-07T13:30:19Z</time>
      </trkpt>
      <trkpt lat="45.83455" lon="4.25777">
        <ele>625.409</ele>
        <time>2019-01-07T13:30:24Z</time>
      </trkpt>
      <trkpt lat="45.83455" lon="4.2578">
        <ele>625.579</ele>
        <time>2019-01-07T13:30:29Z</time>
      </trkpt>
      <trkpt lat="45.83455" lon="4.25781">
        <ele>625.572</ele>
        <time>2019-01-07T13:30:35Z</time>
      </trkpt>
      <trkpt lat="45.83455" lon="4.25784">
        <ele>625.535</ele>
        <time>2019-01-07T13:30:40Z</time>
      </trkpt>
      <trkpt lat="45.83453" lon="4.25784">
        <ele>625.537</ele>
        <time>2019-01-07T13:30:46Z</time>
      </trkpt>
      <trkpt lat="45.83451" lon="4.25783">
        <ele>625.315</ele>
        <time>2019-01-07T13:30:51Z</time>
      </trkpt>
      <trkpt lat="45.8345" lon="4.25782">
        <ele>624.845</ele>
        <time>2019-01-07T13:30:57Z</time>
      </trkpt>
      <trkpt lat="45.83449" lon="4.25781">
        <ele>624.668</ele>
        <time>2019-01-07T13:31:03Z</time>
      </trkpt>
      <trkpt lat="45.83448" lon="4.25777">
        <ele>624.378</ele>
        <time>2019-01-07T13:31:09Z</time>
      </trkpt>
      <trkpt lat="45.83446" lon="4.25773">
        <ele>624.207</ele>
        <time>2019-01-07T13:31:14Z</time>
      </trkpt>
      <trkpt lat="45.83443" lon="4.25768">
        <ele>624.179</ele>
        <time>2019-01-07T13:31:20Z</time>
      </trkpt>
      <trkpt lat="45.83438" lon="4.25762">
        <ele>624.07</ele>
        <time>2019-01-07T13:31:25Z</time>
      </trkpt>
      <trkpt lat="45.83433" lon="4.25756">
        <ele>623.779</ele>
        <time>2019-01-07T13:31:31Z</time>
      </trkpt>
      <trkpt lat="45.83429" lon="4.25749">
        <ele>623.461</ele>
        <time>2019-01-07T13:31:37Z</time>
      </trkpt>
      <trkpt lat="45.83426" lon="4.25745">
        <ele>622.947</ele>
        <time>2019-01-07T13:31:42Z</time>
      </trkpt>
      <trkpt lat="45.83422" lon="4.25738">
        <ele>622.791</ele>
        <time>2019-01-07T13:31:48Z</time>
      </trkpt>
      <trkpt lat="45.83419" lon="4.25734">
        <ele>622.513</ele>
        <time>2019-01-07T13:31:53Z</time>
      </trkpt>
      <trkpt lat="45.83413" lon="4.25726">
        <ele>622.042</ele>
        <time>2019-01-07T13:31:59Z</time>
      </trkpt>
      <trkpt lat="45.83407" lon="4.25719">
        <ele>621.702</ele>
        <time>2019-01-07T13:32:05Z</time>
      </trkpt>
      <trkpt lat="45.83404" lon="4.25714">
        <ele>621.706</ele>
        <time>2019-01-07T13:32:10Z</time>
      </trkpt>
      <trkpt lat="45.83401" lon="4.2571">
        <ele>621.632</ele>
        <time>2019-01-07T13:32:15Z</time>
      </trkpt>
      <trkpt lat="45.83396" lon="4.25702">
        <ele>621.55</ele>
        <time>2019-01-07T13:32:21Z</time>
      </trkpt>
      <trkpt lat="45.83391" lon="4.25697">
        <ele>621.585</ele>
        <time>2019-01-07T13:32:26Z</time>
      </trkpt>
      <trkpt lat="45.83387" lon="4.25693">
        <ele>621.808</ele>
        <time>2019-01-07T13:32:32Z</time>
      </trkpt>
      <trkpt lat="45.83382" lon="4.25687">
        <ele>621.852</ele>
        <time>2019-01-07T13:32:37Z</time>
      </trkpt>
      <trkpt lat="45.83378" lon="4.25683">
        <ele>621.706</ele>
        <time>2019-01-07T13:32:42Z</time>
      </trkpt>
      <trkpt lat="45.83371" lon="4.25677">
        <ele>621.604</ele>
        <time>2019-01-07T13:32:48Z</time>
      </trkpt>
      <trkpt lat="45.83366" lon="4.25674">
        <ele>621.728</ele>
        <time>2019-01-07T13:32:54Z</time>
      </trkpt>
      <trkpt lat="45.83361" lon="4.25669">
        <ele>621.528</ele>
        <time>2019-01-07T13:32:59Z</time>
      </trkpt>
      <trkpt lat="45.83356" lon="4.25664">
        <ele>620.931</ele>
        <time>2019-01-07T13:33:05Z</time>
      </trkpt>
      <trkpt lat="45.83351" lon="4.25658">
        <ele>620.436</ele>
        <time>2019-01-07T13:33:10Z</time>
      </trkpt>
      <trkpt lat="45.83347" lon="4.25653">
        <ele>619.843</ele>
        <time>2019-01-07T13:33:16Z</time>
      </trkpt>
      <trkpt lat="45.83342" lon="4.25648">
        <ele>619.537</ele>
        <time>2019-01-07T13:33:22Z</time>
      </trkpt>
      <trkpt lat="45.83338" lon="4.25642">
        <ele>619.212</ele>
        <time>2019-01-07T13:33:27Z</time>
      </trkpt>
      <trkpt lat="45.83334" lon="4.25637">
        <ele>618.981</ele>
        <time>2019-01-07T13:33:32Z</time>
      </trkpt>
      <trkpt lat="45.8333" lon="4.25634">
        <ele>619.174</ele>
        <time>2019-01-07T13:33:38Z</time>
      </trkpt>
      <trkpt lat="45.83326" lon="4.25628">
        <ele>619.362</ele>
        <time>2019-01-07T13:33:43Z</time>
      </trkpt>
      <trkpt lat="45.8332" lon="4.25618">
        <ele>619.313</ele>
        <time>2019-01-07T13:33:49Z</time>
      </trkpt>
      <trkpt lat="45.83315" lon="4.25611">
        <ele>618.994</ele>
        <time>2019-01-07T13:33:55Z</time>
      </trkpt>
      <trkpt lat="45.83312" lon="4.25605">
        <ele>618.825</ele>
        <time>2019-01-07T13:34:00Z</time>
      </trkpt>
      <trkpt lat="45.83307" lon="4.25595">
        <ele>618.442</ele>
        <time>2019-01-07T13:34:06Z</time>
      </trkpt>
      <trkpt lat="45.83305" lon="4.25586">
        <ele>617.889</ele>
        <time>2019-01-07T13:34:11Z</time>
      </trkpt>
      <trkpt lat="45.83302" lon="4.25578">
        <ele>617.062</ele>
        <time>2019-01-07T13:34:17Z</time>
      </trkpt>
      <trkpt lat="45.83299" lon="4.2557">
        <ele>616.81</ele>
        <time>2019-01-07T13:34:22Z</time>
      </trkpt>
      <trkpt lat="45.83297" lon="4.25564">
        <ele>616.848</ele>
        <time>2019-01-07T13:34:27Z</time>
      </trkpt>
      <trkpt lat="45.83294" lon="4.25557">
        <ele>617.006</ele>
        <time>2019-01-07T13:34:33Z</time>
      </trkpt>
      <trkpt lat="45.83289" lon="4.25547">
        <ele>616.477</ele>
        <time>2019-01-07T13:34:39Z</time>
      </trkpt>
      <trkpt lat="45.83287" lon="4.25539">
        <ele>616.215</ele>
        <time>2019-01-07T13:34:44Z</time>
      </trkpt>
      <trkpt lat="45.83283" lon="4.2553">
        <ele>615.798</ele>
        <time>2019-01-07T13:34:50Z</time>
      </trkpt>
      <trkpt lat="45.83279" lon="4.25525">
        <ele>615.202</ele>
        <time>2019-01-07T13:34:55Z</time>
      </trkpt>
      <trkpt lat="45.83276" lon="4.25519">
        <ele>614.593</ele>
        <time>2019-01-07T13:35:00Z</time>
      </trkpt>
      <trkpt lat="45.83271" lon="4.25511">
        <ele>613.955</ele>
        <time>2019-01-07T13:35:06Z</time>
      </trkpt>
      <trkpt lat="45.83267" lon="4.25502">
        <ele>613.409</ele>
        <time>2019-01-07T13:35:12Z</time>
      </trkpt>
      <trkpt lat="45.83263" lon="4.25496">
        <ele>613.004</ele>
        <time>2019-01-07T13:35:18Z</time>
      </trkpt>
      <trkpt lat="45.83259" lon="4.2549">
        <ele>612.724</ele>
        <time>2019-01-07T13:35:23Z</time>
      </trkpt>
      <trkpt lat="45.83255" lon="4.25481">
        <ele>612.948</ele>
        <time>2019-01-07T13:35:29Z</time>
      </trkpt>
      <trkpt lat="45.83251" lon="4.25475">
        <ele>613.098</ele>
        <time>2019-01-07T13:35:34Z</time>
      </trkpt>
      <trkpt lat="45.83245" lon="4.25466">
        <ele>612.877</ele>
        <time>2019-01-07T13:35:40Z</time>
      </trkpt>
      <trkpt lat="45.83242" lon="4.2546">
        <ele>612.638</ele>
        <time>2019-01-07T13:35:45Z</time>
      </trkpt>
      <trkpt lat="45.83236" lon="4.25454">
        <ele>612.596</ele>
        <time>2019-01-07T13:35:51Z</time>
      </trkpt>
      <trkpt lat="45.8323" lon="4.25447">
        <ele>612.27</ele>
        <time>2019-01-07T13:35:56Z</time>
      </trkpt>
      <trkpt lat="45.83226" lon="4.25444">
        <ele>611.944</ele>
        <time>2019-01-07T13:36:01Z</time>
      </trkpt>
      <trkpt lat="45.83221" lon="4.25439">
        <ele>611.932</ele>
        <time>2019-01-07T13:36:07Z</time>
      </trkpt>
      <trkpt lat="45.83214" lon="4.25432">
        <ele>611.959</ele>
        <time>2019-01-07T13:36:13Z</time>
      </trkpt>
      <trkpt lat="45.83209" lon="4.25428">
        <ele>611.706</ele>
        <time>2019-01-07T13:36:18Z</time>
      </trkpt>
      <trkpt lat="45.83203" lon="4.25424">
        <ele>611.644</ele>
        <time>2019-01-07T13:36:24Z</time>
      </trkpt>
      <trkpt lat="45.83197" lon="4.25422">
        <ele>611.664</ele>
        <time>2019-01-07T13:36:29Z</time>
      </trkpt>
      <trkpt lat="45.83191" lon="4.25418">
        <ele>611.72</ele>
        <time>2019-01-07T13:36:34Z</time>
      </trkpt>
      <trkpt lat="45.83185" lon="4.25418">
        <ele>611.643</ele>
        <time>2019-01-07T13:36:40Z</time>
      </trkpt>
      <trkpt lat="45.83179" lon="4.25416">
        <ele>611.527</ele>
        <time>2019-01-07T13:36:45Z</time>
      </trkpt>
      <trkpt lat="45.83172" lon="4.25411">
        <ele>611.34</ele>
        <time>2019-01-07T13:36:51Z</time>
      </trkpt>
      <trkpt lat="45.83167" lon="4.25407">
        <ele>611.461</ele>
        <time>2019-01-07T13:36:56Z</time>
      </trkpt>
      <trkpt lat="45.8316" lon="4.25406">
        <ele>611.223</ele>
        <time>2019-01-07T13:37:02Z</time>
      </trkpt>
      <trkpt lat="45.83155" lon="4.25404">
        <ele>610.811</ele>
        <time>2019-01-07T13:37:07Z</time>
      </trkpt>
      <trkpt lat="45.83147" lon="4.25399">
        <ele>610.561</ele>
        <time>2019-01-07T13:37:12Z</time>
      </trkpt>
      <trkpt lat="45.83142" lon="4.25394">
        <ele>610.401</ele>
        <time>2019-01-07T13:37:17Z</time>
      </trkpt>
      <trkpt lat="45.83135" lon="4.25388">
        <ele>609.933</ele>
        <time>2019-01-07T13:37:23Z</time>
      </trkpt>
      <trkpt lat="45.8313" lon="4.25384">
        <ele>609.435</ele>
        <time>2019-01-07T13:37:29Z</time>
      </trkpt>
      <trkpt lat="45.83124" lon="4.25379">
        <ele>608.937</ele>
        <time>2019-01-07T13:37:34Z</time>
      </trkpt>
      <trkpt lat="45.83118" lon="4.25373">
        <ele>608.139</ele>
        <time>2019-01-07T13:37:40Z</time>
      </trkpt>
      <trkpt lat="45.83113" lon="4.2537">
        <ele>607.381</ele>
        <time>2019-01-07T13:37:46Z</time>
      </trkpt>
      <trkpt lat="45.83105" lon="4.25366">
        <ele>606.746</ele>
        <time>2019-01-07T13:37:51Z</time>
      </trkpt>
      <trkpt lat="45.83098" lon="4.25362">
        <ele>605.926</ele>
        <time>2019-01-07T13:37:57Z</time>
      </trkpt>
      <trkpt lat="45.83093" lon="4.25358">
        <ele>605.199</ele>
        <time>2019-01-07T13:38:02Z</time>
      </trkpt>
      <trkpt lat="45.83087" lon="4.2535">
        <ele>604.284</ele>
        <time>2019-01-07T13:38:08Z</time>
      </trkpt>
      <trkpt lat="45.83083" lon="4.25346">
        <ele>603.482</ele>
        <time>2019-01-07T13:38:13Z</time>
      </trkpt>
      <trkpt lat="45.83077" lon="4.25339">
        <ele>602.504</ele>
        <time>2019-01-07T13:38:19Z</time>
      </trkpt>
      <trkpt lat="45.83071" lon="4.25335">
        <ele>601.504</ele>
        <time>2019-01-07T13:38:25Z</time>
      </trkpt>
      <trkpt lat="45.83064" lon="4.25332">
        <ele>600.482</ele>
        <time>2019-01-07T13:38:31Z</time>
      </trkpt>
      <trkpt lat="45.83057" lon="4.2533">
        <ele>599.54</ele>
        <time>2019-01-07T13:38:36Z</time>
      </trkpt>
      <trkpt lat="45.83048" lon="4.25325">
        <ele>598.517</ele>
        <time>2019-01-07T13:38:42Z</time>
      </trkpt>
      <trkpt lat="45.83041" lon="4.25322">
        <ele>597.351</ele>
        <time>2019-01-07T13:38:48Z</time>
      </trkpt>
      <trkpt lat="45.83034" lon="4.25317">
        <ele>596.3</ele>
        <time>2019-01-07T13:38:54Z</time>
      </trkpt>
      <trkpt lat="45.83029" lon="4.25313">
        <ele>595.814</ele>
        <time>2019-01-07T13:38:59Z</time>
      </trkpt>
      <trkpt lat="45.83024" lon="4.25309">
        <ele>595.142</ele>
        <time>2019-01-07T13:39:05Z</time>
      </trkpt>
      <trkpt lat="45.83018" lon="4.25304">
        <ele>594.241</ele>
        <time>2019-01-07T13:39:10Z</time>
      </trkpt>
      <trkpt lat="45.83011" lon="4.25295">
        <ele>593.418</ele>
        <time>2019-01-07T13:39:16Z</time>
      </trkpt>
      <trkpt lat="45.83007" lon="4.2529">
        <ele>592.954</ele>
        <time>2019-01-07T13:39:21Z</time>
      </trkpt>
      <trkpt lat="45.83001" lon="4.25285">
        <ele>592.601</ele>
        <time>2019-01-07T13:39:27Z</time>
      </trkpt>
      <trkpt lat="45.82995" lon="4.25282">
        <ele>592.135</ele>
        <time>2019-01-07T13:39:32Z</time>
      </trkpt>
      <trkpt lat="45.82988" lon="4.25277">
        <ele>592.007</ele>
        <time>2019-01-07T13:39:38Z</time>
      </trkpt>
      <trkpt lat="45.82982" lon="4.25274">
        <ele>592.048</ele>
        <time>2019-01-07T13:39:43Z</time>
      </trkpt>
      <trkpt lat="45.82976" lon="4.25271">
        <ele>591.905</ele>
        <time>2019-01-07T13:39:49Z</time>
      </trkpt>
      <trkpt lat="45.82971" lon="4.25268">
        <ele>591.463</ele>
        <time>2019-01-07T13:39:54Z</time>
      </trkpt>
      <trkpt lat="45.82964" lon="4.25265">
        <ele>590.866</ele>
        <time>2019-01-07T13:40:00Z</time>
      </trkpt>
      <trkpt lat="45.82959" lon="4.25265">
        <ele>590.376</ele>
        <time>2019-01-07T13:40:05Z</time>
      </trkpt>
      <trkpt lat="45.82951" lon="4.25266">
        <ele>589.857</ele>
        <time>2019-01-07T13:40:11Z</time>
      </trkpt>
      <trkpt lat="45.82945" lon="4.25267">
        <ele>589.65</ele>
        <time>2019-01-07T13:40:16Z</time>
      </trkpt>
      <trkpt lat="45.82938" lon="4.25267">
        <ele>589.444</ele>
        <time>2019-01-07T13:40:21Z</time>
      </trkpt>
      <trkpt lat="45.8293" lon="4.25265">
        <ele>589.118</ele>
        <time>2019-01-07T13:40:27Z</time>
      </trkpt>
      <trkpt lat="45.82924" lon="4.25262">
        <ele>588.912</ele>
        <time>2019-01-07T13:40:33Z</time>
      </trkpt>
      <trkpt lat="45.82919" lon="4.25259">
        <ele>588.515</ele>
        <time>2019-01-07T13:40:38Z</time>
      </trkpt>
      <trkpt lat="45.82911" lon="4.25254">
        <ele>588.455</ele>
        <time>2019-01-07T13:40:44Z</time>
      </trkpt>
      <trkpt lat="45.82907" lon="4.25249">
        <ele>588.447</ele>
        <time>2019-01-07T13:40:49Z</time>
      </trkpt>
      <trkpt lat="45.82902" lon="4.25242">
        <ele>588.264</ele>
        <time>2019-01-07T13:40:55Z</time>
      </trkpt>
      <trkpt lat="45.82896" lon="4.25239">
        <ele>588.183</ele>
        <time>2019-01-07T13:41:00Z</time>
      </trkpt>
      <trkpt lat="45.82889" lon="4.25234">
        <ele>587.926</ele>
        <time>2019-01-07T13:41:06Z</time>
      </trkpt>
      <trkpt lat="45.82883" lon="4.25231">
        <ele>587.443</ele>
        <time>2019-01-07T13:41:11Z</time>
      </trkpt>
      <trkpt lat="45.82878" lon="4.25226">
        <ele>586.878</ele>
        <time>2019-01-07T13:41:16Z</time>
      </trkpt>
      <trkpt lat="45.82872" lon="4.25221">
        <ele>586.23</ele>
        <time>2019-01-07T13:41:22Z</time>
      </trkpt>
      <trkpt lat="45.82867" lon="4.25218">
        <ele>585.577</ele>
        <time>2019-01-07T13:41:27Z</time>
      </trkpt>
      <trkpt lat="45.82862" lon="4.25214">
        <ele>584.871</ele>
        <time>2019-01-07T13:41:32Z</time>
      </trkpt>
      <trkpt lat="45.82854" lon="4.25207">
        <ele>584.073</ele>
        <time>2019-01-07T13:41:38Z</time>
      </trkpt>
      <trkpt lat="45.82848" lon="4.25203">
        <ele>583.239</ele>
        <time>2019-01-07T13:41:43Z</time>
      </trkpt>
      <trkpt lat="45.82842" lon="4.25201">
        <ele>582.848</ele>
        <time>2019-01-07T13:41:49Z</time>
      </trkpt>
      <trkpt lat="45.82836" lon="4.25199">
        <ele>582.618</ele>
        <time>2019-01-07T13:41:55Z</time>
      </trkpt>
      <trkpt lat="45.82828" lon="4.25196">
        <ele>582.249</ele>
        <time>2019-01-07T13:42:01Z</time>
      </trkpt>
      <trkpt lat="45.82824" lon="4.25193">
        <ele>582.094</ele>
        <time>2019-01-07T13:42:06Z</time>
      </trkpt>
      <trkpt lat="45.82819" lon="4.25191">
        <ele>581.765</ele>
        <time>2019-01-07T13:42:12Z</time>
      </trkpt>
      <trkpt lat="45.82813" lon="4.25189">
        <ele>581.319</ele>
        <time>2019-01-07T13:42:18Z</time>
      </trkpt>
      <trkpt lat="45.82804" lon="4.25185">
        <ele>581.121</ele>
        <time>2019-01-07T13:42:24Z</time>
      </trkpt>
      <trkpt lat="45.82798" lon="4.2518">
        <ele>580.798</ele>
        <time>2019-01-07T13:42:30Z</time>
      </trkpt>
      <trkpt lat="45.82791" lon="4.25176">
        <ele>580.166</ele>
        <time>2019-01-07T13:42:36Z</time>
      </trkpt>
      <trkpt lat="45.82785" lon="4.25174">
        <ele>579.276</ele>
        <time>2019-01-07T13:42:42Z</time>
      </trkpt>
      <trkpt lat="45.82778" lon="4.25169">
        <ele>578.619</ele>
        <time>2019-01-07T13:42:48Z</time>
      </trkpt>
      <trkpt lat="45.82773" lon="4.25164">
        <ele>577.998</ele>
        <time>2019-01-07T13:42:53Z</time>
      </trkpt>
      <trkpt lat="45.82769" lon="4.25159">
        <ele>577.478</ele>
        <time>2019-01-07T13:42:58Z</time>
      </trkpt>
      <trkpt lat="45.82764" lon="4.25154">
        <ele>576.61</ele>
        <time>2019-01-07T13:43:04Z</time>
      </trkpt>
      <trkpt lat="45.82759" lon="4.25151">
        <ele>575.964</ele>
        <time>2019-01-07T13:43:09Z</time>
      </trkpt>
      <trkpt lat="45.82753" lon="4.25147">
        <ele>574.956</ele>
        <time>2019-01-07T13:43:15Z</time>
      </trkpt>
      <trkpt lat="45.82748" lon="4.25139">
        <ele>574.214</ele>
        <time>2019-01-07T13:43:21Z</time>
      </trkpt>
      <trkpt lat="45.82744" lon="4.25134">
        <ele>573.878</ele>
        <time>2019-01-07T13:43:27Z</time>
      </trkpt>
      <trkpt lat="45.82743" lon="4.25132">
        <ele>573.769</ele>
        <time>2019-01-07T13:43:32Z</time>
      </trkpt>
      <trkpt lat="45.8274" lon="4.25131">
        <ele>573.513</ele>
        <time>2019-01-07T13:43:38Z</time>
      </trkpt>
      <trkpt lat="45.82739" lon="4.25131">
        <ele>574.13</ele>
        <time>2019-01-07T13:43:44Z</time>
      </trkpt>
      <trkpt lat="45.8274" lon="4.25131">
        <ele>574.602</ele>
        <time>2019-01-07T13:43:50Z</time>
      </trkpt>
      <trkpt lat="45.82741" lon="4.25131">
        <ele>574.753</ele>
        <time>2019-01-07T13:43:55Z</time>
      </trkpt>
      <trkpt lat="45.82739" lon="4.2513">
        <ele>575.112</ele>
        <time>2019-01-07T13:44:00Z</time>
      </trkpt>
      <trkpt lat="45.82738" lon="4.25128">
        <ele>575.295</ele>
        <time>2019-01-07T13:44:06Z</time>
      </trkpt>
      <trkpt lat="45.82735" lon="4.25125">
        <ele>575.622</ele>
        <time>2019-01-07T13:44:11Z</time>
      </trkpt>
      <trkpt lat="45.82731" lon="4.25122">
        <ele>575.527</ele>
        <time>2019-01-07T13:44:16Z</time>
      </trkpt>
      <trkpt lat="45.82725" lon="4.25116">
        <ele>575.327</ele>
        <time>2019-01-07T13:44:21Z</time>
      </trkpt>
      <trkpt lat="45.82721" lon="4.25112">
        <ele>575.06</ele>
        <time>2019-01-07T13:44:27Z</time>
      </trkpt>
      <trkpt lat="45.82716" lon="4.25106">
        <ele>574.895</ele>
        <time>2019-01-07T13:44:33Z</time>
      </trkpt>
      <trkpt lat="45.82711" lon="4.25102">
        <ele>574.862</ele>
        <time>2019-01-07T13:44:39Z</time>
      </trkpt>
      <trkpt lat="45.82706" lon="4.25095">
        <ele>574.549</ele>
        <time>2019-01-07T13:44:45Z</time>
      </trkpt>
      <trkpt lat="45.82701" lon="4.25089">
        <ele>573.983</ele>
        <time>2019-01-07T13:44:50Z</time>
      </trkpt>
      <trkpt lat="45.82697" lon="4.25083">
        <ele>573.442</ele>
        <time>2019-01-07T13:44:56Z</time>
      </trkpt>
      <trkpt lat="45.82691" lon="4.25078">
        <ele>572.979</ele>
        <time>2019-01-07T13:45:01Z</time>
      </trkpt>
      <trkpt lat="45.82689" lon="4.25073">
        <ele>572.145</ele>
        <time>2019-01-07T13:45:07Z</time>
      </trkpt>
      <trkpt lat="45.82684" lon="4.25065">
        <ele>571.943</ele>
        <time>2019-01-07T13:45:12Z</time>
      </trkpt>
      <trkpt lat="45.82682" lon="4.25061">
        <ele>571.909</ele>
        <time>2019-01-07T13:45:17Z</time>
      </trkpt>
      <trkpt lat="45.82675" lon="4.25054">
        <ele>571.267</ele>
        <time>2019-01-07T13:45:23Z</time>
      </trkpt>
      <trkpt lat="45.82671" lon="4.25046">
        <ele>571.121</ele>
        <time>2019-01-07T13:45:29Z</time>
      </trkpt>
      <trkpt lat="45.82669" lon="4.25041">
        <ele>571</ele>
        <time>2019-01-07T13:45:34Z</time>
      </trkpt>
      <trkpt lat="45.82662" lon="4.25034">
        <ele>570.777</ele>
        <time>2019-01-07T13:45:40Z</time>
      </trkpt>
      <trkpt lat="45.8266" lon="4.2503">
        <ele>570.503</ele>
        <time>2019-01-07T13:45:45Z</time>
      </trkpt>
      <trkpt lat="45.82656" lon="4.25023">
        <ele>570.297</ele>
        <time>2019-01-07T13:45:51Z</time>
      </trkpt>
      <trkpt lat="45.82653" lon="4.25016">
        <ele>569.796</ele>
        <time>2019-01-07T13:45:57Z</time>
      </trkpt>
      <trkpt lat="45.82648" lon="4.25009">
        <ele>569.372</ele>
        <time>2019-01-07T13:46:03Z</time>
      </trkpt>
      <trkpt lat="45.82642" lon="4.25003">
        <ele>569.079</ele>
        <time>2019-01-07T13:46:09Z</time>
      </trkpt>
      <trkpt lat="45.8264" lon="4.24997">
        <ele>568.619</ele>
        <time>2019-01-07T13:46:14Z</time>
      </trkpt>
      <trkpt lat="45.82637" lon="4.2499">
        <ele>568.412</ele>
        <time>2019-01-07T13:46:19Z</time>
      </trkpt>
      <trkpt lat="45.82633" lon="4.24983">
        <ele>568.38</ele>
        <time>2019-01-07T13:46:24Z</time>
      </trkpt>
      <trkpt lat="45.82629" lon="4.24978">
        <ele>568.389</ele>
        <time>2019-01-07T13:46:30Z</time>
      </trkpt>
      <trkpt lat="45.82626" lon="4.24972">
        <ele>568.639</ele>
        <time>2019-01-07T13:46:35Z</time>
      </trkpt>
      <trkpt lat="45.82622" lon="4.24963">
        <ele>568.588</ele>
        <time>2019-01-07T13:46:41Z</time>
      </trkpt>
      <trkpt lat="45.8262" lon="4.24958">
        <ele>568.257</ele>
        <time>2019-01-07T13:46:46Z</time>
      </trkpt>
      <trkpt lat="45.82618" lon="4.24951">
        <ele>568.508</ele>
        <time>2019-01-07T13:46:52Z</time>
      </trkpt>
      <trkpt lat="45.82613" lon="4.2494">
        <ele>568.766</ele>
        <time>2019-01-07T13:46:57Z</time>
      </trkpt>
      <trkpt lat="45.82607" lon="4.24933">
        <ele>569.153</ele>
        <time>2019-01-07T13:47:03Z</time>
      </trkpt>
      <trkpt lat="45.82602" lon="4.24928">
        <ele>569.241</ele>
        <time>2019-01-07T13:47:08Z</time>
      </trkpt>
      <trkpt lat="45.82599" lon="4.24922">
        <ele>569.13</ele>
        <time>2019-01-07T13:47:13Z</time>
      </trkpt>
      <trkpt lat="45.82595" lon="4.24916">
        <ele>569.233</ele>
        <time>2019-01-07T13:47:18Z</time>
      </trkpt>
      <trkpt lat="45.82592" lon="4.24911">
        <ele>569.09</ele>
        <time>2019-01-07T13:47:24Z</time>
      </trkpt>
      <trkpt lat="45.82585" lon="4.24904">
        <ele>569.25</ele>
        <time>2019-01-07T13:47:31Z</time>
      </trkpt>
      <trkpt lat="45.82581" lon="4.24899">
        <ele>568.78</ele>
        <time>2019-01-07T13:47:37Z</time>
      </trkpt>
      <trkpt lat="45.82578" lon="4.24894">
        <ele>568.41</ele>
        <time>2019-01-07T13:47:43Z</time>
      </trkpt>
      <trkpt lat="45.82573" lon="4.24887">
        <ele>568.281</ele>
        <time>2019-01-07T13:47:49Z</time>
      </trkpt>
      <trkpt lat="45.82567" lon="4.24882">
        <ele>568.808</ele>
        <time>2019-01-07T13:47:55Z</time>
      </trkpt>
      <trkpt lat="45.82559" lon="4.24879">
        <ele>569.28</ele>
        <time>2019-01-07T13:48:01Z</time>
      </trkpt>
      <trkpt lat="45.82553" lon="4.24877">
        <ele>569.504</ele>
        <time>2019-01-07T13:48:06Z</time>
      </trkpt>
      <trkpt lat="45.82549" lon="4.24875">
        <ele>569.447</ele>
        <time>2019-01-07T13:48:11Z</time>
      </trkpt>
      <trkpt lat="45.82544" lon="4.24872">
        <ele>569.244</ele>
        <time>2019-01-07T13:48:17Z</time>
      </trkpt>
      <trkpt lat="45.8254" lon="4.2487">
        <ele>568.68</ele>
        <time>2019-01-07T13:48:22Z</time>
      </trkpt>
      <trkpt lat="45.82534" lon="4.24863">
        <ele>567.434</ele>
        <time>2019-01-07T13:48:28Z</time>
      </trkpt>
      <trkpt lat="45.8253" lon="4.24857">
        <ele>566.583</ele>
        <time>2019-01-07T13:48:33Z</time>
      </trkpt>
      <trkpt lat="45.82522" lon="4.24853">
        <ele>566.158</ele>
        <time>2019-01-07T13:48:39Z</time>
      </trkpt>
      <trkpt lat="45.82516" lon="4.24849">
        <ele>565.455</ele>
        <time>2019-01-07T13:48:44Z</time>
      </trkpt>
      <trkpt lat="45.8251" lon="4.24845">
        <ele>564.848</ele>
        <time>2019-01-07T13:48:50Z</time>
      </trkpt>
      <trkpt lat="45.82509" lon="4.24842">
        <ele>564.04</ele>
        <time>2019-01-07T13:48:56Z</time>
      </trkpt>
      <trkpt lat="45.82503" lon="4.24833">
        <ele>563.25</ele>
        <time>2019-01-07T13:49:02Z</time>
      </trkpt>
      <trkpt lat="45.82499" lon="4.24823">
        <ele>562.745</ele>
        <time>2019-01-07T13:49:08Z</time>
      </trkpt>
      <trkpt lat="45.82494" lon="4.24815">
        <ele>562.87</ele>
        <time>2019-01-07T13:49:13Z</time>
      </trkpt>
      <trkpt lat="45.8249" lon="4.24809">
        <ele>563.239</ele>
        <time>2019-01-07T13:49:19Z</time>
      </trkpt>
      <trkpt lat="45.82486" lon="4.24802">
        <ele>563.414</ele>
        <time>2019-01-07T13:49:25Z</time>
      </trkpt>
      <trkpt lat="45.82482" lon="4.24795">
        <ele>563.233</ele>
        <time>2019-01-07T13:49:30Z</time>
      </trkpt>
      <trkpt lat="45.82478" lon="4.24788">
        <ele>563.061</ele>
        <time>2019-01-07T13:49:35Z</time>
      </trkpt>
      <trkpt lat="45.82475" lon="4.24784">
        <ele>562.329</ele>
        <time>2019-01-07T13:49:41Z</time>
      </trkpt>
      <trkpt lat="45.82472" lon="4.24779">
        <ele>561.502</ele>
        <time>2019-01-07T13:49:46Z</time>
      </trkpt>
      <trkpt lat="45.82467" lon="4.24772">
        <ele>560.564</ele>
        <time>2019-01-07T13:49:52Z</time>
      </trkpt>
      <trkpt lat="45.82463" lon="4.24763">
        <ele>559.955</ele>
        <time>2019-01-07T13:49:57Z</time>
      </trkpt>
      <trkpt lat="45.82461" lon="4.24756">
        <ele>559.206</ele>
        <time>2019-01-07T13:50:02Z</time>
      </trkpt>
      <trkpt lat="45.82457" lon="4.24746">
        <ele>558.542</ele>
        <time>2019-01-07T13:50:08Z</time>
      </trkpt>
      <trkpt lat="45.82455" lon="4.24739">
        <ele>558.285</ele>
        <time>2019-01-07T13:50:13Z</time>
      </trkpt>
      <trkpt lat="45.82452" lon="4.24732">
        <ele>557.802</ele>
        <time>2019-01-07T13:50:19Z</time>
      </trkpt>
      <trkpt lat="45.82447" lon="4.24723">
        <ele>557.56</ele>
        <time>2019-01-07T13:50:25Z</time>
      </trkpt>
      <trkpt lat="45.82443" lon="4.24717">
        <ele>557.378</ele>
        <time>2019-01-07T13:50:30Z</time>
      </trkpt>
      <trkpt lat="45.82441" lon="4.24711">
        <ele>556.87</ele>
        <time>2019-01-07T13:50:36Z</time>
      </trkpt>
      <trkpt lat="45.82441" lon="4.24703">
        <ele>556.62</ele>
        <time>2019-01-07T13:50:41Z</time>
      </trkpt>
      <trkpt lat="45.82444" lon="4.24694">
        <ele>557.083</ele>
        <time>2019-01-07T13:50:47Z</time>
      </trkpt>
      <trkpt lat="45.82448" lon="4.24691">
        <ele>557.898</ele>
        <time>2019-01-07T13:50:52Z</time>
      </trkpt>
      <trkpt lat="45.82453" lon="4.24689">
        <ele>558.772</ele>
        <time>2019-01-07T13:50:58Z</time>
      </trkpt>
      <trkpt lat="45.8246" lon="4.24681">
        <ele>559.445</ele>
        <time>2019-01-07T13:51:03Z</time>
      </trkpt>
      <trkpt lat="45.82463" lon="4.24677">
        <ele>560.152</ele>
        <time>2019-01-07T13:51:08Z</time>
      </trkpt>
      <trkpt lat="45.82467" lon="4.24671">
        <ele>560.904</ele>
        <time>2019-01-07T13:51:14Z</time>
      </trkpt>
      <trkpt lat="45.82472" lon="4.24668">
        <ele>561.45</ele>
        <time>2019-01-07T13:51:19Z</time>
      </trkpt>
      <trkpt lat="45.82476" lon="4.24664">
        <ele>561.828</ele>
        <time>2019-01-07T13:51:24Z</time>
      </trkpt>
      <trkpt lat="45.82481" lon="4.2466">
        <ele>562.261</ele>
        <time>2019-01-07T13:51:30Z</time>
      </trkpt>
      <trkpt lat="45.82486" lon="4.24655">
        <ele>562.984</ele>
        <time>2019-01-07T13:51:36Z</time>
      </trkpt>
      <trkpt lat="45.82492" lon="4.24649">
        <ele>563.507</ele>
        <time>2019-01-07T13:51:42Z</time>
      </trkpt>
      <trkpt lat="45.82498" lon="4.24642">
        <ele>563.399</ele>
        <time>2019-01-07T13:51:48Z</time>
      </trkpt>
      <trkpt lat="45.82503" lon="4.24635">
        <ele>563.35</ele>
        <time>2019-01-07T13:51:54Z</time>
      </trkpt>
      <trkpt lat="45.82507" lon="4.24627">
        <ele>563.204</ele>
        <time>2019-01-07T13:51:59Z</time>
      </trkpt>
      <trkpt lat="45.82511" lon="4.2462">
        <ele>563.076</ele>
        <time>2019-01-07T13:52:04Z</time>
      </trkpt>
      <trkpt lat="45.82514" lon="4.24613">
        <ele>562.648</ele>
        <time>2019-01-07T13:52:10Z</time>
      </trkpt>
      <trkpt lat="45.82515" lon="4.24604">
        <ele>562.156</ele>
        <time>2019-01-07T13:52:16Z</time>
      </trkpt>
      <trkpt lat="45.82515" lon="4.24599">
        <ele>561.626</ele>
        <time>2019-01-07T13:52:22Z</time>
      </trkpt>
      <trkpt lat="45.82514" lon="4.24591">
        <ele>561.182</ele>
        <time>2019-01-07T13:52:28Z</time>
      </trkpt>
      <trkpt lat="45.82514" lon="4.2458">
        <ele>560.644</ele>
        <time>2019-01-07T13:52:34Z</time>
      </trkpt>
      <trkpt lat="45.82513" lon="4.24571">
        <ele>559.968</ele>
        <time>2019-01-07T13:52:40Z</time>
      </trkpt>
      <trkpt lat="45.82511" lon="4.2456">
        <ele>559.847</ele>
        <time>2019-01-07T13:52:45Z</time>
      </trkpt>
      <trkpt lat="45.82511" lon="4.24551">
        <ele>559.732</ele>
        <time>2019-01-07T13:52:50Z</time>
      </trkpt>
      <trkpt lat="45.82508" lon="4.24542">
        <ele>559.799</ele>
        <time>2019-01-07T13:52:56Z</time>
      </trkpt>
      <trkpt lat="45.82508" lon="4.24536">
        <ele>559.849</ele>
        <time>2019-01-07T13:53:01Z</time>
      </trkpt>
      <trkpt lat="45.82506" lon="4.24527">
        <ele>559.907</ele>
        <time>2019-01-07T13:53:07Z</time>
      </trkpt>
      <trkpt lat="45.82504" lon="4.24516">
        <ele>559.676</ele>
        <time>2019-01-07T13:53:13Z</time>
      </trkpt>
      <trkpt lat="45.82504" lon="4.24507">
        <ele>559.678</ele>
        <time>2019-01-07T13:53:18Z</time>
      </trkpt>
      <trkpt lat="45.82503" lon="4.24501">
        <ele>560.127</ele>
        <time>2019-01-07T13:53:24Z</time>
      </trkpt>
      <trkpt lat="45.82502" lon="4.24492">
        <ele>560.672</ele>
        <time>2019-01-07T13:53:30Z</time>
      </trkpt>
      <trkpt lat="45.82502" lon="4.24479">
        <ele>561.039</ele>
        <time>2019-01-07T13:53:36Z</time>
      </trkpt>
      <trkpt lat="45.82503" lon="4.24472">
        <ele>561.132</ele>
        <time>2019-01-07T13:53:41Z</time>
      </trkpt>
      <trkpt lat="45.82501" lon="4.24463">
        <ele>561.409</ele>
        <time>2019-01-07T13:53:47Z</time>
      </trkpt>
      <trkpt lat="45.82501" lon="4.24455">
        <ele>561.463</ele>
        <time>2019-01-07T13:53:53Z</time>
      </trkpt>
      <trkpt lat="45.82503" lon="4.24443">
        <ele>561.929</ele>
        <time>2019-01-07T13:53:58Z</time>
      </trkpt>
      <trkpt lat="45.82503" lon="4.24433">
        <ele>562.16</ele>
        <time>2019-01-07T13:54:04Z</time>
      </trkpt>
      <trkpt lat="45.82505" lon="4.24422">
        <ele>562.518</ele>
        <time>2019-01-07T13:54:09Z</time>
      </trkpt>
      <trkpt lat="45.82505" lon="4.24415">
        <ele>563.168</ele>
        <time>2019-01-07T13:54:15Z</time>
      </trkpt>
      <trkpt lat="45.82507" lon="4.24407">
        <ele>563.28</ele>
        <time>2019-01-07T13:54:20Z</time>
      </trkpt>
      <trkpt lat="45.82507" lon="4.244">
        <ele>563.349</ele>
        <time>2019-01-07T13:54:25Z</time>
      </trkpt>
      <trkpt lat="45.82508" lon="4.2439">
        <ele>563.605</ele>
        <time>2019-01-07T13:54:31Z</time>
      </trkpt>
      <trkpt lat="45.8251" lon="4.2438">
        <ele>563.8</ele>
        <time>2019-01-07T13:54:37Z</time>
      </trkpt>
      <trkpt lat="45.82511" lon="4.24373">
        <ele>563.73</ele>
        <time>2019-01-07T13:54:42Z</time>
      </trkpt>
      <trkpt lat="45.82513" lon="4.24363">
        <ele>563.804</ele>
        <time>2019-01-07T13:54:48Z</time>
      </trkpt>
      <trkpt lat="45.82513" lon="4.24355">
        <ele>564.304</ele>
        <time>2019-01-07T13:54:54Z</time>
      </trkpt>
      <trkpt lat="45.82513" lon="4.24346">
        <ele>564.508</ele>
        <time>2019-01-07T13:55:00Z</time>
      </trkpt>
      <trkpt lat="45.82513" lon="4.24339">
        <ele>564.637</ele>
        <time>2019-01-07T13:55:05Z</time>
      </trkpt>
      <trkpt lat="45.82514" lon="4.24332">
        <ele>564.637</ele>
        <time>2019-01-07T13:55:11Z</time>
      </trkpt>
      <trkpt lat="45.82514" lon="4.2432">
        <ele>564.668</ele>
        <time>2019-01-07T13:55:17Z</time>
      </trkpt>
      <trkpt lat="45.82514" lon="4.24311">
        <ele>564.976</ele>
        <time>2019-01-07T13:55:23Z</time>
      </trkpt>
      <trkpt lat="45.82515" lon="4.24303">
        <ele>565.164</ele>
        <time>2019-01-07T13:55:29Z</time>
      </trkpt>
      <trkpt lat="45.82514" lon="4.24295">
        <ele>564.895</ele>
        <time>2019-01-07T13:55:35Z</time>
      </trkpt>
      <trkpt lat="45.82514" lon="4.24285">
        <ele>564.805</ele>
        <time>2019-01-07T13:55:40Z</time>
      </trkpt>
      <trkpt lat="45.82515" lon="4.24276">
        <ele>564.704</ele>
        <time>2019-01-07T13:55:46Z</time>
      </trkpt>
      <trkpt lat="45.82514" lon="4.24272">
        <ele>564.78</ele>
        <time>2019-01-07T13:55:51Z</time>
      </trkpt>
      <trkpt lat="45.82515" lon="4.24264">
        <ele>564.68</ele>
        <time>2019-01-07T13:55:56Z</time>
      </trkpt>
      <trkpt lat="45.82515" lon="4.24255">
        <ele>564.263</ele>
        <time>2019-01-07T13:56:02Z</time>
      </trkpt>
      <trkpt lat="45.82516" lon="4.24243">
        <ele>563.998</ele>
        <time>2019-01-07T13:56:08Z</time>
      </trkpt>
      <trkpt lat="45.82517" lon="4.24235">
        <ele>563.427</ele>
        <time>2019-01-07T13:56:14Z</time>
      </trkpt>
      <trkpt lat="45.82517" lon="4.24227">
        <ele>562.979</ele>
        <time>2019-01-07T13:56:19Z</time>
      </trkpt>
      <trkpt lat="45.82519" lon="4.24217">
        <ele>562.332</ele>
        <time>2019-01-07T13:56:25Z</time>
      </trkpt>
      <trkpt lat="45.82518" lon="4.24205">
        <ele>561.833</ele>
        <time>2019-01-07T13:56:31Z</time>
      </trkpt>
      <trkpt lat="45.82518" lon="4.24196">
        <ele>561.399</ele>
        <time>2019-01-07T13:56:37Z</time>
      </trkpt>
      <trkpt lat="45.82519" lon="4.24188">
        <ele>561.16</ele>
        <time>2019-01-07T13:56:42Z</time>
      </trkpt>
      <trkpt lat="45.8252" lon="4.24179">
        <ele>560.845</ele>
        <time>2019-01-07T13:56:47Z</time>
      </trkpt>
      <trkpt lat="45.82519" lon="4.24171">
        <ele>560.584</ele>
        <time>2019-01-07T13:56:53Z</time>
      </trkpt>
      <trkpt lat="45.82521" lon="4.24159">
        <ele>560.087</ele>
        <time>2019-01-07T13:56:59Z</time>
      </trkpt>
      <trkpt lat="45.82522" lon="4.24151">
        <ele>559.54</ele>
        <time>2019-01-07T13:57:05Z</time>
      </trkpt>
      <trkpt lat="45.82523" lon="4.24143">
        <ele>559.31</ele>
        <time>2019-01-07T13:57:11Z</time>
      </trkpt>
      <trkpt lat="45.82524" lon="4.2413">
        <ele>558.787</ele>
        <time>2019-01-07T13:57:17Z</time>
      </trkpt>
      <trkpt lat="45.82524" lon="4.24122">
        <ele>558.657</ele>
        <time>2019-01-07T13:57:23Z</time>
      </trkpt>
      <trkpt lat="45.82525" lon="4.24112">
        <ele>558.834</ele>
        <time>2019-01-07T13:57:29Z</time>
      </trkpt>
      <trkpt lat="45.82526" lon="4.24102">
        <ele>558.531</ele>
        <time>2019-01-07T13:57:34Z</time>
      </trkpt>
      <trkpt lat="45.82529" lon="4.24094">
        <ele>558.463</ele>
        <time>2019-01-07T13:57:40Z</time>
      </trkpt>
      <trkpt lat="45.8253" lon="4.24084">
        <ele>558.306</ele>
        <time>2019-01-07T13:57:45Z</time>
      </trkpt>
      <trkpt lat="45.82532" lon="4.24077">
        <ele>557.874</ele>
        <time>2019-01-07T13:57:51Z</time>
      </trkpt>
      <trkpt lat="45.82534" lon="4.24069">
        <ele>557.633</ele>
        <time>2019-01-07T13:57:56Z</time>
      </trkpt>
      <trkpt lat="45.82537" lon="4.24063">
        <ele>557.697</ele>
        <time>2019-01-07T13:58:01Z</time>
      </trkpt>
      <trkpt lat="45.82537" lon="4.24055">
        <ele>557.561</ele>
        <time>2019-01-07T13:58:06Z</time>
      </trkpt>
      <trkpt lat="45.8254" lon="4.24044">
        <ele>557.77</ele>
        <time>2019-01-07T13:58:12Z</time>
      </trkpt>
      <trkpt lat="45.8254" lon="4.24034">
        <ele>558.257</ele>
        <time>2019-01-07T13:58:18Z</time>
      </trkpt>
      <trkpt lat="45.82541" lon="4.2403">
        <ele>558.221</ele>
        <time>2019-01-07T13:58:23Z</time>
      </trkpt>
      <trkpt lat="45.82542" lon="4.24023">
        <ele>558.019</ele>
        <time>2019-01-07T13:58:28Z</time>
      </trkpt>
      <trkpt lat="45.82543" lon="4.24014">
        <ele>557.784</ele>
        <time>2019-01-07T13:58:33Z</time>
      </trkpt>
      <trkpt lat="45.82545" lon="4.24006">
        <ele>557.383</ele>
        <time>2019-01-07T13:58:39Z</time>
      </trkpt>
      <trkpt lat="45.82547" lon="4.23997">
        <ele>556.942</ele>
        <time>2019-01-07T13:58:44Z</time>
      </trkpt>
      <trkpt lat="45.82548" lon="4.23987">
        <ele>556.396</ele>
        <time>2019-01-07T13:58:50Z</time>
      </trkpt>
      <trkpt lat="45.8255" lon="4.23978">
        <ele>556.029</ele>
        <time>2019-01-07T13:58:56Z</time>
      </trkpt>
      <trkpt lat="45.82551" lon="4.2397">
        <ele>555.974</ele>
        <time>2019-01-07T13:59:02Z</time>
      </trkpt>
      <trkpt lat="45.82553" lon="4.23962">
        <ele>555.738</ele>
        <time>2019-01-07T13:59:08Z</time>
      </trkpt>
      <trkpt lat="45.82555" lon="4.23952">
        <ele>555.331</ele>
        <time>2019-01-07T13:59:14Z</time>
      </trkpt>
      <trkpt lat="45.82556" lon="4.23942">
        <ele>555.14</ele>
        <time>2019-01-07T13:59:20Z</time>
      </trkpt>
      <trkpt lat="45.82558" lon="4.23932">
        <ele>554.755</ele>
        <time>2019-01-07T13:59:26Z</time>
      </trkpt>
      <trkpt lat="45.82559" lon="4.23922">
        <ele>554.488</ele>
        <time>2019-01-07T13:59:32Z</time>
      </trkpt>
      <trkpt lat="45.8256" lon="4.23912">
        <ele>554.81</ele>
        <time>2019-01-07T13:59:38Z</time>
      </trkpt>
      <trkpt lat="45.82561" lon="4.23908">
        <ele>555.023</ele>
        <time>2019-01-07T13:59:43Z</time>
      </trkpt>
      <trkpt lat="45.82561" lon="4.23897">
        <ele>555.265</ele>
        <time>2019-01-07T13:59:49Z</time>
      </trkpt>
      <trkpt lat="45.82562" lon="4.23887">
        <ele>555.283</ele>
        <time>2019-01-07T13:59:55Z</time>
      </trkpt>
      <trkpt lat="45.82563" lon="4.23877">
        <ele>555.191</ele>
        <time>2019-01-07T14:00:01Z</time>
      </trkpt>
      <trkpt lat="45.82564" lon="4.2387">
        <ele>555.719</ele>
        <time>2019-01-07T14:00:06Z</time>
      </trkpt>
      <trkpt lat="45.82566" lon="4.23859">
        <ele>556.182</ele>
        <time>2019-01-07T14:00:11Z</time>
      </trkpt>
      <trkpt lat="45.82568" lon="4.23851">
        <ele>556.631</ele>
        <time>2019-01-07T14:00:17Z</time>
      </trkpt>
      <trkpt lat="45.8257" lon="4.23843">
        <ele>556.98</ele>
        <time>2019-01-07T14:00:22Z</time>
      </trkpt>
      <trkpt lat="45.82572" lon="4.23833">
        <ele>557.129</ele>
        <time>2019-01-07T14:00:28Z</time>
      </trkpt>
      <trkpt lat="45.82573" lon="4.23824">
        <ele>557.508</ele>
        <time>2019-01-07T14:00:34Z</time>
      </trkpt>
      <trkpt lat="45.82574" lon="4.23818">
        <ele>557.658</ele>
        <time>2019-01-07T14:00:40Z</time>
      </trkpt>
      <trkpt lat="45.82575" lon="4.2381">
        <ele>557.636</ele>
        <time>2019-01-07T14:00:45Z</time>
      </trkpt>
      <trkpt lat="45.82575" lon="4.238">
        <ele>557.331</ele>
        <time>2019-01-07T14:00:51Z</time>
      </trkpt>
      <trkpt lat="45.82577" lon="4.23791">
        <ele>557.369</ele>
        <time>2019-01-07T14:00:56Z</time>
      </trkpt>
      <trkpt lat="45.82578" lon="4.23783">
        <ele>557.465</ele>
        <time>2019-01-07T14:01:02Z</time>
      </trkpt>
      <trkpt lat="45.82578" lon="4.23775">
        <ele>557.318</ele>
        <time>2019-01-07T14:01:07Z</time>
      </trkpt>
      <trkpt lat="45.82577" lon="4.23767">
        <ele>557.177</ele>
        <time>2019-01-07T14:01:13Z</time>
      </trkpt>
      <trkpt lat="45.82578" lon="4.23757">
        <ele>557.001</ele>
        <time>2019-01-07T14:01:19Z</time>
      </trkpt>
      <trkpt lat="45.8258" lon="4.23748">
        <ele>556.993</ele>
        <time>2019-01-07T14:01:24Z</time>
      </trkpt>
      <trkpt lat="45.82581" lon="4.23737">
        <ele>557.008</ele>
        <time>2019-01-07T14:01:30Z</time>
      </trkpt>
      <trkpt lat="45.82583" lon="4.23726">
        <ele>556.812</ele>
        <time>2019-01-07T14:01:36Z</time>
      </trkpt>
      <trkpt lat="45.82586" lon="4.23716">
        <ele>556.429</ele>
        <time>2019-01-07T14:01:41Z</time>
      </trkpt>
      <trkpt lat="45.82589" lon="4.2371">
        <ele>556.088</ele>
        <time>2019-01-07T14:01:46Z</time>
      </trkpt>
      <trkpt lat="45.82593" lon="4.237">
        <ele>556.109</ele>
        <time>2019-01-07T14:01:52Z</time>
      </trkpt>
      <trkpt lat="45.82594" lon="4.23691">
        <ele>556.082</ele>
        <time>2019-01-07T14:01:57Z</time>
      </trkpt>
      <trkpt lat="45.82597" lon="4.23685">
        <ele>555.858</ele>
        <time>2019-01-07T14:02:03Z</time>
      </trkpt>
      <trkpt lat="45.82599" lon="4.23678">
        <ele>555.62</ele>
        <time>2019-01-07T14:02:09Z</time>
      </trkpt>
      <trkpt lat="45.82601" lon="4.23671">
        <ele>555.017</ele>
        <time>2019-01-07T14:02:15Z</time>
      </trkpt>
      <trkpt lat="45.82603" lon="4.23669">
        <ele>554.904</ele>
        <time>2019-01-07T14:02:21Z</time>
      </trkpt>
      <trkpt lat="45.82602" lon="4.23669">
        <ele>554.433</ele>
        <time>2019-01-07T14:02:27Z</time>
      </trkpt>
      <trkpt lat="45.82601" lon="4.23668">
        <ele>554.293</ele>
        <time>2019-01-07T14:02:32Z</time>
      </trkpt>
      <trkpt lat="45.82601" lon="4.23666">
        <ele>554.326</ele>
        <time>2019-01-07T14:02:37Z</time>
      </trkpt>
      <trkpt lat="45.82601" lon="4.23664">
        <ele>554.447</ele>
        <time>2019-01-07T14:02:42Z</time>
      </trkpt>
      <trkpt lat="45.82602" lon="4.23664">
        <ele>554.876</ele>
        <time>2019-01-07T14:02:48Z</time>
      </trkpt>
      <trkpt lat="45.82603" lon="4.23663">
        <ele>555.2</ele>
        <time>2019-01-07T14:02:53Z</time>
      </trkpt>
      <trkpt lat="45.82604" lon="4.23658">
        <ele>555.162</ele>
        <time>2019-01-07T14:02:58Z</time>
      </trkpt>
      <trkpt lat="45.82607" lon="4.23649">
        <ele>554.733</ele>
        <time>2019-01-07T14:03:04Z</time>
      </trkpt>
      <trkpt lat="45.82609" lon="4.23638">
        <ele>554.241</ele>
        <time>2019-01-07T14:03:09Z</time>
      </trkpt>
      <trkpt lat="45.8261" lon="4.2363">
        <ele>553.303</ele>
        <time>2019-01-07T14:03:15Z</time>
      </trkpt>
      <trkpt lat="45.82611" lon="4.23618">
        <ele>552.541</ele>
        <time>2019-01-07T14:03:21Z</time>
      </trkpt>
      <trkpt lat="45.8261" lon="4.23606">
        <ele>552.034</ele>
        <time>2019-01-07T14:03:27Z</time>
      </trkpt>
      <trkpt lat="45.82608" lon="4.23597">
        <ele>551.758</ele>
        <time>2019-01-07T14:03:33Z</time>
      </trkpt>
      <trkpt lat="45.82608" lon="4.23587">
        <ele>551.751</ele>
        <time>2019-01-07T14:03:38Z</time>
      </trkpt>
      <trkpt lat="45.82606" lon="4.23578">
        <ele>551.707</ele>
        <time>2019-01-07T14:03:44Z</time>
      </trkpt>
      <trkpt lat="45.82604" lon="4.23568">
        <ele>551.807</ele>
        <time>2019-01-07T14:03:50Z</time>
      </trkpt>
      <trkpt lat="45.82605" lon="4.23561">
        <ele>551.862</ele>
        <time>2019-01-07T14:03:55Z</time>
      </trkpt>
      <trkpt lat="45.82606" lon="4.23552">
        <ele>551.723</ele>
        <time>2019-01-07T14:04:01Z</time>
      </trkpt>
      <trkpt lat="45.82607" lon="4.23542">
        <ele>551.67</ele>
        <time>2019-01-07T14:04:07Z</time>
      </trkpt>
      <trkpt lat="45.82608" lon="4.23531">
        <ele>551.741</ele>
        <time>2019-01-07T14:04:12Z</time>
      </trkpt>
      <trkpt lat="45.82608" lon="4.23523">
        <ele>551.795</ele>
        <time>2019-01-07T14:04:18Z</time>
      </trkpt>
      <trkpt lat="45.8261" lon="4.2351">
        <ele>551.778</ele>
        <time>2019-01-07T14:04:24Z</time>
      </trkpt>
      <trkpt lat="45.82612" lon="4.23499">
        <ele>552.065</ele>
        <time>2019-01-07T14:04:30Z</time>
      </trkpt>
      <trkpt lat="45.82612" lon="4.23492">
        <ele>552.363</ele>
        <time>2019-01-07T14:04:35Z</time>
      </trkpt>
      <trkpt lat="45.82612" lon="4.23486">
        <ele>552.793</ele>
        <time>2019-01-07T14:04:41Z</time>
      </trkpt>
      <trkpt lat="45.82613" lon="4.23474">
        <ele>552.434</ele>
        <time>2019-01-07T14:04:47Z</time>
      </trkpt>
      <trkpt lat="45.82612" lon="4.23466">
        <ele>552.144</ele>
        <time>2019-01-07T14:04:53Z</time>
      </trkpt>
      <trkpt lat="45.82611" lon="4.23458">
        <ele>551.941</ele>
        <time>2019-01-07T14:04:58Z</time>
      </trkpt>
      <trkpt lat="45.82612" lon="4.23447">
        <ele>552.275</ele>
        <time>2019-01-07T14:05:04Z</time>
      </trkpt>
      <trkpt lat="45.82612" lon="4.2344">
        <ele>552.737</ele>
        <time>2019-01-07T14:05:09Z</time>
      </trkpt>
      <trkpt lat="45.82612" lon="4.23432">
        <ele>552.85</ele>
        <time>2019-01-07T14:05:15Z</time>
      </trkpt>
      <trkpt lat="45.82612" lon="4.23422">
        <ele>553.073</ele>
        <time>2019-01-07T14:05:21Z</time>
      </trkpt>
      <trkpt lat="45.82612" lon="4.23412">
        <ele>553.398</ele>
        <time>2019-01-07T14:05:27Z</time>
      </trkpt>
      <trkpt lat="45.82611" lon="4.23408">
        <ele>553.408</ele>
        <time>2019-01-07T14:05:32Z</time>
      </trkpt>
      <trkpt lat="45.82606" lon="4.23398">
        <ele>552.976</ele>
        <time>2019-01-07T14:05:38Z</time>
      </trkpt>
      <trkpt lat="45.82604" lon="4.23391">
        <ele>552.769</ele>
        <time>2019-01-07T14:05:44Z</time>
      </trkpt>
      <trkpt lat="45.82602" lon="4.2338">
        <ele>552.408</ele>
        <time>2019-01-07T14:05:50Z</time>
      </trkpt>
      <trkpt lat="45.826" lon="4.23374">
        <ele>551.937</ele>
        <time>2019-01-07T14:05:55Z</time>
      </trkpt>
      <trkpt lat="45.82599" lon="4.23369">
        <ele>551.249</ele>
        <time>2019-01-07T14:06:00Z</time>
      </trkpt>
      <trkpt lat="45.82597" lon="4.23357">
        <ele>551.41</ele>
        <time>2019-01-07T14:06:06Z</time>
      </trkpt>
      <trkpt lat="45.82597" lon="4.2335">
        <ele>551.501</ele>
        <time>2019-01-07T14:06:11Z</time>
      </trkpt>
      <trkpt lat="45.82595" lon="4.23342">
        <ele>551.526</ele>
        <time>2019-01-07T14:06:16Z</time>
      </trkpt>
      <trkpt lat="45.82593" lon="4.23333">
        <ele>551.852</ele>
        <time>2019-01-07T14:06:22Z</time>
      </trkpt>
      <trkpt lat="45.82592" lon="4.2332">
        <ele>552.098</ele>
        <time>2019-01-07T14:06:27Z</time>
      </trkpt>
      <trkpt lat="45.82593" lon="4.2331">
        <ele>552.5</ele>
        <time>2019-01-07T14:06:33Z</time>
      </trkpt>
      <trkpt lat="45.8259" lon="4.23303">
        <ele>552.469</ele>
        <time>2019-01-07T14:06:38Z</time>
      </trkpt>
      <trkpt lat="45.8259" lon="4.23291">
        <ele>552.617</ele>
        <time>2019-01-07T14:06:44Z</time>
      </trkpt>
      <trkpt lat="45.82592" lon="4.23281">
        <ele>553.178</ele>
        <time>2019-01-07T14:06:50Z</time>
      </trkpt>
      <trkpt lat="45.82589" lon="4.23273">
        <ele>552.94</ele>
        <time>2019-01-07T14:06:56Z</time>
      </trkpt>
      <trkpt lat="45.82588" lon="4.23266">
        <ele>552.646</ele>
        <time>2019-01-07T14:07:02Z</time>
      </trkpt>
      <trkpt lat="45.82587" lon="4.23258">
        <ele>552.098</ele>
        <time>2019-01-07T14:07:08Z</time>
      </trkpt>
      <trkpt lat="45.82587" lon="4.23253">
        <ele>551.744</ele>
        <time>2019-01-07T14:07:13Z</time>
      </trkpt>
      <trkpt lat="45.82587" lon="4.23253">
        <ele>551.475</ele>
        <time>2019-01-07T14:07:19Z</time>
      </trkpt>
      <trkpt lat="45.82589" lon="4.23253">
        <ele>551.332</ele>
        <time>2019-01-07T14:07:25Z</time>
      </trkpt>
      <trkpt lat="45.82589" lon="4.23252">
        <ele>551.534</ele>
        <time>2019-01-07T14:07:30Z</time>
      </trkpt>
      <trkpt lat="45.8259" lon="4.23252">
        <ele>551.588</ele>
        <time>2019-01-07T14:07:36Z</time>
      </trkpt>
      <trkpt lat="45.82591" lon="4.23253">
        <ele>551.126</ele>
        <time>2019-01-07T14:07:41Z</time>
      </trkpt>
      <trkpt lat="45.82591" lon="4.23255">
        <ele>551.014</ele>
        <time>2019-01-07T14:07:47Z</time>
      </trkpt>
      <trkpt lat="45.82591" lon="4.23255">
        <ele>550.569</ele>
        <time>2019-01-07T14:07:53Z</time>
      </trkpt>
      <trkpt lat="45.82588" lon="4.23255">
        <ele>550.217</ele>
        <time>2019-01-07T14:07:58Z</time>
      </trkpt>
      <trkpt lat="45.82587" lon="4.23253">
        <ele>549.993</ele>
        <time>2019-01-07T14:08:04Z</time>
      </trkpt>
      <trkpt lat="45.82587" lon="4.23254">
        <ele>550.059</ele>
        <time>2019-01-07T14:08:09Z</time>
      </trkpt>
      <trkpt lat="45.82586" lon="4.23256">
        <ele>550.296</ele>
        <time>2019-01-07T14:08:15Z</time>
      </trkpt>
      <trkpt lat="45.82585" lon="4.23257">
        <ele>551.386</ele>
        <time>2019-01-07T14:08:20Z</time>
      </trkpt>
      <trkpt lat="45.82585" lon="4.23256">
        <ele>553.549</ele>
        <time>2019-01-07T14:08:26Z</time>
      </trkpt>
      <trkpt lat="45.82587" lon="4.23254">
        <ele>553.525</ele>
        <time>2019-01-07T14:08:32Z</time>
      </trkpt>
      <trkpt lat="45.82585" lon="4.23249">
        <ele>553.194</ele>
        <time>2019-01-07T14:08:37Z</time>
      </trkpt>
      <trkpt lat="45.82581" lon="4.23241">
        <ele>553.286</ele>
        <time>2019-01-07T14:08:42Z</time>
      </trkpt>
      <trkpt lat="45.82577" lon="4.2323">
        <ele>553.199</ele>
        <time>2019-01-07T14:08:48Z</time>
      </trkpt>
      <trkpt lat="45.82572" lon="4.23222">
        <ele>553.071</ele>
        <time>2019-01-07T14:08:54Z</time>
      </trkpt>
      <trkpt lat="45.82568" lon="4.23214">
        <ele>553.088</ele>
        <time>2019-01-07T14:08:59Z</time>
      </trkpt>
      <trkpt lat="45.82563" lon="4.23203">
        <ele>552.792</ele>
        <time>2019-01-07T14:09:05Z</time>
      </trkpt>
      <trkpt lat="45.8256" lon="4.23198">
        <ele>552.502</ele>
        <time>2019-01-07T14:09:11Z</time>
      </trkpt>
      <trkpt lat="45.82555" lon="4.23191">
        <ele>551.943</ele>
        <time>2019-01-07T14:09:17Z</time>
      </trkpt>
      <trkpt lat="45.82552" lon="4.23186">
        <ele>551.379</ele>
        <time>2019-01-07T14:09:22Z</time>
      </trkpt>
      <trkpt lat="45.82548" lon="4.23182">
        <ele>550.755</ele>
        <time>2019-01-07T14:09:28Z</time>
      </trkpt>
      <trkpt lat="45.82541" lon="4.23177">
        <ele>549.922</ele>
        <time>2019-01-07T14:09:34Z</time>
      </trkpt>
      <trkpt lat="45.82535" lon="4.23169">
        <ele>549.16</ele>
        <time>2019-01-07T14:09:40Z</time>
      </trkpt>
      <trkpt lat="45.82529" lon="4.23162">
        <ele>548.539</ele>
        <time>2019-01-07T14:09:46Z</time>
      </trkpt>
      <trkpt lat="45.82524" lon="4.23157">
        <ele>547.931</ele>
        <time>2019-01-07T14:09:52Z</time>
      </trkpt>
      <trkpt lat="45.82523" lon="4.23154">
        <ele>546.666</ele>
        <time>2019-01-07T14:09:58Z</time>
      </trkpt>
      <trkpt lat="45.82515" lon="4.23149">
        <ele>545.871</ele>
        <time>2019-01-07T14:10:04Z</time>
      </trkpt>
      <trkpt lat="45.82508" lon="4.23138">
        <ele>545.084</ele>
        <time>2019-01-07T14:10:10Z</time>
      </trkpt>
      <trkpt lat="45.82503" lon="4.2313">
        <ele>544.417</ele>
        <time>2019-01-07T14:10:16Z</time>
      </trkpt>
      <trkpt lat="45.825" lon="4.23124">
        <ele>543.892</ele>
        <time>2019-01-07T14:10:21Z</time>
      </trkpt>
      <trkpt lat="45.82495" lon="4.23115">
        <ele>543.55</ele>
        <time>2019-01-07T14:10:27Z</time>
      </trkpt>
      <trkpt lat="45.82492" lon="4.23108">
        <ele>543.329</ele>
        <time>2019-01-07T14:10:32Z</time>
      </trkpt>
      <trkpt lat="45.82487" lon="4.23098">
        <ele>542.659</ele>
        <time>2019-01-07T14:10:38Z</time>
      </trkpt>
      <trkpt lat="45.82484" lon="4.23094">
        <ele>542.022</ele>
        <time>2019-01-07T14:10:43Z</time>
      </trkpt>
      <trkpt lat="45.82479" lon="4.23085">
        <ele>541.222</ele>
        <time>2019-01-07T14:10:49Z</time>
      </trkpt>
      <trkpt lat="45.82476" lon="4.23076">
        <ele>540.816</ele>
        <time>2019-01-07T14:10:54Z</time>
      </trkpt>
      <trkpt lat="45.82472" lon="4.23064">
        <ele>540.557</ele>
        <time>2019-01-07T14:11:00Z</time>
      </trkpt>
      <trkpt lat="45.82468" lon="4.23053">
        <ele>540.388</ele>
        <time>2019-01-07T14:11:05Z</time>
      </trkpt>
      <trkpt lat="45.82466" lon="4.23042">
        <ele>539.503</ele>
        <time>2019-01-07T14:11:11Z</time>
      </trkpt>
      <trkpt lat="45.82463" lon="4.23032">
        <ele>538.83</ele>
        <time>2019-01-07T14:11:16Z</time>
      </trkpt>
      <trkpt lat="45.8246" lon="4.23022">
        <ele>538.767</ele>
        <time>2019-01-07T14:11:22Z</time>
      </trkpt>
      <trkpt lat="45.82458" lon="4.23013">
        <ele>538.983</ele>
        <time>2019-01-07T14:11:27Z</time>
      </trkpt>
      <trkpt lat="45.82456" lon="4.23002">
        <ele>538.813</ele>
        <time>2019-01-07T14:11:33Z</time>
      </trkpt>
      <trkpt lat="45.82453" lon="4.22989">
        <ele>538.651</ele>
        <time>2019-01-07T14:11:39Z</time>
      </trkpt>
      <trkpt lat="45.82451" lon="4.2298">
        <ele>538.67</ele>
        <time>2019-01-07T14:11:45Z</time>
      </trkpt>
      <trkpt lat="45.82449" lon="4.2297">
        <ele>538.74</ele>
        <time>2019-01-07T14:11:50Z</time>
      </trkpt>
      <trkpt lat="45.82448" lon="4.22963">
        <ele>538.702</ele>
        <time>2019-01-07T14:11:56Z</time>
      </trkpt>
      <trkpt lat="45.82446" lon="4.22954">
        <ele>538.626</ele>
        <time>2019-01-07T14:12:01Z</time>
      </trkpt>
      <trkpt lat="45.82446" lon="4.22943">
        <ele>538.723</ele>
        <time>2019-01-07T14:12:07Z</time>
      </trkpt>
      <trkpt lat="45.82445" lon="4.22934">
        <ele>538.356</ele>
        <time>2019-01-07T14:12:12Z</time>
      </trkpt>
      <trkpt lat="45.82445" lon="4.22923">
        <ele>538.263</ele>
        <time>2019-01-07T14:12:18Z</time>
      </trkpt>
      <trkpt lat="45.82442" lon="4.22915">
        <ele>538.33</ele>
        <time>2019-01-07T14:12:23Z</time>
      </trkpt>
      <trkpt lat="45.82437" lon="4.22906">
        <ele>538.149</ele>
        <time>2019-01-07T14:12:29Z</time>
      </trkpt>
      <trkpt lat="45.82432" lon="4.22898">
        <ele>538.196</ele>
        <time>2019-01-07T14:12:34Z</time>
      </trkpt>
      <trkpt lat="45.82429" lon="4.2289">
        <ele>538.274</ele>
        <time>2019-01-07T14:12:39Z</time>
      </trkpt>
      <trkpt lat="45.82426" lon="4.22884">
        <ele>538.138</ele>
        <time>2019-01-07T14:12:45Z</time>
      </trkpt>
      <trkpt lat="45.82423" lon="4.22881">
        <ele>537.986</ele>
        <time>2019-01-07T14:12:50Z</time>
      </trkpt>
      <trkpt lat="45.8242" lon="4.22877">
        <ele>537.547</ele>
        <time>2019-01-07T14:12:56Z</time>
      </trkpt>
      <trkpt lat="45.82418" lon="4.22874">
        <ele>537.123</ele>
        <time>2019-01-07T14:13:01Z</time>
      </trkpt>
      <trkpt lat="45.82417" lon="4.2287">
        <ele>536.639</ele>
        <time>2019-01-07T14:13:07Z</time>
      </trkpt>
      <trkpt lat="45.82416" lon="4.2287">
        <ele>536.484</ele>
        <time>2019-01-07T14:13:13Z</time>
      </trkpt>
      <trkpt lat="45.82415" lon="4.22872">
        <ele>536.633</ele>
        <time>2019-01-07T14:13:19Z</time>
      </trkpt>
      <trkpt lat="45.82414" lon="4.22869">
        <ele>536.443</ele>
        <time>2019-01-07T14:13:24Z</time>
      </trkpt>
      <trkpt lat="45.82413" lon="4.22865">
        <ele>535.965</ele>
        <time>2019-01-07T14:13:29Z</time>
      </trkpt>
      <trkpt lat="45.8241" lon="4.22861">
        <ele>535.507</ele>
        <time>2019-01-07T14:13:34Z</time>
      </trkpt>
      <trkpt lat="45.82407" lon="4.22856">
        <ele>535.269</ele>
        <time>2019-01-07T14:13:40Z</time>
      </trkpt>
      <trkpt lat="45.82404" lon="4.22848">
        <ele>534.818</ele>
        <time>2019-01-07T14:13:45Z</time>
      </trkpt>
      <trkpt lat="45.82402" lon="4.22841">
        <ele>534.316</ele>
        <time>2019-01-07T14:13:51Z</time>
      </trkpt>
      <trkpt lat="45.824" lon="4.22834">
        <ele>533.779</ele>
        <time>2019-01-07T14:13:56Z</time>
      </trkpt>
      <trkpt lat="45.82398" lon="4.22828">
        <ele>533.295</ele>
        <time>2019-01-07T14:14:02Z</time>
      </trkpt>
      <trkpt lat="45.82395" lon="4.22821">
        <ele>532.591</ele>
        <time>2019-01-07T14:14:07Z</time>
      </trkpt>
      <trkpt lat="45.82393" lon="4.22812">
        <ele>532.004</ele>
        <time>2019-01-07T14:14:13Z</time>
      </trkpt>
      <trkpt lat="45.82389" lon="4.22805">
        <ele>531.178</ele>
        <time>2019-01-07T14:14:19Z</time>
      </trkpt>
      <trkpt lat="45.82387" lon="4.22797">
        <ele>530.434</ele>
        <time>2019-01-07T14:14:25Z</time>
      </trkpt>
      <trkpt lat="45.82383" lon="4.22791">
        <ele>529.902</ele>
        <time>2019-01-07T14:14:31Z</time>
      </trkpt>
      <trkpt lat="45.82379" lon="4.22785">
        <ele>529.398</ele>
        <time>2019-01-07T14:14:37Z</time>
      </trkpt>
      <trkpt lat="45.82374" lon="4.22775">
        <ele>528.773</ele>
        <time>2019-01-07T14:14:43Z</time>
      </trkpt>
      <trkpt lat="45.82369" lon="4.2277">
        <ele>527.879</ele>
        <time>2019-01-07T14:14:49Z</time>
      </trkpt>
      <trkpt lat="45.82366" lon="4.22763">
        <ele>527.101</ele>
        <time>2019-01-07T14:14:55Z</time>
      </trkpt>
      <trkpt lat="45.82363" lon="4.22758">
        <ele>526.475</ele>
        <time>2019-01-07T14:15:00Z</time>
      </trkpt>
      <trkpt lat="45.82358" lon="4.22752">
        <ele>525.875</ele>
        <time>2019-01-07T14:15:06Z</time>
      </trkpt>
      <trkpt lat="45.82354" lon="4.22744">
        <ele>524.797</ele>
        <time>2019-01-07T14:15:12Z</time>
      </trkpt>
      <trkpt lat="45.8235" lon="4.22736">
        <ele>524.006</ele>
        <time>2019-01-07T14:15:18Z</time>
      </trkpt>
      <trkpt lat="45.82344" lon="4.2273">
        <ele>523.512</ele>
        <time>2019-01-07T14:15:24Z</time>
      </trkpt>
      <trkpt lat="45.82341" lon="4.22725">
        <ele>522.785</ele>
        <time>2019-01-07T14:15:29Z</time>
      </trkpt>
      <trkpt lat="45.82338" lon="4.22716">
        <ele>521.879</ele>
        <time>2019-01-07T14:15:34Z</time>
      </trkpt>
      <trkpt lat="45.82333" lon="4.2271">
        <ele>521.098</ele>
        <time>2019-01-07T14:15:40Z</time>
      </trkpt>
      <trkpt lat="45.82329" lon="4.22706">
        <ele>520.809</ele>
        <time>2019-01-07T14:15:45Z</time>
      </trkpt>
      <trkpt lat="45.82326" lon="4.227">
        <ele>519.925</ele>
        <time>2019-01-07T14:15:51Z</time>
      </trkpt>
      <trkpt lat="45.82322" lon="4.22695">
        <ele>518.986</ele>
        <time>2019-01-07T14:15:56Z</time>
      </trkpt>
      <trkpt lat="45.82319" lon="4.2269">
        <ele>518.148</ele>
        <time>2019-01-07T14:16:01Z</time>
      </trkpt>
      <trkpt lat="45.82314" lon="4.22682">
        <ele>517.448</ele>
        <time>2019-01-07T14:16:07Z</time>
      </trkpt>
      <trkpt lat="45.8231" lon="4.22674">
        <ele>516.864</ele>
        <time>2019-01-07T14:16:12Z</time>
      </trkpt>
      <trkpt lat="45.82306" lon="4.22664">
        <ele>516.395</ele>
        <time>2019-01-07T14:16:18Z</time>
      </trkpt>
      <trkpt lat="45.82303" lon="4.22658">
        <ele>516.353</ele>
        <time>2019-01-07T14:16:23Z</time>
      </trkpt>
      <trkpt lat="45.823" lon="4.22651">
        <ele>516.165</ele>
        <time>2019-01-07T14:16:29Z</time>
      </trkpt>
      <trkpt lat="45.82298" lon="4.22646">
        <ele>515.523</ele>
        <time>2019-01-07T14:16:34Z</time>
      </trkpt>
      <trkpt lat="45.82294" lon="4.22639">
        <ele>514.732</ele>
        <time>2019-01-07T14:16:40Z</time>
      </trkpt>
      <trkpt lat="45.82291" lon="4.22636">
        <ele>514.218</ele>
        <time>2019-01-07T14:16:46Z</time>
      </trkpt>
      <trkpt lat="45.82287" lon="4.2263">
        <ele>513.858</ele>
        <time>2019-01-07T14:16:52Z</time>
      </trkpt>
      <trkpt lat="45.82285" lon="4.22626">
        <ele>513.635</ele>
        <time>2019-01-07T14:16:57Z</time>
      </trkpt>
      <trkpt lat="45.82281" lon="4.22617">
        <ele>513.425</ele>
        <time>2019-01-07T14:17:03Z</time>
      </trkpt>
      <trkpt lat="45.82277" lon="4.22611">
        <ele>513.225</ele>
        <time>2019-01-07T14:17:09Z</time>
      </trkpt>
      <trkpt lat="45.82273" lon="4.22602">
        <ele>512.635</ele>
        <time>2019-01-07T14:17:15Z</time>
      </trkpt>
      <trkpt lat="45.8227" lon="4.22596">
        <ele>512.247</ele>
        <time>2019-01-07T14:17:21Z</time>
      </trkpt>
      <trkpt lat="45.82266" lon="4.22589">
        <ele>512.286</ele>
        <time>2019-01-07T14:17:26Z</time>
      </trkpt>
      <trkpt lat="45.82262" lon="4.22581">
        <ele>511.917</ele>
        <time>2019-01-07T14:17:32Z</time>
      </trkpt>
      <trkpt lat="45.82257" lon="4.22573">
        <ele>511.439</ele>
        <time>2019-01-07T14:17:38Z</time>
      </trkpt>
      <trkpt lat="45.82254" lon="4.22567">
        <ele>511.023</ele>
        <time>2019-01-07T14:17:43Z</time>
      </trkpt>
      <trkpt lat="45.82249" lon="4.22561">
        <ele>510.646</ele>
        <time>2019-01-07T14:17:49Z</time>
      </trkpt>
      <trkpt lat="45.82246" lon="4.22556">
        <ele>510.194</ele>
        <time>2019-01-07T14:17:54Z</time>
      </trkpt>
      <trkpt lat="45.82241" lon="4.22548">
        <ele>509.703</ele>
        <time>2019-01-07T14:18:00Z</time>
      </trkpt>
      <trkpt lat="45.82237" lon="4.22541">
        <ele>508.837</ele>
        <time>2019-01-07T14:18:06Z</time>
      </trkpt>
      <trkpt lat="45.82233" lon="4.22534">
        <ele>508.388</ele>
        <time>2019-01-07T14:18:12Z</time>
      </trkpt>
      <trkpt lat="45.82229" lon="4.22527">
        <ele>508.269</ele>
        <time>2019-01-07T14:18:17Z</time>
      </trkpt>
      <trkpt lat="45.82224" lon="4.2252">
        <ele>508.025</ele>
        <time>2019-01-07T14:18:22Z</time>
      </trkpt>
      <trkpt lat="45.82219" lon="4.2251">
        <ele>507.887</ele>
        <time>2019-01-07T14:18:28Z</time>
      </trkpt>
      <trkpt lat="45.82216" lon="4.22503">
        <ele>507.884</ele>
        <time>2019-01-07T14:18:33Z</time>
      </trkpt>
      <trkpt lat="45.82212" lon="4.22496">
        <ele>507.697</ele>
        <time>2019-01-07T14:18:39Z</time>
      </trkpt>
      <trkpt lat="45.82208" lon="4.22492">
        <ele>507.277</ele>
        <time>2019-01-07T14:18:44Z</time>
      </trkpt>
      <trkpt lat="45.82203" lon="4.22484">
        <ele>506.657</ele>
        <time>2019-01-07T14:18:50Z</time>
      </trkpt>
      <trkpt lat="45.82199" lon="4.22475">
        <ele>506.446</ele>
        <time>2019-01-07T14:18:55Z</time>
      </trkpt>
      <trkpt lat="45.82195" lon="4.22466">
        <ele>505.944</ele>
        <time>2019-01-07T14:19:01Z</time>
      </trkpt>
      <trkpt lat="45.82191" lon="4.22461">
        <ele>505.333</ele>
        <time>2019-01-07T14:19:07Z</time>
      </trkpt>
      <trkpt lat="45.82186" lon="4.2245">
        <ele>504.743</ele>
        <time>2019-01-07T14:19:13Z</time>
      </trkpt>
      <trkpt lat="45.82181" lon="4.22442">
        <ele>504.604</ele>
        <time>2019-01-07T14:19:19Z</time>
      </trkpt>
      <trkpt lat="45.82177" lon="4.22437">
        <ele>504.64</ele>
        <time>2019-01-07T14:19:24Z</time>
      </trkpt>
      <trkpt lat="45.82174" lon="4.22431">
        <ele>504.487</ele>
        <time>2019-01-07T14:19:30Z</time>
      </trkpt>
      <trkpt lat="45.82169" lon="4.22423">
        <ele>504.312</ele>
        <time>2019-01-07T14:19:36Z</time>
      </trkpt>
      <trkpt lat="45.82164" lon="4.22416">
        <ele>504.404</ele>
        <time>2019-01-07T14:19:42Z</time>
      </trkpt>
      <trkpt lat="45.8216" lon="4.22407">
        <ele>504.229</ele>
        <time>2019-01-07T14:19:48Z</time>
      </trkpt>
      <trkpt lat="45.82156" lon="4.224">
        <ele>503.82</ele>
        <time>2019-01-07T14:19:54Z</time>
      </trkpt>
      <trkpt lat="45.82152" lon="4.22394">
        <ele>503.619</ele>
        <time>2019-01-07T14:19:59Z</time>
      </trkpt>
      <trkpt lat="45.82147" lon="4.22386">
        <ele>503.713</ele>
        <time>2019-01-07T14:20:05Z</time>
      </trkpt>
      <trkpt lat="45.82144" lon="4.22377">
        <ele>503.463</ele>
        <time>2019-01-07T14:20:11Z</time>
      </trkpt>
      <trkpt lat="45.82139" lon="4.22368">
        <ele>503.332</ele>
        <time>2019-01-07T14:20:16Z</time>
      </trkpt>
      <trkpt lat="45.82135" lon="4.2236">
        <ele>503.224</ele>
        <time>2019-01-07T14:20:22Z</time>
      </trkpt>
      <trkpt lat="45.82131" lon="4.22354">
        <ele>503.143</ele>
        <time>2019-01-07T14:20:27Z</time>
      </trkpt>
      <trkpt lat="45.82128" lon="4.22347">
        <ele>503.101</ele>
        <time>2019-01-07T14:20:33Z</time>
      </trkpt>
      <trkpt lat="45.82123" lon="4.2234">
        <ele>502.903</ele>
        <time>2019-01-07T14:20:39Z</time>
      </trkpt>
      <trkpt lat="45.82118" lon="4.22331">
        <ele>503.086</ele>
        <time>2019-01-07T14:20:45Z</time>
      </trkpt>
      <trkpt lat="45.82115" lon="4.22324">
        <ele>503.176</ele>
        <time>2019-01-07T14:20:50Z</time>
      </trkpt>
      <trkpt lat="45.82111" lon="4.22317">
        <ele>503.28</ele>
        <time>2019-01-07T14:20:55Z</time>
      </trkpt>
      <trkpt lat="45.82107" lon="4.2231">
        <ele>502.798</ele>
        <time>2019-01-07T14:21:01Z</time>
      </trkpt>
      <trkpt lat="45.82102" lon="4.22308">
        <ele>502.902</ele>
        <time>2019-01-07T14:21:07Z</time>
      </trkpt>
      <trkpt lat="45.821" lon="4.22304">
        <ele>502.983</ele>
        <time>2019-01-07T14:21:12Z</time>
      </trkpt>
      <trkpt lat="45.82097" lon="4.223">
        <ele>502.993</ele>
        <time>2019-01-07T14:21:17Z</time>
      </trkpt>
      <trkpt lat="45.82093" lon="4.22295">
        <ele>503.007</ele>
        <time>2019-01-07T14:21:23Z</time>
      </trkpt>
      <trkpt lat="45.82091" lon="4.22291">
        <ele>502.748</ele>
        <time>2019-01-07T14:21:28Z</time>
      </trkpt>
      <trkpt lat="45.82089" lon="4.22285">
        <ele>502.226</ele>
        <time>2019-01-07T14:21:33Z</time>
      </trkpt>
      <trkpt lat="45.82086" lon="4.22277">
        <ele>501.521</ele>
        <time>2019-01-07T14:21:39Z</time>
      </trkpt>
      <trkpt lat="45.8208" lon="4.2227">
        <ele>500.83</ele>
        <time>2019-01-07T14:21:45Z</time>
      </trkpt>
      <trkpt lat="45.82076" lon="4.22264">
        <ele>500.266</ele>
        <time>2019-01-07T14:21:50Z</time>
      </trkpt>
      <trkpt lat="45.82072" lon="4.22258">
        <ele>499.943</ele>
        <time>2019-01-07T14:21:55Z</time>
      </trkpt>
      <trkpt lat="45.82069" lon="4.22254">
        <ele>499.333</ele>
        <time>2019-01-07T14:22:01Z</time>
      </trkpt>
      <trkpt lat="45.82066" lon="4.22245">
        <ele>498.305</ele>
        <time>2019-01-07T14:22:07Z</time>
      </trkpt>
      <trkpt lat="45.82062" lon="4.22235">
        <ele>497.356</ele>
        <time>2019-01-07T14:22:12Z</time>
      </trkpt>
      <trkpt lat="45.82055" lon="4.22228">
        <ele>496.501</ele>
        <time>2019-01-07T14:22:18Z</time>
      </trkpt>
      <trkpt lat="45.82051" lon="4.22225">
        <ele>496.095</ele>
        <time>2019-01-07T14:22:23Z</time>
      </trkpt>
      <trkpt lat="45.82048" lon="4.22218">
        <ele>495.279</ele>
        <time>2019-01-07T14:22:29Z</time>
      </trkpt>
      <trkpt lat="45.82045" lon="4.22211">
        <ele>494.789</ele>
        <time>2019-01-07T14:22:34Z</time>
      </trkpt>
      <trkpt lat="45.82042" lon="4.22204">
        <ele>494.404</ele>
        <time>2019-01-07T14:22:39Z</time>
      </trkpt>
      <trkpt lat="45.82039" lon="4.22198">
        <ele>493.607</ele>
        <time>2019-01-07T14:22:45Z</time>
      </trkpt>
      <trkpt lat="45.82035" lon="4.22192">
        <ele>492.79</ele>
        <time>2019-01-07T14:22:51Z</time>
      </trkpt>
      <trkpt lat="45.82034" lon="4.22188">
        <ele>491.957</ele>
        <time>2019-01-07T14:22:56Z</time>
      </trkpt>
      <trkpt lat="45.82029" lon="4.22185">
        <ele>491.28</ele>
        <time>2019-01-07T14:23:02Z</time>
      </trkpt>
      <trkpt lat="45.82026" lon="4.2218">
        <ele>490.788</ele>
        <time>2019-01-07T14:23:07Z</time>
      </trkpt>
      <trkpt lat="45.82022" lon="4.22172">
        <ele>490.587</ele>
        <time>2019-01-07T14:23:13Z</time>
      </trkpt>
      <trkpt lat="45.82021" lon="4.22165">
        <ele>489.992</ele>
        <time>2019-01-07T14:23:19Z</time>
      </trkpt>
      <trkpt lat="45.82019" lon="4.22161">
        <ele>489.45</ele>
        <time>2019-01-07T14:23:25Z</time>
      </trkpt>
      <trkpt lat="45.82014" lon="4.22155">
        <ele>489.141</ele>
        <time>2019-01-07T14:23:31Z</time>
      </trkpt>
      <trkpt lat="45.8201" lon="4.22149">
        <ele>488.781</ele>
        <time>2019-01-07T14:23:37Z</time>
      </trkpt>
      <trkpt lat="45.82006" lon="4.22143">
        <ele>488.441</ele>
        <time>2019-01-07T14:23:43Z</time>
      </trkpt>
      <trkpt lat="45.82" lon="4.22135">
        <ele>488.166</ele>
        <time>2019-01-07T14:23:49Z</time>
      </trkpt>
      <trkpt lat="45.81996" lon="4.22133">
        <ele>487.677</ele>
        <time>2019-01-07T14:23:55Z</time>
      </trkpt>
      <trkpt lat="45.81992" lon="4.22128">
        <ele>486.85</ele>
        <time>2019-01-07T14:24:01Z</time>
      </trkpt>
      <trkpt lat="45.81988" lon="4.22122">
        <ele>486.561</ele>
        <time>2019-01-07T14:24:07Z</time>
      </trkpt>
      <trkpt lat="45.81984" lon="4.22116">
        <ele>485.941</ele>
        <time>2019-01-07T14:24:13Z</time>
      </trkpt>
      <trkpt lat="45.81981" lon="4.2211">
        <ele>485.197</ele>
        <time>2019-01-07T14:24:19Z</time>
      </trkpt>
      <trkpt lat="45.81976" lon="4.22105">
        <ele>484.745</ele>
        <time>2019-01-07T14:24:25Z</time>
      </trkpt>
      <trkpt lat="45.81975" lon="4.221">
        <ele>484.435</ele>
        <time>2019-01-07T14:24:31Z</time>
      </trkpt>
      <trkpt lat="45.81973" lon="4.22097">
        <ele>484.328</ele>
        <time>2019-01-07T14:24:37Z</time>
      </trkpt>
      <trkpt lat="45.8197" lon="4.22093">
        <ele>484.633</ele>
        <time>2019-01-07T14:24:43Z</time>
      </trkpt>
      <trkpt lat="45.81967" lon="4.22083">
        <ele>484.365</ele>
        <time>2019-01-07T14:24:49Z</time>
      </trkpt>
      <trkpt lat="45.81963" lon="4.22075">
        <ele>483.995</ele>
        <time>2019-01-07T14:24:55Z</time>
      </trkpt>
      <trkpt lat="45.8196" lon="4.22067">
        <ele>483.697</ele>
        <time>2019-01-07T14:25:01Z</time>
      </trkpt>
      <trkpt lat="45.81957" lon="4.2206">
        <ele>483.523</ele>
        <time>2019-01-07T14:25:07Z</time>
      </trkpt>
      <trkpt lat="45.81954" lon="4.22055">
        <ele>483.592</ele>
        <time>2019-01-07T14:25:13Z</time>
      </trkpt>
      <trkpt lat="45.81951" lon="4.22047">
        <ele>483.572</ele>
        <time>2019-01-07T14:25:19Z</time>
      </trkpt>
      <trkpt lat="45.81948" lon="4.22042">
        <ele>483.263</ele>
        <time>2019-01-07T14:25:25Z</time>
      </trkpt>
      <trkpt lat="45.81946" lon="4.22036">
        <ele>482.729</ele>
        <time>2019-01-07T14:25:31Z</time>
      </trkpt>
      <trkpt lat="45.81943" lon="4.22031">
        <ele>482.144</ele>
        <time>2019-01-07T14:25:37Z</time>
      </trkpt>
      <trkpt lat="45.81939" lon="4.22025">
        <ele>481.401</ele>
        <time>2019-01-07T14:25:43Z</time>
      </trkpt>
      <trkpt lat="45.81937" lon="4.22019">
        <ele>480.174</ele>
        <time>2019-01-07T14:25:49Z</time>
      </trkpt>
      <trkpt lat="45.81934" lon="4.22011">
        <ele>479.242</ele>
        <time>2019-01-07T14:25:55Z</time>
      </trkpt>
      <trkpt lat="45.81928" lon="4.22004">
        <ele>478.547</ele>
        <time>2019-01-07T14:26:01Z</time>
      </trkpt>
      <trkpt lat="45.81923" lon="4.22">
        <ele>477.318</ele>
        <time>2019-01-07T14:26:07Z</time>
      </trkpt>
      <trkpt lat="45.8192" lon="4.21998">
        <ele>476.606</ele>
        <time>2019-01-07T14:26:13Z</time>
      </trkpt>
      <trkpt lat="45.81916" lon="4.21993">
        <ele>475.985</ele>
        <time>2019-01-07T14:26:19Z</time>
      </trkpt>
      <trkpt lat="45.81908" lon="4.21986">
        <ele>475.442</ele>
        <time>2019-01-07T14:26:25Z</time>
      </trkpt>
      <trkpt lat="45.81902" lon="4.21981">
        <ele>475.163</ele>
        <time>2019-01-07T14:26:31Z</time>
      </trkpt>
      <trkpt lat="45.81899" lon="4.21977">
        <ele>474.722</ele>
        <time>2019-01-07T14:26:36Z</time>
      </trkpt>
      <trkpt lat="45.81895" lon="4.21972">
        <ele>474.445</ele>
        <time>2019-01-07T14:26:42Z</time>
      </trkpt>
      <trkpt lat="45.81891" lon="4.21963">
        <ele>473.835</ele>
        <time>2019-01-07T14:26:48Z</time>
      </trkpt>
      <trkpt lat="45.81886" lon="4.21959">
        <ele>472.886</ele>
        <time>2019-01-07T14:26:54Z</time>
      </trkpt>
      <trkpt lat="45.81883" lon="4.21955">
        <ele>472.163</ele>
        <time>2019-01-07T14:27:00Z</time>
      </trkpt>
      <trkpt lat="45.8188" lon="4.21951">
        <ele>471.832</ele>
        <time>2019-01-07T14:27:05Z</time>
      </trkpt>
      <trkpt lat="45.81877" lon="4.21947">
        <ele>471.197</ele>
        <time>2019-01-07T14:27:11Z</time>
      </trkpt>
      <trkpt lat="45.81873" lon="4.21943">
        <ele>470.519</ele>
        <time>2019-01-07T14:27:17Z</time>
      </trkpt>
      <trkpt lat="45.81869" lon="4.21939">
        <ele>469.717</ele>
        <time>2019-01-07T14:27:23Z</time>
      </trkpt>
      <trkpt lat="45.81865" lon="4.21933">
        <ele>468.414</ele>
        <time>2019-01-07T14:27:29Z</time>
      </trkpt>
      <trkpt lat="45.81862" lon="4.21927">
        <ele>466.829</ele>
        <time>2019-01-07T14:27:35Z</time>
      </trkpt>
      <trkpt lat="45.81859" lon="4.21921">
        <ele>465.382</ele>
        <time>2019-01-07T14:27:41Z</time>
      </trkpt>
      <trkpt lat="45.81859" lon="4.21914">
        <ele>464.124</ele>
        <time>2019-01-07T14:27:47Z</time>
      </trkpt>
      <trkpt lat="45.81857" lon="4.21912">
        <ele>464.072</ele>
        <time>2019-01-07T14:27:53Z</time>
      </trkpt>
      <trkpt lat="45.81854" lon="4.21913">
        <ele>463.078</ele>
        <time>2019-01-07T14:27:59Z</time>
      </trkpt>
      <trkpt lat="45.81853" lon="4.21915">
        <ele>462.309</ele>
        <time>2019-01-07T14:28:04Z</time>
      </trkpt>
      <trkpt lat="45.81853" lon="4.21916">
        <ele>461.18</ele>
        <time>2019-01-07T14:28:09Z</time>
      </trkpt>
      <trkpt lat="45.81852" lon="4.21914">
        <ele>459.864</ele>
        <time>2019-01-07T14:28:15Z</time>
      </trkpt>
      <trkpt lat="45.8185" lon="4.21908">
        <ele>459.74</ele>
        <time>2019-01-07T14:28:21Z</time>
      </trkpt>
      <trkpt lat="45.8185" lon="4.21907">
        <ele>459.426</ele>
        <time>2019-01-07T14:28:27Z</time>
      </trkpt>
      <trkpt lat="45.8185" lon="4.21907">
        <ele>459.081</ele>
        <time>2019-01-07T14:28:33Z</time>
      </trkpt>
      <trkpt lat="45.8185" lon="4.21907">
        <ele>458.963</ele>
        <time>2019-01-07T14:28:38Z</time>
      </trkpt>
      <trkpt lat="45.8185" lon="4.21907">
        <ele>458.886</ele>
        <time>2019-01-07T14:28:43Z</time>
      </trkpt>
      <trkpt lat="45.8185" lon="4.21907">
        <ele>458.43</ele>
        <time>2019-01-07T14:28:49Z</time>
      </trkpt>
      <trkpt lat="45.8185" lon="4.21907">
        <ele>458.271</ele>
        <time>2019-01-07T14:28:55Z</time>
      </trkpt>
      <trkpt lat="45.8185" lon="4.21907">
        <ele>458.272</ele>
        <time>2019-01-07T14:29:00Z</time>
      </trkpt>
      <trkpt lat="45.8185" lon="4.21907">
        <ele>458.177</ele>
        <time>2019-01-07T14:29:05Z</time>
      </trkpt>
      <trkpt lat="45.8185" lon="4.21906">
        <ele>458.39</ele>
        <time>2019-01-07T14:29:11Z</time>
      </trkpt>
      <trkpt lat="45.81849" lon="4.21906">
        <ele>458.561</ele>
        <time>2019-01-07T14:29:16Z</time>
      </trkpt>
      <trkpt lat="45.8185" lon="4.21904">
        <ele>459.199</ele>
        <time>2019-01-07T14:29:21Z</time>
      </trkpt>
      <trkpt lat="45.81851" lon="4.21903">
        <ele>459.386</ele>
        <time>2019-01-07T14:29:27Z</time>
      </trkpt>
      <trkpt lat="45.81852" lon="4.21902">
        <ele>459.181</ele>
        <time>2019-01-07T14:29:33Z</time>
      </trkpt>
      <trkpt lat="45.81852" lon="4.21902">
        <ele>458.866</ele>
        <time>2019-01-07T14:29:39Z</time>
      </trkpt>
      <trkpt lat="45.81852" lon="4.21902">
        <ele>459.274</ele>
        <time>2019-01-07T14:29:45Z</time>
      </trkpt>
      <trkpt lat="45.81854" lon="4.21902">
        <ele>459.355</ele>
        <time>2019-01-07T14:29:50Z</time>
      </trkpt>
      <trkpt lat="45.81855" lon="4.21902">
        <ele>459.637</ele>
        <time>2019-01-07T14:29:56Z</time>
      </trkpt>
      <trkpt lat="45.81856" lon="4.21903">
        <ele>459.888</ele>
        <time>2019-01-07T14:30:01Z</time>
      </trkpt>
      <trkpt lat="45.81861" lon="4.21903">
        <ele>459.902</ele>
        <time>2019-01-07T14:30:06Z</time>
      </trkpt>
      <trkpt lat="45.81869" lon="4.219">
        <ele>460.295</ele>
        <time>2019-01-07T14:30:12Z</time>
      </trkpt>
      <trkpt lat="45.81873" lon="4.219">
        <ele>460.73</ele>
        <time>2019-01-07T14:30:18Z</time>
      </trkpt>
      <trkpt lat="45.81884" lon="4.21898">
        <ele>461.119</ele>
        <time>2019-01-07T14:30:24Z</time>
      </trkpt>
      <trkpt lat="45.81887" lon="4.21896">
        <ele>461.491</ele>
        <time>2019-01-07T14:30:29Z</time>
      </trkpt>
      <trkpt lat="45.81896" lon="4.21894">
        <ele>461.681</ele>
        <time>2019-01-07T14:30:36Z</time>
      </trkpt>
      <trkpt lat="45.81901" lon="4.21892">
        <ele>461.633</ele>
        <time>2019-01-07T14:30:41Z</time>
      </trkpt>
      <trkpt lat="45.81907" lon="4.21891">
        <ele>461.68</ele>
        <time>2019-01-07T14:30:47Z</time>
      </trkpt>
      <trkpt lat="45.81915" lon="4.21889">
        <ele>461.438</ele>
        <time>2019-01-07T14:30:53Z</time>
      </trkpt>
      <trkpt lat="45.81919" lon="4.2189">
        <ele>460.636</ele>
        <time>2019-01-07T14:30:59Z</time>
      </trkpt>
      <trkpt lat="45.81926" lon="4.21892">
        <ele>460.552</ele>
        <time>2019-01-07T14:31:05Z</time>
      </trkpt>
      <trkpt lat="45.81934" lon="4.21891">
        <ele>460.391</ele>
        <time>2019-01-07T14:31:11Z</time>
      </trkpt>
      <trkpt lat="45.8194" lon="4.21892">
        <ele>460.158</ele>
        <time>2019-01-07T14:31:16Z</time>
      </trkpt>
      <trkpt lat="45.81944" lon="4.21891">
        <ele>459.761</ele>
        <time>2019-01-07T14:31:21Z</time>
      </trkpt>
      <trkpt lat="45.81949" lon="4.21892">
        <ele>459.519</ele>
        <time>2019-01-07T14:31:26Z</time>
      </trkpt>
      <trkpt lat="45.81953" lon="4.21892">
        <ele>459.693</ele>
        <time>2019-01-07T14:31:32Z</time>
      </trkpt>
      <trkpt lat="45.81957" lon="4.21891">
        <ele>459.808</ele>
        <time>2019-01-07T14:31:38Z</time>
      </trkpt>
      <trkpt lat="45.81962" lon="4.2189">
        <ele>459.728</ele>
        <time>2019-01-07T14:31:43Z</time>
      </trkpt>
      <trkpt lat="45.81966" lon="4.21887">
        <ele>459.334</ele>
        <time>2019-01-07T14:31:49Z</time>
      </trkpt>
      <trkpt lat="45.81973" lon="4.21884">
        <ele>459.123</ele>
        <time>2019-01-07T14:31:54Z</time>
      </trkpt>
      <trkpt lat="45.81979" lon="4.21883">
        <ele>459.282</ele>
        <time>2019-01-07T14:32:00Z</time>
      </trkpt>
      <trkpt lat="45.81982" lon="4.21881">
        <ele>459.337</ele>
        <time>2019-01-07T14:32:05Z</time>
      </trkpt>
      <trkpt lat="45.81988" lon="4.21877">
        <ele>459.535</ele>
        <time>2019-01-07T14:32:10Z</time>
      </trkpt>
      <trkpt lat="45.81992" lon="4.21874">
        <ele>459.081</ele>
        <time>2019-01-07T14:32:16Z</time>
      </trkpt>
      <trkpt lat="45.81995" lon="4.21874">
        <ele>458.339</ele>
        <time>2019-01-07T14:32:22Z</time>
      </trkpt>
      <trkpt lat="45.81995" lon="4.21872">
        <ele>457.348</ele>
        <time>2019-01-07T14:32:28Z</time>
      </trkpt>
      <trkpt lat="45.81994" lon="4.21867">
        <ele>455.736</ele>
        <time>2019-01-07T14:32:34Z</time>
      </trkpt>
      <trkpt lat="45.81992" lon="4.21862">
        <ele>454.213</ele>
        <time>2019-01-07T14:32:40Z</time>
      </trkpt>
      <trkpt lat="45.81986" lon="4.21856">
        <ele>452.784</ele>
        <time>2019-01-07T14:32:46Z</time>
      </trkpt>
      <trkpt lat="45.8198" lon="4.21854">
        <ele>451.601</ele>
        <time>2019-01-07T14:32:52Z</time>
      </trkpt>
      <trkpt lat="45.81971" lon="4.21849">
        <ele>449.965</ele>
        <time>2019-01-07T14:32:58Z</time>
      </trkpt>
      <trkpt lat="45.81967" lon="4.21849">
        <ele>448.715</ele>
        <time>2019-01-07T14:33:04Z</time>
      </trkpt>
      <trkpt lat="45.81961" lon="4.21848">
        <ele>448.205</ele>
        <time>2019-01-07T14:33:09Z</time>
      </trkpt>
      <trkpt lat="45.81956" lon="4.21844">
        <ele>447.327</ele>
        <time>2019-01-07T14:33:15Z</time>
      </trkpt>
      <trkpt lat="45.81951" lon="4.21839">
        <ele>446.752</ele>
        <time>2019-01-07T14:33:20Z</time>
      </trkpt>
      <trkpt lat="45.81952" lon="4.21834">
        <ele>446.178</ele>
        <time>2019-01-07T14:33:26Z</time>
      </trkpt>
      <trkpt lat="45.81959" lon="4.21828">
        <ele>445.761</ele>
        <time>2019-01-07T14:33:31Z</time>
      </trkpt>
      <trkpt lat="45.81966" lon="4.2182">
        <ele>445.382</ele>
        <time>2019-01-07T14:33:36Z</time>
      </trkpt>
      <trkpt lat="45.81971" lon="4.21816">
        <ele>444.823</ele>
        <time>2019-01-07T14:33:42Z</time>
      </trkpt>
      <trkpt lat="45.81975" lon="4.21812">
        <ele>443.912</ele>
        <time>2019-01-07T14:33:48Z</time>
      </trkpt>
      <trkpt lat="45.81979" lon="4.21806">
        <ele>443.698</ele>
        <time>2019-01-07T14:33:54Z</time>
      </trkpt>
      <trkpt lat="45.81984" lon="4.21801">
        <ele>443.646</ele>
        <time>2019-01-07T14:34:00Z</time>
      </trkpt>
      <trkpt lat="45.81986" lon="4.21796">
        <ele>443.236</ele>
        <time>2019-01-07T14:34:05Z</time>
      </trkpt>
      <trkpt lat="45.8199" lon="4.21791">
        <ele>443.263</ele>
        <time>2019-01-07T14:34:10Z</time>
      </trkpt>
      <trkpt lat="45.81994" lon="4.21783">
        <ele>443.042</ele>
        <time>2019-01-07T14:34:16Z</time>
      </trkpt>
      <trkpt lat="45.81997" lon="4.21777">
        <ele>442.738</ele>
        <time>2019-01-07T14:34:22Z</time>
      </trkpt>
      <trkpt lat="45.82" lon="4.21774">
        <ele>442.9</ele>
        <time>2019-01-07T14:34:27Z</time>
      </trkpt>
      <trkpt lat="45.82007" lon="4.21764">
        <ele>443.212</ele>
        <time>2019-01-07T14:34:33Z</time>
      </trkpt>
      <trkpt lat="45.8201" lon="4.21759">
        <ele>443.115</ele>
        <time>2019-01-07T14:34:39Z</time>
      </trkpt>
      <trkpt lat="45.82011" lon="4.21752">
        <ele>443.041</ele>
        <time>2019-01-07T14:34:44Z</time>
      </trkpt>
      <trkpt lat="45.82016" lon="4.21742">
        <ele>442.8</ele>
        <time>2019-01-07T14:34:49Z</time>
      </trkpt>
      <trkpt lat="45.82021" lon="4.21736">
        <ele>442.187</ele>
        <time>2019-01-07T14:34:54Z</time>
      </trkpt>
      <trkpt lat="45.82022" lon="4.21726">
        <ele>441.638</ele>
        <time>2019-01-07T14:35:00Z</time>
      </trkpt>
      <trkpt lat="45.82025" lon="4.21717">
        <ele>441.383</ele>
        <time>2019-01-07T14:35:05Z</time>
      </trkpt>
      <trkpt lat="45.82027" lon="4.2171">
        <ele>441.297</ele>
        <time>2019-01-07T14:35:10Z</time>
      </trkpt>
      <trkpt lat="45.82028" lon="4.21706">
        <ele>441.595</ele>
        <time>2019-01-07T14:35:16Z</time>
      </trkpt>
      <trkpt lat="45.8203" lon="4.21702">
        <ele>442.25</ele>
        <time>2019-01-07T14:35:21Z</time>
      </trkpt>
      <trkpt lat="45.8203" lon="4.21702">
        <ele>442.648</ele>
        <time>2019-01-07T14:35:27Z</time>
      </trkpt>
      <trkpt lat="45.82028" lon="4.21695">
        <ele>442.761</ele>
        <time>2019-01-07T14:35:33Z</time>
      </trkpt>
      <trkpt lat="45.82031" lon="4.21688">
        <ele>442.735</ele>
        <time>2019-01-07T14:35:38Z</time>
      </trkpt>
      <trkpt lat="45.82031" lon="4.21682">
        <ele>442.787</ele>
        <time>2019-01-07T14:35:44Z</time>
      </trkpt>
      <trkpt lat="45.82033" lon="4.21676">
        <ele>442.956</ele>
        <time>2019-01-07T14:35:49Z</time>
      </trkpt>
      <trkpt lat="45.82033" lon="4.2167">
        <ele>443.367</ele>
        <time>2019-01-07T14:35:55Z</time>
      </trkpt>
      <trkpt lat="45.82034" lon="4.21663">
        <ele>444.139</ele>
        <time>2019-01-07T14:36:00Z</time>
      </trkpt>
      <trkpt lat="45.82036" lon="4.21652">
        <ele>445.526</ele>
        <time>2019-01-07T14:36:06Z</time>
      </trkpt>
      <trkpt lat="45.82038" lon="4.21645">
        <ele>446.812</ele>
        <time>2019-01-07T14:36:11Z</time>
      </trkpt>
      <trkpt lat="45.82039" lon="4.2164">
        <ele>448.028</ele>
        <time>2019-01-07T14:36:16Z</time>
      </trkpt>
      <trkpt lat="45.82043" lon="4.21632">
        <ele>449.279</ele>
        <time>2019-01-07T14:36:22Z</time>
      </trkpt>
      <trkpt lat="45.82045" lon="4.21627">
        <ele>450.023</ele>
        <time>2019-01-07T14:36:28Z</time>
      </trkpt>
      <trkpt lat="45.82046" lon="4.21623">
        <ele>450.354</ele>
        <time>2019-01-07T14:36:34Z</time>
      </trkpt>
      <trkpt lat="45.82051" lon="4.21619">
        <ele>450.74</ele>
        <time>2019-01-07T14:36:40Z</time>
      </trkpt>
      <trkpt lat="45.82059" lon="4.21621">
        <ele>451.045</ele>
        <time>2019-01-07T14:36:46Z</time>
      </trkpt>
      <trkpt lat="45.82064" lon="4.21624">
        <ele>451.072</ele>
        <time>2019-01-07T14:36:52Z</time>
      </trkpt>
      <trkpt lat="45.8207" lon="4.21631">
        <ele>451.456</ele>
        <time>2019-01-07T14:36:58Z</time>
      </trkpt>
      <trkpt lat="45.82074" lon="4.21636">
        <ele>451.848</ele>
        <time>2019-01-07T14:37:04Z</time>
      </trkpt>
      <trkpt lat="45.82078" lon="4.2164">
        <ele>451.899</ele>
        <time>2019-01-07T14:37:09Z</time>
      </trkpt>
      <trkpt lat="45.82082" lon="4.21648">
        <ele>452.26</ele>
        <time>2019-01-07T14:37:15Z</time>
      </trkpt>
      <trkpt lat="45.82086" lon="4.21655">
        <ele>452.246</ele>
        <time>2019-01-07T14:37:20Z</time>
      </trkpt>
      <trkpt lat="45.82089" lon="4.21661">
        <ele>452.072</ele>
        <time>2019-01-07T14:37:26Z</time>
      </trkpt>
      <trkpt lat="45.82093" lon="4.21667">
        <ele>452.17</ele>
        <time>2019-01-07T14:37:32Z</time>
      </trkpt>
      <trkpt lat="45.82096" lon="4.21676">
        <ele>452.445</ele>
        <time>2019-01-07T14:37:38Z</time>
      </trkpt>
      <trkpt lat="45.82099" lon="4.21684">
        <ele>452.683</ele>
        <time>2019-01-07T14:37:43Z</time>
      </trkpt>
      <trkpt lat="45.82106" lon="4.21691">
        <ele>453.052</ele>
        <time>2019-01-07T14:37:49Z</time>
      </trkpt>
      <trkpt lat="45.82111" lon="4.21698">
        <ele>453.439</ele>
        <time>2019-01-07T14:37:54Z</time>
      </trkpt>
      <trkpt lat="45.82114" lon="4.21702">
        <ele>453.309</ele>
        <time>2019-01-07T14:37:59Z</time>
      </trkpt>
      <trkpt lat="45.82118" lon="4.21706">
        <ele>453.208</ele>
        <time>2019-01-07T14:38:04Z</time>
      </trkpt>
      <trkpt lat="45.82121" lon="4.21707">
        <ele>453.411</ele>
        <time>2019-01-07T14:38:10Z</time>
      </trkpt>
      <trkpt lat="45.82124" lon="4.2171">
        <ele>453.971</ele>
        <time>2019-01-07T14:38:15Z</time>
      </trkpt>
      <trkpt lat="45.82131" lon="4.21712">
        <ele>454.395</ele>
        <time>2019-01-07T14:38:21Z</time>
      </trkpt>
      <trkpt lat="45.82138" lon="4.21714">
        <ele>454.958</ele>
        <time>2019-01-07T14:38:27Z</time>
      </trkpt>
      <trkpt lat="45.82145" lon="4.21717">
        <ele>455.314</ele>
        <time>2019-01-07T14:38:32Z</time>
      </trkpt>
      <trkpt lat="45.82151" lon="4.21719">
        <ele>455.841</ele>
        <time>2019-01-07T14:38:38Z</time>
      </trkpt>
      <trkpt lat="45.82157" lon="4.21719">
        <ele>456.083</ele>
        <time>2019-01-07T14:38:43Z</time>
      </trkpt>
      <trkpt lat="45.82164" lon="4.21719">
        <ele>456.21</ele>
        <time>2019-01-07T14:38:49Z</time>
      </trkpt>
      <trkpt lat="45.8217" lon="4.21721">
        <ele>456.164</ele>
        <time>2019-01-07T14:38:54Z</time>
      </trkpt>
      <trkpt lat="45.82179" lon="4.21725">
        <ele>456.03</ele>
        <time>2019-01-07T14:39:00Z</time>
      </trkpt>
      <trkpt lat="45.82185" lon="4.21728">
        <ele>456.127</ele>
        <time>2019-01-07T14:39:05Z</time>
      </trkpt>
      <trkpt lat="45.8219" lon="4.21731">
        <ele>456.287</ele>
        <time>2019-01-07T14:39:10Z</time>
      </trkpt>
      <trkpt lat="45.82196" lon="4.21733">
        <ele>456.395</ele>
        <time>2019-01-07T14:39:16Z</time>
      </trkpt>
      <trkpt lat="45.82202" lon="4.21739">
        <ele>456.677</ele>
        <time>2019-01-07T14:39:22Z</time>
      </trkpt>
      <trkpt lat="45.82208" lon="4.21744">
        <ele>456.637</ele>
        <time>2019-01-07T14:39:28Z</time>
      </trkpt>
      <trkpt lat="45.82214" lon="4.21748">
        <ele>456.864</ele>
        <time>2019-01-07T14:39:34Z</time>
      </trkpt>
      <trkpt lat="45.82221" lon="4.21754">
        <ele>457.414</ele>
        <time>2019-01-07T14:39:40Z</time>
      </trkpt>
      <trkpt lat="45.82225" lon="4.2176">
        <ele>457.913</ele>
        <time>2019-01-07T14:39:45Z</time>
      </trkpt>
      <trkpt lat="45.82232" lon="4.21765">
        <ele>458.522</ele>
        <time>2019-01-07T14:39:51Z</time>
      </trkpt>
      <trkpt lat="45.82238" lon="4.2177">
        <ele>459.189</ele>
        <time>2019-01-07T14:39:57Z</time>
      </trkpt>
      <trkpt lat="45.82244" lon="4.21774">
        <ele>460.027</ele>
        <time>2019-01-07T14:40:03Z</time>
      </trkpt>
      <trkpt lat="45.82248" lon="4.21778">
        <ele>460.19</ele>
        <time>2019-01-07T14:40:08Z</time>
      </trkpt>
      <trkpt lat="45.82252" lon="4.21781">
        <ele>460.342</ele>
        <time>2019-01-07T14:40:13Z</time>
      </trkpt>
      <trkpt lat="45.82257" lon="4.21786">
        <ele>461.072</ele>
        <time>2019-01-07T14:40:19Z</time>
      </trkpt>
      <trkpt lat="45.82262" lon="4.21791">
        <ele>461.554</ele>
        <time>2019-01-07T14:40:25Z</time>
      </trkpt>
      <trkpt lat="45.82268" lon="4.21797">
        <ele>462.086</ele>
        <time>2019-01-07T14:40:30Z</time>
      </trkpt>
      <trkpt lat="45.82272" lon="4.21801">
        <ele>462.817</ele>
        <time>2019-01-07T14:40:36Z</time>
      </trkpt>
      <trkpt lat="45.82273" lon="4.21804">
        <ele>463.417</ele>
        <time>2019-01-07T14:40:42Z</time>
      </trkpt>
      <trkpt lat="45.82278" lon="4.21808">
        <ele>464.11</ele>
        <time>2019-01-07T14:40:48Z</time>
      </trkpt>
      <trkpt lat="45.82282" lon="4.2181">
        <ele>464.667</ele>
        <time>2019-01-07T14:40:53Z</time>
      </trkpt>
      <trkpt lat="45.82283" lon="4.21815">
        <ele>465.271</ele>
        <time>2019-01-07T14:40:59Z</time>
      </trkpt>
      <trkpt lat="45.82288" lon="4.21818">
        <ele>465.757</ele>
        <time>2019-01-07T14:41:04Z</time>
      </trkpt>
      <trkpt lat="45.82289" lon="4.21818">
        <ele>466.499</ele>
        <time>2019-01-07T14:41:10Z</time>
      </trkpt>
      <trkpt lat="45.82294" lon="4.2182">
        <ele>467.03</ele>
        <time>2019-01-07T14:41:16Z</time>
      </trkpt>
      <trkpt lat="45.82298" lon="4.21822">
        <ele>467.454</ele>
        <time>2019-01-07T14:41:21Z</time>
      </trkpt>
      <trkpt lat="45.82302" lon="4.21826">
        <ele>468.292</ele>
        <time>2019-01-07T14:41:26Z</time>
      </trkpt>
      <trkpt lat="45.82308" lon="4.2183">
        <ele>469.285</ele>
        <time>2019-01-07T14:41:32Z</time>
      </trkpt>
      <trkpt lat="45.82315" lon="4.21834">
        <ele>469.717</ele>
        <time>2019-01-07T14:41:38Z</time>
      </trkpt>
      <trkpt lat="45.82319" lon="4.21835">
        <ele>469.951</ele>
        <time>2019-01-07T14:41:43Z</time>
      </trkpt>
      <trkpt lat="45.82325" lon="4.21837">
        <ele>470.28</ele>
        <time>2019-01-07T14:41:49Z</time>
      </trkpt>
      <trkpt lat="45.82331" lon="4.21839">
        <ele>470.963</ele>
        <time>2019-01-07T14:41:55Z</time>
      </trkpt>
      <trkpt lat="45.82337" lon="4.2184">
        <ele>471.452</ele>
        <time>2019-01-07T14:42:00Z</time>
      </trkpt>
      <trkpt lat="45.82343" lon="4.21841">
        <ele>472.109</ele>
        <time>2019-01-07T14:42:06Z</time>
      </trkpt>
      <trkpt lat="45.82348" lon="4.21841">
        <ele>472.66</ele>
        <time>2019-01-07T14:42:11Z</time>
      </trkpt>
      <trkpt lat="45.82355" lon="4.21842">
        <ele>473.497</ele>
        <time>2019-01-07T14:42:17Z</time>
      </trkpt>
      <trkpt lat="45.82363" lon="4.21842">
        <ele>474.467</ele>
        <time>2019-01-07T14:42:23Z</time>
      </trkpt>
      <trkpt lat="45.82368" lon="4.21842">
        <ele>475.193</ele>
        <time>2019-01-07T14:42:28Z</time>
      </trkpt>
      <trkpt lat="45.82376" lon="4.21842">
        <ele>475.764</ele>
        <time>2019-01-07T14:42:34Z</time>
      </trkpt>
      <trkpt lat="45.82382" lon="4.2184">
        <ele>476.323</ele>
        <time>2019-01-07T14:42:40Z</time>
      </trkpt>
      <trkpt lat="45.82387" lon="4.21841">
        <ele>476.935</ele>
        <time>2019-01-07T14:42:45Z</time>
      </trkpt>
      <trkpt lat="45.82392" lon="4.21838">
        <ele>478.07</ele>
        <time>2019-01-07T14:42:51Z</time>
      </trkpt>
      <trkpt lat="45.824" lon="4.21832">
        <ele>478.777</ele>
        <time>2019-01-07T14:42:57Z</time>
      </trkpt>
      <trkpt lat="45.82408" lon="4.21832">
        <ele>479.009</ele>
        <time>2019-01-07T14:43:02Z</time>
      </trkpt>
      <trkpt lat="45.82415" lon="4.21832">
        <ele>479.737</ele>
        <time>2019-01-07T14:43:08Z</time>
      </trkpt>
      <trkpt lat="45.82421" lon="4.2183">
        <ele>480.3</ele>
        <time>2019-01-07T14:43:13Z</time>
      </trkpt>
      <trkpt lat="45.82427" lon="4.2183">
        <ele>481.254</ele>
        <time>2019-01-07T14:43:19Z</time>
      </trkpt>
      <trkpt lat="45.82432" lon="4.21831">
        <ele>482.513</ele>
        <time>2019-01-07T14:43:25Z</time>
      </trkpt>
      <trkpt lat="45.82438" lon="4.21833">
        <ele>483.342</ele>
        <time>2019-01-07T14:43:30Z</time>
      </trkpt>
      <trkpt lat="45.82445" lon="4.21835">
        <ele>484.025</ele>
        <time>2019-01-07T14:43:36Z</time>
      </trkpt>
      <trkpt lat="45.82454" lon="4.21836">
        <ele>483.939</ele>
        <time>2019-01-07T14:43:42Z</time>
      </trkpt>
      <trkpt lat="45.82461" lon="4.2184">
        <ele>483.966</ele>
        <time>2019-01-07T14:43:48Z</time>
      </trkpt>
      <trkpt lat="45.82467" lon="4.21844">
        <ele>484.205</ele>
        <time>2019-01-07T14:43:54Z</time>
      </trkpt>
      <trkpt lat="45.82473" lon="4.21847">
        <ele>484.606</ele>
        <time>2019-01-07T14:43:59Z</time>
      </trkpt>
      <trkpt lat="45.8248" lon="4.21849">
        <ele>485.106</ele>
        <time>2019-01-07T14:44:05Z</time>
      </trkpt>
      <trkpt lat="45.82488" lon="4.21853">
        <ele>485.524</ele>
        <time>2019-01-07T14:44:11Z</time>
      </trkpt>
      <trkpt lat="45.82492" lon="4.21854">
        <ele>485.963</ele>
        <time>2019-01-07T14:44:16Z</time>
      </trkpt>
      <trkpt lat="45.82496" lon="4.21855">
        <ele>485.847</ele>
        <time>2019-01-07T14:44:21Z</time>
      </trkpt>
      <trkpt lat="45.82503" lon="4.21857">
        <ele>486.136</ele>
        <time>2019-01-07T14:44:26Z</time>
      </trkpt>
      <trkpt lat="45.82511" lon="4.21858">
        <ele>486.448</ele>
        <time>2019-01-07T14:44:32Z</time>
      </trkpt>
      <trkpt lat="45.82516" lon="4.21857">
        <ele>486.723</ele>
        <time>2019-01-07T14:44:37Z</time>
      </trkpt>
      <trkpt lat="45.82522" lon="4.21859">
        <ele>486.938</ele>
        <time>2019-01-07T14:44:42Z</time>
      </trkpt>
      <trkpt lat="45.82527" lon="4.21861">
        <ele>487.299</ele>
        <time>2019-01-07T14:44:48Z</time>
      </trkpt>
      <trkpt lat="45.82533" lon="4.21862">
        <ele>487.949</ele>
        <time>2019-01-07T14:44:53Z</time>
      </trkpt>
      <trkpt lat="45.8254" lon="4.21865">
        <ele>488.695</ele>
        <time>2019-01-07T14:44:59Z</time>
      </trkpt>
      <trkpt lat="45.82547" lon="4.21868">
        <ele>489.336</ele>
        <time>2019-01-07T14:45:05Z</time>
      </trkpt>
      <trkpt lat="45.82553" lon="4.21871">
        <ele>489.698</ele>
        <time>2019-01-07T14:45:10Z</time>
      </trkpt>
      <trkpt lat="45.82557" lon="4.21875">
        <ele>490.318</ele>
        <time>2019-01-07T14:45:15Z</time>
      </trkpt>
      <trkpt lat="45.82566" lon="4.21878">
        <ele>490.664</ele>
        <time>2019-01-07T14:45:21Z</time>
      </trkpt>
      <trkpt lat="45.82572" lon="4.21882">
        <ele>490.984</ele>
        <time>2019-01-07T14:45:27Z</time>
      </trkpt>
      <trkpt lat="45.82579" lon="4.21884">
        <ele>491.534</ele>
        <time>2019-01-07T14:45:33Z</time>
      </trkpt>
      <trkpt lat="45.82585" lon="4.21888">
        <ele>491.608</ele>
        <time>2019-01-07T14:45:38Z</time>
      </trkpt>
      <trkpt lat="45.8259" lon="4.2189">
        <ele>492.302</ele>
        <time>2019-01-07T14:45:44Z</time>
      </trkpt>
      <trkpt lat="45.82597" lon="4.21894">
        <ele>492.793</ele>
        <time>2019-01-07T14:45:49Z</time>
      </trkpt>
      <trkpt lat="45.82603" lon="4.21898">
        <ele>493.201</ele>
        <time>2019-01-07T14:45:55Z</time>
      </trkpt>
      <trkpt lat="45.8261" lon="4.21903">
        <ele>493.585</ele>
        <time>2019-01-07T14:46:01Z</time>
      </trkpt>
      <trkpt lat="45.82617" lon="4.21909">
        <ele>494.095</ele>
        <time>2019-01-07T14:46:07Z</time>
      </trkpt>
      <trkpt lat="45.82623" lon="4.21914">
        <ele>494.425</ele>
        <time>2019-01-07T14:46:12Z</time>
      </trkpt>
      <trkpt lat="45.82628" lon="4.2192">
        <ele>494.649</ele>
        <time>2019-01-07T14:46:17Z</time>
      </trkpt>
      <trkpt lat="45.82632" lon="4.21927">
        <ele>495.153</ele>
        <time>2019-01-07T14:46:23Z</time>
      </trkpt>
      <trkpt lat="45.82636" lon="4.21935">
        <ele>495.401</ele>
        <time>2019-01-07T14:46:29Z</time>
      </trkpt>
      <trkpt lat="45.8264" lon="4.21941">
        <ele>495.588</ele>
        <time>2019-01-07T14:46:34Z</time>
      </trkpt>
      <trkpt lat="45.82644" lon="4.21946">
        <ele>495.993</ele>
        <time>2019-01-07T14:46:40Z</time>
      </trkpt>
      <trkpt lat="45.82651" lon="4.21951">
        <ele>496.365</ele>
        <time>2019-01-07T14:46:46Z</time>
      </trkpt>
      <trkpt lat="45.82655" lon="4.21956">
        <ele>496.892</ele>
        <time>2019-01-07T14:46:51Z</time>
      </trkpt>
      <trkpt lat="45.82658" lon="4.21963">
        <ele>497.277</ele>
        <time>2019-01-07T14:46:57Z</time>
      </trkpt>
      <trkpt lat="45.8266" lon="4.21968">
        <ele>497.558</ele>
        <time>2019-01-07T14:47:03Z</time>
      </trkpt>
      <trkpt lat="45.8266" lon="4.21967">
        <ele>497.81</ele>
        <time>2019-01-07T14:47:08Z</time>
      </trkpt>
      <trkpt lat="45.8266" lon="4.21968">
        <ele>498.021</ele>
        <time>2019-01-07T14:47:14Z</time>
      </trkpt>
      <trkpt lat="45.82661" lon="4.21967">
        <ele>497.814</ele>
        <time>2019-01-07T14:47:19Z</time>
      </trkpt>
      <trkpt lat="45.82661" lon="4.21967">
        <ele>497.731</ele>
        <time>2019-01-07T14:47:25Z</time>
      </trkpt>
      <trkpt lat="45.82661" lon="4.21966">
        <ele>497.899</ele>
        <time>2019-01-07T14:47:30Z</time>
      </trkpt>
      <trkpt lat="45.8266" lon="4.21966">
        <ele>497.987</ele>
        <time>2019-01-07T14:47:35Z</time>
      </trkpt>
      <trkpt lat="45.8266" lon="4.21964">
        <ele>498.43</ele>
        <time>2019-01-07T14:47:41Z</time>
      </trkpt>
      <trkpt lat="45.82659" lon="4.21964">
        <ele>498.77</ele>
        <time>2019-01-07T14:47:47Z</time>
      </trkpt>
      <trkpt lat="45.8266" lon="4.21963">
        <ele>499.195</ele>
        <time>2019-01-07T14:47:53Z</time>
      </trkpt>
      <trkpt lat="45.8266" lon="4.21963">
        <ele>499.446</ele>
        <time>2019-01-07T14:47:59Z</time>
      </trkpt>
      <trkpt lat="45.8266" lon="4.21965">
        <ele>500.116</ele>
        <time>2019-01-07T14:48:05Z</time>
      </trkpt>
      <trkpt lat="45.82658" lon="4.21966">
        <ele>500.505</ele>
        <time>2019-01-07T14:48:11Z</time>
      </trkpt>
      <trkpt lat="45.82658" lon="4.21966">
        <ele>501.134</ele>
        <time>2019-01-07T14:48:16Z</time>
      </trkpt>
      <trkpt lat="45.82658" lon="4.21965">
        <ele>501.337</ele>
        <time>2019-01-07T14:48:22Z</time>
      </trkpt>
      <trkpt lat="45.8266" lon="4.21965">
        <ele>501.492</ele>
        <time>2019-01-07T14:48:28Z</time>
      </trkpt>
      <trkpt lat="45.82664" lon="4.21966">
        <ele>501.895</ele>
        <time>2019-01-07T14:48:34Z</time>
      </trkpt>
      <trkpt lat="45.82664" lon="4.21967">
        <ele>502.006</ele>
        <time>2019-01-07T14:48:40Z</time>
      </trkpt>
      <trkpt lat="45.82665" lon="4.21969">
        <ele>501.82</ele>
        <time>2019-01-07T14:48:45Z</time>
      </trkpt>
      <trkpt lat="45.82669" lon="4.21976">
        <ele>501.603</ele>
        <time>2019-01-07T14:48:51Z</time>
      </trkpt>
      <trkpt lat="45.82673" lon="4.21981">
        <ele>501.417</ele>
        <time>2019-01-07T14:48:57Z</time>
      </trkpt>
      <trkpt lat="45.8268" lon="4.21988">
        <ele>501.011</ele>
        <time>2019-01-07T14:49:03Z</time>
      </trkpt>
      <trkpt lat="45.82682" lon="4.2199">
        <ele>500.91</ele>
        <time>2019-01-07T14:49:08Z</time>
      </trkpt>
      <trkpt lat="45.82688" lon="4.21995">
        <ele>500.967</ele>
        <time>2019-01-07T14:49:13Z</time>
      </trkpt>
      <trkpt lat="45.82692" lon="4.21999">
        <ele>500.955</ele>
        <time>2019-01-07T14:49:19Z</time>
      </trkpt>
      <trkpt lat="45.82695" lon="4.22004">
        <ele>500.671</ele>
        <time>2019-01-07T14:49:24Z</time>
      </trkpt>
      <trkpt lat="45.82702" lon="4.22011">
        <ele>500.671</ele>
        <time>2019-01-07T14:49:30Z</time>
      </trkpt>
      <trkpt lat="45.82707" lon="4.22016">
        <ele>500.59</ele>
        <time>2019-01-07T14:49:36Z</time>
      </trkpt>
      <trkpt lat="45.82711" lon="4.22021">
        <ele>500.466</ele>
        <time>2019-01-07T14:49:41Z</time>
      </trkpt>
      <trkpt lat="45.82716" lon="4.22026">
        <ele>500.537</ele>
        <time>2019-01-07T14:49:47Z</time>
      </trkpt>
      <trkpt lat="45.82722" lon="4.2203">
        <ele>500.588</ele>
        <time>2019-01-07T14:49:52Z</time>
      </trkpt>
      <trkpt lat="45.82728" lon="4.22039">
        <ele>500.602</ele>
        <time>2019-01-07T14:49:58Z</time>
      </trkpt>
      <trkpt lat="45.82733" lon="4.22047">
        <ele>500.252</ele>
        <time>2019-01-07T14:50:04Z</time>
      </trkpt>
      <trkpt lat="45.82738" lon="4.22054">
        <ele>500.147</ele>
        <time>2019-01-07T14:50:10Z</time>
      </trkpt>
      <trkpt lat="45.82742" lon="4.22058">
        <ele>499.948</ele>
        <time>2019-01-07T14:50:15Z</time>
      </trkpt>
      <trkpt lat="45.82746" lon="4.22065">
        <ele>499.871</ele>
        <time>2019-01-07T14:50:20Z</time>
      </trkpt>
      <trkpt lat="45.82751" lon="4.22068">
        <ele>499.813</ele>
        <time>2019-01-07T14:50:25Z</time>
      </trkpt>
      <trkpt lat="45.82756" lon="4.22072">
        <ele>499.993</ele>
        <time>2019-01-07T14:50:31Z</time>
      </trkpt>
      <trkpt lat="45.82761" lon="4.22079">
        <ele>500.025</ele>
        <time>2019-01-07T14:50:36Z</time>
      </trkpt>
      <trkpt lat="45.82768" lon="4.22086">
        <ele>499.993</ele>
        <time>2019-01-07T14:50:42Z</time>
      </trkpt>
      <trkpt lat="45.82772" lon="4.22092">
        <ele>500.024</ele>
        <time>2019-01-07T14:50:47Z</time>
      </trkpt>
      <trkpt lat="45.82779" lon="4.22099">
        <ele>500.266</ele>
        <time>2019-01-07T14:50:53Z</time>
      </trkpt>
      <trkpt lat="45.82786" lon="4.22106">
        <ele>500.156</ele>
        <time>2019-01-07T14:50:59Z</time>
      </trkpt>
      <trkpt lat="45.8279" lon="4.2211">
        <ele>500.215</ele>
        <time>2019-01-07T14:51:04Z</time>
      </trkpt>
      <trkpt lat="45.82796" lon="4.22115">
        <ele>500.17</ele>
        <time>2019-01-07T14:51:09Z</time>
      </trkpt>
      <trkpt lat="45.82802" lon="4.22122">
        <ele>500.648</ele>
        <time>2019-01-07T14:51:15Z</time>
      </trkpt>
      <trkpt lat="45.82807" lon="4.22128">
        <ele>500.951</ele>
        <time>2019-01-07T14:51:20Z</time>
      </trkpt>
      <trkpt lat="45.82811" lon="4.22133">
        <ele>500.987</ele>
        <time>2019-01-07T14:51:25Z</time>
      </trkpt>
      <trkpt lat="45.82816" lon="4.22139">
        <ele>501.059</ele>
        <time>2019-01-07T14:51:31Z</time>
      </trkpt>
      <trkpt lat="45.82821" lon="4.22145">
        <ele>501.36</ele>
        <time>2019-01-07T14:51:36Z</time>
      </trkpt>
      <trkpt lat="45.82826" lon="4.2215">
        <ele>501.838</ele>
        <time>2019-01-07T14:51:42Z</time>
      </trkpt>
      <trkpt lat="45.8283" lon="4.22154">
        <ele>502.207</ele>
        <time>2019-01-07T14:51:47Z</time>
      </trkpt>
      <trkpt lat="45.82834" lon="4.2216">
        <ele>502.568</ele>
        <time>2019-01-07T14:51:52Z</time>
      </trkpt>
      <trkpt lat="45.8284" lon="4.22166">
        <ele>503.207</ele>
        <time>2019-01-07T14:51:58Z</time>
      </trkpt>
      <trkpt lat="45.82846" lon="4.22172">
        <ele>503.644</ele>
        <time>2019-01-07T14:52:03Z</time>
      </trkpt>
      <trkpt lat="45.82851" lon="4.22176">
        <ele>503.957</ele>
        <time>2019-01-07T14:52:08Z</time>
      </trkpt>
      <trkpt lat="45.82857" lon="4.22181">
        <ele>504.535</ele>
        <time>2019-01-07T14:52:14Z</time>
      </trkpt>
      <trkpt lat="45.82864" lon="4.22188">
        <ele>505.102</ele>
        <time>2019-01-07T14:52:20Z</time>
      </trkpt>
      <trkpt lat="45.82868" lon="4.22195">
        <ele>505.759</ele>
        <time>2019-01-07T14:52:26Z</time>
      </trkpt>
      <trkpt lat="45.82874" lon="4.222">
        <ele>506.343</ele>
        <time>2019-01-07T14:52:32Z</time>
      </trkpt>
      <trkpt lat="45.82879" lon="4.22204">
        <ele>506.875</ele>
        <time>2019-01-07T14:52:37Z</time>
      </trkpt>
      <trkpt lat="45.82885" lon="4.2221">
        <ele>507.514</ele>
        <time>2019-01-07T14:52:42Z</time>
      </trkpt>
      <trkpt lat="45.82891" lon="4.22218">
        <ele>508.301</ele>
        <time>2019-01-07T14:52:48Z</time>
      </trkpt>
      <trkpt lat="45.82898" lon="4.22224">
        <ele>509.043</ele>
        <time>2019-01-07T14:52:54Z</time>
      </trkpt>
      <trkpt lat="45.82904" lon="4.2223">
        <ele>509.619</ele>
        <time>2019-01-07T14:52:59Z</time>
      </trkpt>
      <trkpt lat="45.82908" lon="4.22235">
        <ele>510.132</ele>
        <time>2019-01-07T14:53:04Z</time>
      </trkpt>
      <trkpt lat="45.82914" lon="4.22242">
        <ele>510.822</ele>
        <time>2019-01-07T14:53:10Z</time>
      </trkpt>
      <trkpt lat="45.82918" lon="4.22248">
        <ele>511.554</ele>
        <time>2019-01-07T14:53:15Z</time>
      </trkpt>
      <trkpt lat="45.82921" lon="4.22253">
        <ele>511.828</ele>
        <time>2019-01-07T14:53:20Z</time>
      </trkpt>
      <trkpt lat="45.82923" lon="4.2225">
        <ele>512.488</ele>
        <time>2019-01-07T14:53:26Z</time>
      </trkpt>
      <trkpt lat="45.82924" lon="4.22251">
        <ele>513.013</ele>
        <time>2019-01-07T14:53:31Z</time>
      </trkpt>
      <trkpt lat="45.82925" lon="4.22251">
        <ele>513.332</ele>
        <time>2019-01-07T14:53:36Z</time>
      </trkpt>
      <trkpt lat="45.82925" lon="4.22252">
        <ele>513.444</ele>
        <time>2019-01-07T14:53:42Z</time>
      </trkpt>
      <trkpt lat="45.82924" lon="4.22252">
        <ele>513.481</ele>
        <time>2019-01-07T14:53:47Z</time>
      </trkpt>
      <trkpt lat="45.82922" lon="4.22253">
        <ele>513.529</ele>
        <time>2019-01-07T14:53:53Z</time>
      </trkpt>
      <trkpt lat="45.82922" lon="4.22253">
        <ele>513.596</ele>
        <time>2019-01-07T14:53:58Z</time>
      </trkpt>
      <trkpt lat="45.82923" lon="4.22252">
        <ele>513.894</ele>
        <time>2019-01-07T14:54:03Z</time>
      </trkpt>
      <trkpt lat="45.82925" lon="4.22253">
        <ele>514.569</ele>
        <time>2019-01-07T14:54:09Z</time>
      </trkpt>
      <trkpt lat="45.82924" lon="4.22253">
        <ele>514.884</ele>
        <time>2019-01-07T14:54:14Z</time>
      </trkpt>
      <trkpt lat="45.82922" lon="4.22253">
        <ele>514.879</ele>
        <time>2019-01-07T14:54:20Z</time>
      </trkpt>
      <trkpt lat="45.82919" lon="4.22253">
        <ele>515.108</ele>
        <time>2019-01-07T14:54:26Z</time>
      </trkpt>
      <trkpt lat="45.82919" lon="4.22254">
        <ele>515.059</ele>
        <time>2019-01-07T14:54:32Z</time>
      </trkpt>
      <trkpt lat="45.82921" lon="4.22254">
        <ele>515.16</ele>
        <time>2019-01-07T14:54:38Z</time>
      </trkpt>
      <trkpt lat="45.82921" lon="4.22255">
        <ele>515.155</ele>
        <time>2019-01-07T14:54:44Z</time>
      </trkpt>
      <trkpt lat="45.82922" lon="4.22253">
        <ele>515.263</ele>
        <time>2019-01-07T14:54:49Z</time>
      </trkpt>
      <trkpt lat="45.82922" lon="4.22252">
        <ele>515.275</ele>
        <time>2019-01-07T14:54:54Z</time>
      </trkpt>
      <trkpt lat="45.82922" lon="4.22251">
        <ele>515.367</ele>
        <time>2019-01-07T14:55:00Z</time>
      </trkpt>
      <trkpt lat="45.82923" lon="4.2225">
        <ele>515.538</ele>
        <time>2019-01-07T14:55:05Z</time>
      </trkpt>
      <trkpt lat="45.82921" lon="4.22252">
        <ele>515.495</ele>
        <time>2019-01-07T14:55:11Z</time>
      </trkpt>
      <trkpt lat="45.82918" lon="4.22254">
        <ele>515.317</ele>
        <time>2019-01-07T14:55:17Z</time>
      </trkpt>
      <trkpt lat="45.82916" lon="4.22253">
        <ele>515.308</ele>
        <time>2019-01-07T14:55:23Z</time>
      </trkpt>
      <trkpt lat="45.82915" lon="4.22253">
        <ele>515.271</ele>
        <time>2019-01-07T14:55:29Z</time>
      </trkpt>
      <trkpt lat="45.82917" lon="4.22252">
        <ele>515.277</ele>
        <time>2019-01-07T14:55:35Z</time>
      </trkpt>
      <trkpt lat="45.82918" lon="4.2225">
        <ele>515.292</ele>
        <time>2019-01-07T14:55:40Z</time>
      </trkpt>
      <trkpt lat="45.82919" lon="4.2225">
        <ele>515.324</ele>
        <time>2019-01-07T14:55:45Z</time>
      </trkpt>
      <trkpt lat="45.82921" lon="4.2225">
        <ele>515.618</ele>
        <time>2019-01-07T14:55:51Z</time>
      </trkpt>
      <trkpt lat="45.82921" lon="4.22251">
        <ele>515.697</ele>
        <time>2019-01-07T14:55:57Z</time>
      </trkpt>
      <trkpt lat="45.82921" lon="4.22252">
        <ele>515.757</ele>
        <time>2019-01-07T14:56:02Z</time>
      </trkpt>
      <trkpt lat="45.82922" lon="4.22253">
        <ele>516.541</ele>
        <time>2019-01-07T14:56:08Z</time>
      </trkpt>
      <trkpt lat="45.8292" lon="4.22252">
        <ele>517.213</ele>
        <time>2019-01-07T14:56:14Z</time>
      </trkpt>
      <trkpt lat="45.82921" lon="4.22252">
        <ele>517.411</ele>
        <time>2019-01-07T14:56:19Z</time>
      </trkpt>
      <trkpt lat="45.82921" lon="4.22252">
        <ele>517.41</ele>
        <time>2019-01-07T14:56:24Z</time>
      </trkpt>
      <trkpt lat="45.82921" lon="4.22251">
        <ele>517.39</ele>
        <time>2019-01-07T14:56:29Z</time>
      </trkpt>
      <trkpt lat="45.8292" lon="4.22247">
        <ele>517.385</ele>
        <time>2019-01-07T14:56:35Z</time>
      </trkpt>
      <trkpt lat="45.82921" lon="4.22245">
        <ele>517.481</ele>
        <time>2019-01-07T14:56:40Z</time>
      </trkpt>
      <trkpt lat="45.82922" lon="4.22247">
        <ele>517.613</ele>
        <time>2019-01-07T14:56:46Z</time>
      </trkpt>
      <trkpt lat="45.82923" lon="4.22247">
        <ele>517.473</ele>
        <time>2019-01-07T14:56:52Z</time>
      </trkpt>
      <trkpt lat="45.82922" lon="4.2225">
        <ele>517.172</ele>
        <time>2019-01-07T14:56:57Z</time>
      </trkpt>
      <trkpt lat="45.82922" lon="4.22251">
        <ele>517.131</ele>
        <time>2019-01-07T14:57:03Z</time>
      </trkpt>
      <trkpt lat="45.82922" lon="4.22252">
        <ele>517.11</ele>
        <time>2019-01-07T14:57:08Z</time>
      </trkpt>
      <trkpt lat="45.82922" lon="4.22252">
        <ele>517.284</ele>
        <time>2019-01-07T14:57:13Z</time>
      </trkpt>
      <trkpt lat="45.82923" lon="4.22252">
        <ele>517.427</ele>
        <time>2019-01-07T14:57:19Z</time>
      </trkpt>
      <trkpt lat="45.82923" lon="4.22253">
        <ele>517.463</ele>
        <time>2019-01-07T14:57:24Z</time>
      </trkpt>
      <trkpt lat="45.82923" lon="4.22252">
        <ele>517.411</ele>
        <time>2019-01-07T14:57:30Z</time>
      </trkpt>
      <trkpt lat="45.82921" lon="4.2225">
        <ele>517.55</ele>
        <time>2019-01-07T14:57:36Z</time>
      </trkpt>
      <trkpt lat="45.82922" lon="4.22251">
        <ele>517.42</ele>
        <time>2019-01-07T14:57:41Z</time>
      </trkpt>
      <trkpt lat="45.82922" lon="4.2225">
        <ele>517.331</ele>
        <time>2019-01-07T14:57:46Z</time>
      </trkpt>
      <trkpt lat="45.82923" lon="4.22251">
        <ele>517.319</ele>
        <time>2019-01-07T14:57:52Z</time>
      </trkpt>
      <trkpt lat="45.82924" lon="4.2225">
        <ele>517.294</ele>
        <time>2019-01-07T14:57:58Z</time>
      </trkpt>
      <trkpt lat="45.82924" lon="4.22251">
        <ele>517.215</ele>
        <time>2019-01-07T14:58:03Z</time>
      </trkpt>
      <trkpt lat="45.82922" lon="4.22253">
        <ele>517.435</ele>
        <time>2019-01-07T14:58:09Z</time>
      </trkpt>
      <trkpt lat="45.82922" lon="4.22254">
        <ele>517.206</ele>
        <time>2019-01-07T14:58:14Z</time>
      </trkpt>
      <trkpt lat="45.82921" lon="4.22255">
        <ele>517.199</ele>
        <time>2019-01-07T14:58:20Z</time>
      </trkpt>
      <trkpt lat="45.82922" lon="4.22256">
        <ele>517.68</ele>
        <time>2019-01-07T14:58:26Z</time>
      </trkpt>
      <trkpt lat="45.82922" lon="4.22256">
        <ele>517.728</ele>
        <time>2019-01-07T14:58:31Z</time>
      </trkpt>
      <trkpt lat="45.82922" lon="4.22255">
        <ele>517.901</ele>
        <time>2019-01-07T14:58:37Z</time>
      </trkpt>
      <trkpt lat="45.82924" lon="4.22255">
        <ele>518.201</ele>
        <time>2019-01-07T14:58:43Z</time>
      </trkpt>
      <trkpt lat="45.82924" lon="4.22256">
        <ele>518.337</ele>
        <time>2019-01-07T14:58:49Z</time>
      </trkpt>
      <trkpt lat="45.82923" lon="4.22256">
        <ele>518.284</ele>
        <time>2019-01-07T14:58:54Z</time>
      </trkpt>
      <trkpt lat="45.82922" lon="4.22254">
        <ele>518.199</ele>
        <time>2019-01-07T14:59:00Z</time>
      </trkpt>
      <trkpt lat="45.8292" lon="4.22252">
        <ele>518.242</ele>
        <time>2019-01-07T14:59:06Z</time>
      </trkpt>
      <trkpt lat="45.82921" lon="4.2225">
        <ele>518.453</ele>
        <time>2019-01-07T14:59:12Z</time>
      </trkpt>
      <trkpt lat="45.82921" lon="4.22251">
        <ele>518.442</ele>
        <time>2019-01-07T14:59:17Z</time>
      </trkpt>
      <trkpt lat="45.82921" lon="4.22251">
        <ele>518.355</ele>
        <time>2019-01-07T14:59:22Z</time>
      </trkpt>
      <trkpt lat="45.82921" lon="4.22251">
        <ele>518.387</ele>
        <time>2019-01-07T14:59:28Z</time>
      </trkpt>
      <trkpt lat="45.82922" lon="4.2225">
        <ele>518.448</ele>
        <time>2019-01-07T14:59:33Z</time>
      </trkpt>
      <trkpt lat="45.82922" lon="4.2225">
        <ele>518.452</ele>
        <time>2019-01-07T14:59:38Z</time>
      </trkpt>
      <trkpt lat="45.82922" lon="4.22251">
        <ele>518.357</ele>
        <time>2019-01-07T14:59:44Z</time>
      </trkpt>
      <trkpt lat="45.82921" lon="4.22251">
        <ele>518.386</ele>
        <time>2019-01-07T14:59:50Z</time>
      </trkpt>
      <trkpt lat="45.82922" lon="4.22249">
        <ele>518.385</ele>
        <time>2019-01-07T14:59:55Z</time>
      </trkpt>
      <trkpt lat="45.82922" lon="4.2225">
        <ele>518.5</ele>
        <time>2019-01-07T15:00:01Z</time>
      </trkpt>
      <trkpt lat="45.82926" lon="4.22256">
        <ele>518.32</ele>
        <time>2019-01-07T15:00:06Z</time>
      </trkpt>
      <trkpt lat="45.82931" lon="4.22263">
        <ele>518.208</ele>
        <time>2019-01-07T15:00:12Z</time>
      </trkpt>
      <trkpt lat="45.82936" lon="4.22271">
        <ele>518.169</ele>
        <time>2019-01-07T15:00:18Z</time>
      </trkpt>
      <trkpt lat="45.82941" lon="4.22277">
        <ele>518.192</ele>
        <time>2019-01-07T15:00:23Z</time>
      </trkpt>
      <trkpt lat="45.82947" lon="4.22287">
        <ele>518.391</ele>
        <time>2019-01-07T15:00:29Z</time>
      </trkpt>
      <trkpt lat="45.8295" lon="4.22294">
        <ele>518.72</ele>
        <time>2019-01-07T15:00:34Z</time>
      </trkpt>
      <trkpt lat="45.82953" lon="4.22302">
        <ele>519.054</ele>
        <time>2019-01-07T15:00:40Z</time>
      </trkpt>
      <trkpt lat="45.82957" lon="4.22311">
        <ele>518.999</ele>
        <time>2019-01-07T15:00:45Z</time>
      </trkpt>
      <trkpt lat="45.82961" lon="4.2232">
        <ele>518.946</ele>
        <time>2019-01-07T15:00:50Z</time>
      </trkpt>
      <trkpt lat="45.82964" lon="4.22329">
        <ele>519.002</ele>
        <time>2019-01-07T15:00:56Z</time>
      </trkpt>
      <trkpt lat="45.82968" lon="4.22334">
        <ele>519.186</ele>
        <time>2019-01-07T15:01:02Z</time>
      </trkpt>
      <trkpt lat="45.82972" lon="4.22343">
        <ele>519.417</ele>
        <time>2019-01-07T15:01:08Z</time>
      </trkpt>
      <trkpt lat="45.82976" lon="4.2235">
        <ele>519.766</ele>
        <time>2019-01-07T15:01:13Z</time>
      </trkpt>
      <trkpt lat="45.82981" lon="4.22357">
        <ele>519.975</ele>
        <time>2019-01-07T15:01:19Z</time>
      </trkpt>
      <trkpt lat="45.82985" lon="4.22364">
        <ele>520.114</ele>
        <time>2019-01-07T15:01:25Z</time>
      </trkpt>
      <trkpt lat="45.82988" lon="4.22373">
        <ele>520.17</ele>
        <time>2019-01-07T15:01:30Z</time>
      </trkpt>
      <trkpt lat="45.82991" lon="4.2238">
        <ele>520.361</ele>
        <time>2019-01-07T15:01:36Z</time>
      </trkpt>
      <trkpt lat="45.82996" lon="4.22389">
        <ele>520.722</ele>
        <time>2019-01-07T15:01:42Z</time>
      </trkpt>
      <trkpt lat="45.83" lon="4.22398">
        <ele>520.604</ele>
        <time>2019-01-07T15:01:48Z</time>
      </trkpt>
      <trkpt lat="45.83004" lon="4.22405">
        <ele>520.392</ele>
        <time>2019-01-07T15:01:54Z</time>
      </trkpt>
      <trkpt lat="45.83009" lon="4.22413">
        <ele>520.397</ele>
        <time>2019-01-07T15:01:59Z</time>
      </trkpt>
      <trkpt lat="45.83014" lon="4.22422">
        <ele>520.431</ele>
        <time>2019-01-07T15:02:05Z</time>
      </trkpt>
      <trkpt lat="45.83019" lon="4.22431">
        <ele>520.782</ele>
        <time>2019-01-07T15:02:11Z</time>
      </trkpt>
      <trkpt lat="45.83023" lon="4.22443">
        <ele>521.181</ele>
        <time>2019-01-07T15:02:17Z</time>
      </trkpt>
      <trkpt lat="45.83026" lon="4.22452">
        <ele>521.464</ele>
        <time>2019-01-07T15:02:22Z</time>
      </trkpt>
      <trkpt lat="45.83028" lon="4.22462">
        <ele>521.794</ele>
        <time>2019-01-07T15:02:28Z</time>
      </trkpt>
      <trkpt lat="45.83029" lon="4.22477">
        <ele>521.95</ele>
        <time>2019-01-07T15:02:34Z</time>
      </trkpt>
      <trkpt lat="45.83028" lon="4.22485">
        <ele>522.123</ele>
        <time>2019-01-07T15:02:40Z</time>
      </trkpt>
      <trkpt lat="45.83027" lon="4.22496">
        <ele>522.74</ele>
        <time>2019-01-07T15:02:45Z</time>
      </trkpt>
      <trkpt lat="45.83025" lon="4.22509">
        <ele>523.476</ele>
        <time>2019-01-07T15:02:51Z</time>
      </trkpt>
      <trkpt lat="45.83026" lon="4.22517">
        <ele>523.874</ele>
        <time>2019-01-07T15:02:56Z</time>
      </trkpt>
      <trkpt lat="45.83027" lon="4.22527">
        <ele>524.299</ele>
        <time>2019-01-07T15:03:01Z</time>
      </trkpt>
      <trkpt lat="45.83028" lon="4.22538">
        <ele>524.4</ele>
        <time>2019-01-07T15:03:06Z</time>
      </trkpt>
      <trkpt lat="45.83028" lon="4.22551">
        <ele>524.717</ele>
        <time>2019-01-07T15:03:12Z</time>
      </trkpt>
      <trkpt lat="45.83029" lon="4.2256">
        <ele>525.291</ele>
        <time>2019-01-07T15:03:17Z</time>
      </trkpt>
      <trkpt lat="45.83032" lon="4.22572">
        <ele>525.453</ele>
        <time>2019-01-07T15:03:23Z</time>
      </trkpt>
      <trkpt lat="45.83035" lon="4.22581">
        <ele>525.744</ele>
        <time>2019-01-07T15:03:29Z</time>
      </trkpt>
      <trkpt lat="45.83038" lon="4.22592">
        <ele>526.048</ele>
        <time>2019-01-07T15:03:35Z</time>
      </trkpt>
      <trkpt lat="45.83044" lon="4.22599">
        <ele>526.18</ele>
        <time>2019-01-07T15:03:40Z</time>
      </trkpt>
      <trkpt lat="45.83047" lon="4.22604">
        <ele>526.372</ele>
        <time>2019-01-07T15:03:45Z</time>
      </trkpt>
      <trkpt lat="45.83054" lon="4.22614">
        <ele>526.343</ele>
        <time>2019-01-07T15:03:51Z</time>
      </trkpt>
      <trkpt lat="45.83058" lon="4.22623">
        <ele>526.27</ele>
        <time>2019-01-07T15:03:56Z</time>
      </trkpt>
      <trkpt lat="45.83063" lon="4.22632">
        <ele>526.891</ele>
        <time>2019-01-07T15:04:02Z</time>
      </trkpt>
      <trkpt lat="45.83069" lon="4.22638">
        <ele>527.339</ele>
        <time>2019-01-07T15:04:08Z</time>
      </trkpt>
      <trkpt lat="45.83072" lon="4.22645">
        <ele>527.628</ele>
        <time>2019-01-07T15:04:13Z</time>
      </trkpt>
      <trkpt lat="45.83078" lon="4.22655">
        <ele>527.808</ele>
        <time>2019-01-07T15:04:19Z</time>
      </trkpt>
      <trkpt lat="45.8308" lon="4.22663">
        <ele>527.933</ele>
        <time>2019-01-07T15:04:25Z</time>
      </trkpt>
      <trkpt lat="45.83083" lon="4.2267">
        <ele>527.767</ele>
        <time>2019-01-07T15:04:30Z</time>
      </trkpt>
      <trkpt lat="45.83086" lon="4.2268">
        <ele>527.725</ele>
        <time>2019-01-07T15:04:36Z</time>
      </trkpt>
      <trkpt lat="45.83091" lon="4.2269">
        <ele>527.49</ele>
        <time>2019-01-07T15:04:42Z</time>
      </trkpt>
      <trkpt lat="45.83095" lon="4.22699">
        <ele>527.66</ele>
        <time>2019-01-07T15:04:47Z</time>
      </trkpt>
      <trkpt lat="45.83096" lon="4.22706">
        <ele>527.969</ele>
        <time>2019-01-07T15:04:53Z</time>
      </trkpt>
      <trkpt lat="45.83096" lon="4.22715">
        <ele>528.341</ele>
        <time>2019-01-07T15:04:58Z</time>
      </trkpt>
      <trkpt lat="45.83098" lon="4.22725">
        <ele>528.736</ele>
        <time>2019-01-07T15:05:04Z</time>
      </trkpt>
      <trkpt lat="45.831" lon="4.22733">
        <ele>529.37</ele>
        <time>2019-01-07T15:05:10Z</time>
      </trkpt>
      <trkpt lat="45.83101" lon="4.22742">
        <ele>529.761</ele>
        <time>2019-01-07T15:05:15Z</time>
      </trkpt>
      <trkpt lat="45.83101" lon="4.22751">
        <ele>530.016</ele>
        <time>2019-01-07T15:05:21Z</time>
      </trkpt>
      <trkpt lat="45.83104" lon="4.22759">
        <ele>530.608</ele>
        <time>2019-01-07T15:05:26Z</time>
      </trkpt>
      <trkpt lat="45.83106" lon="4.2277">
        <ele>531.41</ele>
        <time>2019-01-07T15:05:32Z</time>
      </trkpt>
      <trkpt lat="45.83107" lon="4.22779">
        <ele>532.257</ele>
        <time>2019-01-07T15:05:37Z</time>
      </trkpt>
      <trkpt lat="45.83108" lon="4.22787">
        <ele>532.937</ele>
        <time>2019-01-07T15:05:42Z</time>
      </trkpt>
      <trkpt lat="45.83109" lon="4.22798">
        <ele>533.8</ele>
        <time>2019-01-07T15:05:48Z</time>
      </trkpt>
      <trkpt lat="45.83109" lon="4.22807">
        <ele>534.348</ele>
        <time>2019-01-07T15:05:54Z</time>
      </trkpt>
      <trkpt lat="45.83111" lon="4.22819">
        <ele>535.383</ele>
        <time>2019-01-07T15:06:00Z</time>
      </trkpt>
      <trkpt lat="45.83113" lon="4.22828">
        <ele>535.955</ele>
        <time>2019-01-07T15:06:05Z</time>
      </trkpt>
      <trkpt lat="45.83116" lon="4.22837">
        <ele>536.451</ele>
        <time>2019-01-07T15:06:10Z</time>
      </trkpt>
      <trkpt lat="45.83118" lon="4.22844">
        <ele>536.632</ele>
        <time>2019-01-07T15:06:15Z</time>
      </trkpt>
      <trkpt lat="45.83122" lon="4.22851">
        <ele>536.992</ele>
        <time>2019-01-07T15:06:21Z</time>
      </trkpt>
      <trkpt lat="45.83126" lon="4.22857">
        <ele>537.393</ele>
        <time>2019-01-07T15:06:26Z</time>
      </trkpt>
      <trkpt lat="45.83131" lon="4.22866">
        <ele>537.586</ele>
        <time>2019-01-07T15:06:31Z</time>
      </trkpt>
      <trkpt lat="45.83136" lon="4.22873">
        <ele>538.078</ele>
        <time>2019-01-07T15:06:37Z</time>
      </trkpt>
      <trkpt lat="45.83143" lon="4.22883">
        <ele>538.885</ele>
        <time>2019-01-07T15:06:43Z</time>
      </trkpt>
      <trkpt lat="45.83149" lon="4.22889">
        <ele>539.421</ele>
        <time>2019-01-07T15:06:49Z</time>
      </trkpt>
      <trkpt lat="45.83153" lon="4.22897">
        <ele>539.658</ele>
        <time>2019-01-07T15:06:54Z</time>
      </trkpt>
      <trkpt lat="45.83156" lon="4.22901">
        <ele>539.805</ele>
        <time>2019-01-07T15:06:59Z</time>
      </trkpt>
      <trkpt lat="45.8316" lon="4.22907">
        <ele>539.494</ele>
        <time>2019-01-07T15:07:05Z</time>
      </trkpt>
      <trkpt lat="45.83167" lon="4.22915">
        <ele>539.175</ele>
        <time>2019-01-07T15:07:11Z</time>
      </trkpt>
      <trkpt lat="45.83173" lon="4.22921">
        <ele>538.441</ele>
        <time>2019-01-07T15:07:17Z</time>
      </trkpt>
      <trkpt lat="45.8318" lon="4.22929">
        <ele>538</ele>
        <time>2019-01-07T15:07:23Z</time>
      </trkpt>
      <trkpt lat="45.83186" lon="4.22932">
        <ele>538.316</ele>
        <time>2019-01-07T15:07:28Z</time>
      </trkpt>
      <trkpt lat="45.83191" lon="4.22937">
        <ele>538.688</ele>
        <time>2019-01-07T15:07:34Z</time>
      </trkpt>
      <trkpt lat="45.83196" lon="4.22942">
        <ele>538.743</ele>
        <time>2019-01-07T15:07:40Z</time>
      </trkpt>
      <trkpt lat="45.83205" lon="4.22948">
        <ele>539.652</ele>
        <time>2019-01-07T15:07:45Z</time>
      </trkpt>
      <trkpt lat="45.8321" lon="4.22952">
        <ele>540.798</ele>
        <time>2019-01-07T15:07:50Z</time>
      </trkpt>
      <trkpt lat="45.83217" lon="4.22958">
        <ele>541.877</ele>
        <time>2019-01-07T15:07:56Z</time>
      </trkpt>
      <trkpt lat="45.83223" lon="4.22966">
        <ele>543.312</ele>
        <time>2019-01-07T15:08:02Z</time>
      </trkpt>
      <trkpt lat="45.83227" lon="4.22972">
        <ele>544.555</ele>
        <time>2019-01-07T15:08:07Z</time>
      </trkpt>
      <trkpt lat="45.83231" lon="4.22981">
        <ele>545.594</ele>
        <time>2019-01-07T15:08:12Z</time>
      </trkpt>
      <trkpt lat="45.83236" lon="4.22988">
        <ele>546.42</ele>
        <time>2019-01-07T15:08:18Z</time>
      </trkpt>
      <trkpt lat="45.8324" lon="4.22996">
        <ele>547.122</ele>
        <time>2019-01-07T15:08:23Z</time>
      </trkpt>
      <trkpt lat="45.83244" lon="4.23003">
        <ele>547.651</ele>
        <time>2019-01-07T15:08:29Z</time>
      </trkpt>
      <trkpt lat="45.83249" lon="4.23012">
        <ele>548.242</ele>
        <time>2019-01-07T15:08:35Z</time>
      </trkpt>
      <trkpt lat="45.83254" lon="4.23019">
        <ele>548.885</ele>
        <time>2019-01-07T15:08:40Z</time>
      </trkpt>
      <trkpt lat="45.83258" lon="4.23026">
        <ele>549.599</ele>
        <time>2019-01-07T15:08:45Z</time>
      </trkpt>
      <trkpt lat="45.83263" lon="4.23031">
        <ele>550.148</ele>
        <time>2019-01-07T15:08:51Z</time>
      </trkpt>
      <trkpt lat="45.83269" lon="4.23037">
        <ele>550.716</ele>
        <time>2019-01-07T15:08:56Z</time>
      </trkpt>
      <trkpt lat="45.83273" lon="4.23043">
        <ele>551.144</ele>
        <time>2019-01-07T15:09:01Z</time>
      </trkpt>
      <trkpt lat="45.83278" lon="4.23049">
        <ele>551.594</ele>
        <time>2019-01-07T15:09:07Z</time>
      </trkpt>
      <trkpt lat="45.83282" lon="4.23053">
        <ele>551.7</ele>
        <time>2019-01-07T15:09:12Z</time>
      </trkpt>
      <trkpt lat="45.83289" lon="4.23057">
        <ele>552.342</ele>
        <time>2019-01-07T15:09:17Z</time>
      </trkpt>
      <trkpt lat="45.83296" lon="4.23064">
        <ele>553.353</ele>
        <time>2019-01-07T15:09:23Z</time>
      </trkpt>
      <trkpt lat="45.83301" lon="4.23069">
        <ele>553.998</ele>
        <time>2019-01-07T15:09:29Z</time>
      </trkpt>
      <trkpt lat="45.83305" lon="4.23072">
        <ele>554.311</ele>
        <time>2019-01-07T15:09:34Z</time>
      </trkpt>
      <trkpt lat="45.83311" lon="4.23081">
        <ele>554.926</ele>
        <time>2019-01-07T15:09:40Z</time>
      </trkpt>
      <trkpt lat="45.83316" lon="4.23088">
        <ele>555.522</ele>
        <time>2019-01-07T15:09:45Z</time>
      </trkpt>
      <trkpt lat="45.8332" lon="4.23092">
        <ele>556.242</ele>
        <time>2019-01-07T15:09:50Z</time>
      </trkpt>
      <trkpt lat="45.83325" lon="4.23098">
        <ele>556.883</ele>
        <time>2019-01-07T15:09:55Z</time>
      </trkpt>
      <trkpt lat="45.83328" lon="4.23103">
        <ele>557.508</ele>
        <time>2019-01-07T15:10:00Z</time>
      </trkpt>
      <trkpt lat="45.83334" lon="4.23112">
        <ele>558.487</ele>
        <time>2019-01-07T15:10:06Z</time>
      </trkpt>
      <trkpt lat="45.83339" lon="4.23118">
        <ele>559.456</ele>
        <time>2019-01-07T15:10:11Z</time>
      </trkpt>
      <trkpt lat="45.83344" lon="4.23125">
        <ele>560.193</ele>
        <time>2019-01-07T15:10:16Z</time>
      </trkpt>
      <trkpt lat="45.8335" lon="4.23132">
        <ele>560.718</ele>
        <time>2019-01-07T15:10:22Z</time>
      </trkpt>
      <trkpt lat="45.83353" lon="4.23139">
        <ele>561.203</ele>
        <time>2019-01-07T15:10:27Z</time>
      </trkpt>
      <trkpt lat="45.83357" lon="4.23148">
        <ele>561.5</ele>
        <time>2019-01-07T15:10:32Z</time>
      </trkpt>
      <trkpt lat="45.83362" lon="4.23156">
        <ele>561.381</ele>
        <time>2019-01-07T15:10:38Z</time>
      </trkpt>
      <trkpt lat="45.83366" lon="4.23163">
        <ele>561.347</ele>
        <time>2019-01-07T15:10:43Z</time>
      </trkpt>
      <trkpt lat="45.8337" lon="4.23171">
        <ele>561.621</ele>
        <time>2019-01-07T15:10:48Z</time>
      </trkpt>
      <trkpt lat="45.83375" lon="4.2318">
        <ele>562.014</ele>
        <time>2019-01-07T15:10:54Z</time>
      </trkpt>
      <trkpt lat="45.83379" lon="4.23185">
        <ele>562.432</ele>
        <time>2019-01-07T15:10:59Z</time>
      </trkpt>
      <trkpt lat="45.83383" lon="4.2319">
        <ele>562.953</ele>
        <time>2019-01-07T15:11:04Z</time>
      </trkpt>
      <trkpt lat="45.83385" lon="4.23193">
        <ele>563.282</ele>
        <time>2019-01-07T15:11:10Z</time>
      </trkpt>
      <trkpt lat="45.83387" lon="4.23195">
        <ele>563.592</ele>
        <time>2019-01-07T15:11:15Z</time>
      </trkpt>
      <trkpt lat="45.83387" lon="4.23197">
        <ele>563.719</ele>
        <time>2019-01-07T15:11:20Z</time>
      </trkpt>
      <trkpt lat="45.83386" lon="4.23195">
        <ele>564.023</ele>
        <time>2019-01-07T15:11:26Z</time>
      </trkpt>
      <trkpt lat="45.83385" lon="4.23195">
        <ele>564.203</ele>
        <time>2019-01-07T15:11:31Z</time>
      </trkpt>
      <trkpt lat="45.83385" lon="4.23194">
        <ele>564.239</ele>
        <time>2019-01-07T15:11:36Z</time>
      </trkpt>
      <trkpt lat="45.83385" lon="4.23192">
        <ele>564.139</ele>
        <time>2019-01-07T15:11:42Z</time>
      </trkpt>
      <trkpt lat="45.83383" lon="4.23192">
        <ele>563.995</ele>
        <time>2019-01-07T15:11:47Z</time>
      </trkpt>
      <trkpt lat="45.83382" lon="4.23191">
        <ele>563.875</ele>
        <time>2019-01-07T15:11:53Z</time>
      </trkpt>
      <trkpt lat="45.83382" lon="4.23191">
        <ele>563.04</ele>
        <time>2019-01-07T15:11:59Z</time>
      </trkpt>
      <trkpt lat="45.83382" lon="4.23192">
        <ele>562.605</ele>
        <time>2019-01-07T15:12:05Z</time>
      </trkpt>
      <trkpt lat="45.83381" lon="4.23193">
        <ele>562.88</ele>
        <time>2019-01-07T15:12:11Z</time>
      </trkpt>
      <trkpt lat="45.83381" lon="4.23192">
        <ele>563.158</ele>
        <time>2019-01-07T15:12:17Z</time>
      </trkpt>
      <trkpt lat="45.83381" lon="4.23193">
        <ele>563.12</ele>
        <time>2019-01-07T15:12:22Z</time>
      </trkpt>
      <trkpt lat="45.83381" lon="4.23193">
        <ele>562.63</ele>
        <time>2019-01-07T15:12:27Z</time>
      </trkpt>
      <trkpt lat="45.83381" lon="4.23193">
        <ele>562.64</ele>
        <time>2019-01-07T15:12:33Z</time>
      </trkpt>
      <trkpt lat="45.83381" lon="4.23192">
        <ele>562.52</ele>
        <time>2019-01-07T15:12:38Z</time>
      </trkpt>
      <trkpt lat="45.83381" lon="4.23191">
        <ele>562.431</ele>
        <time>2019-01-07T15:12:43Z</time>
      </trkpt>
      <trkpt lat="45.83382" lon="4.23189">
        <ele>562.837</ele>
        <time>2019-01-07T15:12:49Z</time>
      </trkpt>
      <trkpt lat="45.83382" lon="4.2319">
        <ele>562.748</ele>
        <time>2019-01-07T15:12:55Z</time>
      </trkpt>
      <trkpt lat="45.83383" lon="4.23191">
        <ele>563.137</ele>
        <time>2019-01-07T15:13:00Z</time>
      </trkpt>
      <trkpt lat="45.83382" lon="4.23192">
        <ele>563.572</ele>
        <time>2019-01-07T15:13:06Z</time>
      </trkpt>
      <trkpt lat="45.83382" lon="4.2319">
        <ele>563.801</ele>
        <time>2019-01-07T15:13:11Z</time>
      </trkpt>
      <trkpt lat="45.83381" lon="4.23188">
        <ele>564.006</ele>
        <time>2019-01-07T15:13:16Z</time>
      </trkpt>
      <trkpt lat="45.8338" lon="4.23188">
        <ele>564.121</ele>
        <time>2019-01-07T15:13:22Z</time>
      </trkpt>
      <trkpt lat="45.8338" lon="4.23187">
        <ele>563.539</ele>
        <time>2019-01-07T15:13:27Z</time>
      </trkpt>
      <trkpt lat="45.8338" lon="4.23188">
        <ele>563.186</ele>
        <time>2019-01-07T15:13:33Z</time>
      </trkpt>
      <trkpt lat="45.8338" lon="4.23191">
        <ele>563.09</ele>
        <time>2019-01-07T15:13:38Z</time>
      </trkpt>
      <trkpt lat="45.8338" lon="4.23192">
        <ele>563.344</ele>
        <time>2019-01-07T15:13:44Z</time>
      </trkpt>
      <trkpt lat="45.83382" lon="4.23192">
        <ele>563.467</ele>
        <time>2019-01-07T15:13:50Z</time>
      </trkpt>
      <trkpt lat="45.83383" lon="4.23193">
        <ele>563.656</ele>
        <time>2019-01-07T15:13:55Z</time>
      </trkpt>
      <trkpt lat="45.83383" lon="4.23193">
        <ele>564.091</ele>
        <time>2019-01-07T15:14:00Z</time>
      </trkpt>
      <trkpt lat="45.83383" lon="4.23193">
        <ele>563.926</ele>
        <time>2019-01-07T15:14:05Z</time>
      </trkpt>
      <trkpt lat="45.83382" lon="4.23193">
        <ele>563.673</ele>
        <time>2019-01-07T15:14:10Z</time>
      </trkpt>
      <trkpt lat="45.83381" lon="4.23191">
        <ele>563.186</ele>
        <time>2019-01-07T15:14:16Z</time>
      </trkpt>
      <trkpt lat="45.83379" lon="4.23192">
        <ele>562.612</ele>
        <time>2019-01-07T15:14:21Z</time>
      </trkpt>
      <trkpt lat="45.83379" lon="4.23193">
        <ele>562.723</ele>
        <time>2019-01-07T15:14:27Z</time>
      </trkpt>
      <trkpt lat="45.8338" lon="4.23193">
        <ele>562.629</ele>
        <time>2019-01-07T15:14:32Z</time>
      </trkpt>
      <trkpt lat="45.8338" lon="4.23193">
        <ele>562.761</ele>
        <time>2019-01-07T15:14:38Z</time>
      </trkpt>
      <trkpt lat="45.83379" lon="4.23193">
        <ele>563.296</ele>
        <time>2019-01-07T15:14:43Z</time>
      </trkpt>
      <trkpt lat="45.83377" lon="4.23191">
        <ele>563.843</ele>
        <time>2019-01-07T15:14:49Z</time>
      </trkpt>
      <trkpt lat="45.83377" lon="4.23192">
        <ele>564.143</ele>
        <time>2019-01-07T15:14:55Z</time>
      </trkpt>
      <trkpt lat="45.83378" lon="4.23191">
        <ele>564.275</ele>
        <time>2019-01-07T15:15:00Z</time>
      </trkpt>
      <trkpt lat="45.83381" lon="4.23189">
        <ele>564.485</ele>
        <time>2019-01-07T15:15:06Z</time>
      </trkpt>
      <trkpt lat="45.83381" lon="4.23189">
        <ele>564.927</ele>
        <time>2019-01-07T15:15:11Z</time>
      </trkpt>
      <trkpt lat="45.83381" lon="4.23188">
        <ele>565.551</ele>
        <time>2019-01-07T15:15:16Z</time>
      </trkpt>
      <trkpt lat="45.8338" lon="4.23189">
        <ele>565.501</ele>
        <time>2019-01-07T15:15:22Z</time>
      </trkpt>
      <trkpt lat="45.83379" lon="4.23191">
        <ele>565.236</ele>
        <time>2019-01-07T15:15:27Z</time>
      </trkpt>
      <trkpt lat="45.83379" lon="4.23192">
        <ele>564.47</ele>
        <time>2019-01-07T15:15:33Z</time>
      </trkpt>
      <trkpt lat="45.8338" lon="4.23189">
        <ele>564.162</ele>
        <time>2019-01-07T15:15:38Z</time>
      </trkpt>
      <trkpt lat="45.83381" lon="4.23189">
        <ele>563.952</ele>
        <time>2019-01-07T15:15:44Z</time>
      </trkpt>
      <trkpt lat="45.83381" lon="4.23191">
        <ele>563.097</ele>
        <time>2019-01-07T15:15:50Z</time>
      </trkpt>
      <trkpt lat="45.83383" lon="4.23196">
        <ele>562.063</ele>
        <time>2019-01-07T15:15:56Z</time>
      </trkpt>
      <trkpt lat="45.83387" lon="4.23199">
        <ele>561.601</ele>
        <time>2019-01-07T15:16:01Z</time>
      </trkpt>
      <trkpt lat="45.83393" lon="4.23206">
        <ele>561.454</ele>
        <time>2019-01-07T15:16:07Z</time>
      </trkpt>
      <trkpt lat="45.83396" lon="4.23211">
        <ele>561.488</ele>
        <time>2019-01-07T15:16:12Z</time>
      </trkpt>
      <trkpt lat="45.83403" lon="4.23217">
        <ele>561.377</ele>
        <time>2019-01-07T15:16:18Z</time>
      </trkpt>
      <trkpt lat="45.83407" lon="4.23223">
        <ele>561.512</ele>
        <time>2019-01-07T15:16:24Z</time>
      </trkpt>
      <trkpt lat="45.83412" lon="4.23229">
        <ele>561.851</ele>
        <time>2019-01-07T15:16:29Z</time>
      </trkpt>
      <trkpt lat="45.83419" lon="4.23236">
        <ele>562.345</ele>
        <time>2019-01-07T15:16:35Z</time>
      </trkpt>
      <trkpt lat="45.83424" lon="4.23242">
        <ele>562.948</ele>
        <time>2019-01-07T15:16:41Z</time>
      </trkpt>
      <trkpt lat="45.83429" lon="4.23249">
        <ele>563.46</ele>
        <time>2019-01-07T15:16:47Z</time>
      </trkpt>
      <trkpt lat="45.83431" lon="4.23253">
        <ele>563.728</ele>
        <time>2019-01-07T15:16:53Z</time>
      </trkpt>
      <trkpt lat="45.83438" lon="4.23258">
        <ele>564.534</ele>
        <time>2019-01-07T15:16:59Z</time>
      </trkpt>
      <trkpt lat="45.83442" lon="4.23264">
        <ele>565.206</ele>
        <time>2019-01-07T15:17:04Z</time>
      </trkpt>
      <trkpt lat="45.83447" lon="4.23269">
        <ele>565.988</ele>
        <time>2019-01-07T15:17:09Z</time>
      </trkpt>
      <trkpt lat="45.83449" lon="4.23272">
        <ele>566.724</ele>
        <time>2019-01-07T15:17:15Z</time>
      </trkpt>
      <trkpt lat="45.83454" lon="4.23277">
        <ele>567.017</ele>
        <time>2019-01-07T15:17:20Z</time>
      </trkpt>
      <trkpt lat="45.8346" lon="4.23288">
        <ele>567.3</ele>
        <time>2019-01-07T15:17:26Z</time>
      </trkpt>
      <trkpt lat="45.83463" lon="4.23293">
        <ele>567.532</ele>
        <time>2019-01-07T15:17:32Z</time>
      </trkpt>
      <trkpt lat="45.83467" lon="4.23299">
        <ele>567.696</ele>
        <time>2019-01-07T15:17:37Z</time>
      </trkpt>
      <trkpt lat="45.83471" lon="4.23306">
        <ele>567.971</ele>
        <time>2019-01-07T15:17:42Z</time>
      </trkpt>
      <trkpt lat="45.83477" lon="4.23311">
        <ele>567.898</ele>
        <time>2019-01-07T15:17:47Z</time>
      </trkpt>
      <trkpt lat="45.83483" lon="4.23318">
        <ele>568.123</ele>
        <time>2019-01-07T15:17:53Z</time>
      </trkpt>
      <trkpt lat="45.83487" lon="4.23323">
        <ele>568.459</ele>
        <time>2019-01-07T15:17:59Z</time>
      </trkpt>
      <trkpt lat="45.83492" lon="4.2333">
        <ele>568.724</ele>
        <time>2019-01-07T15:18:05Z</time>
      </trkpt>
      <trkpt lat="45.83494" lon="4.23334">
        <ele>568.813</ele>
        <time>2019-01-07T15:18:10Z</time>
      </trkpt>
      <trkpt lat="45.83499" lon="4.23339">
        <ele>568.845</ele>
        <time>2019-01-07T15:18:15Z</time>
      </trkpt>
      <trkpt lat="45.83504" lon="4.23345">
        <ele>568.824</ele>
        <time>2019-01-07T15:18:20Z</time>
      </trkpt>
      <trkpt lat="45.83507" lon="4.23349">
        <ele>569.03</ele>
        <time>2019-01-07T15:18:26Z</time>
      </trkpt>
      <trkpt lat="45.83512" lon="4.23357">
        <ele>569.258</ele>
        <time>2019-01-07T15:18:32Z</time>
      </trkpt>
      <trkpt lat="45.83516" lon="4.23361">
        <ele>569.314</ele>
        <time>2019-01-07T15:18:37Z</time>
      </trkpt>
      <trkpt lat="45.83522" lon="4.23366">
        <ele>569.428</ele>
        <time>2019-01-07T15:18:43Z</time>
      </trkpt>
      <trkpt lat="45.83528" lon="4.23373">
        <ele>569.835</ele>
        <time>2019-01-07T15:18:49Z</time>
      </trkpt>
      <trkpt lat="45.83533" lon="4.23379">
        <ele>570.363</ele>
        <time>2019-01-07T15:18:55Z</time>
      </trkpt>
      <trkpt lat="45.83536" lon="4.23386">
        <ele>570.664</ele>
        <time>2019-01-07T15:19:00Z</time>
      </trkpt>
      <trkpt lat="45.83539" lon="4.23392">
        <ele>570.839</ele>
        <time>2019-01-07T15:19:06Z</time>
      </trkpt>
      <trkpt lat="45.83542" lon="4.23398">
        <ele>571.305</ele>
        <time>2019-01-07T15:19:11Z</time>
      </trkpt>
      <trkpt lat="45.83545" lon="4.23407">
        <ele>571.895</ele>
        <time>2019-01-07T15:19:17Z</time>
      </trkpt>
      <trkpt lat="45.83548" lon="4.23412">
        <ele>572.57</ele>
        <time>2019-01-07T15:19:22Z</time>
      </trkpt>
      <trkpt lat="45.83552" lon="4.23421">
        <ele>573.069</ele>
        <time>2019-01-07T15:19:28Z</time>
      </trkpt>
      <trkpt lat="45.83558" lon="4.23429">
        <ele>573.755</ele>
        <time>2019-01-07T15:19:34Z</time>
      </trkpt>
      <trkpt lat="45.83563" lon="4.23435">
        <ele>574.362</ele>
        <time>2019-01-07T15:19:40Z</time>
      </trkpt>
      <trkpt lat="45.83568" lon="4.23441">
        <ele>574.428</ele>
        <time>2019-01-07T15:19:46Z</time>
      </trkpt>
      <trkpt lat="45.83575" lon="4.23447">
        <ele>574.283</ele>
        <time>2019-01-07T15:19:51Z</time>
      </trkpt>
      <trkpt lat="45.83583" lon="4.23455">
        <ele>574.295</ele>
        <time>2019-01-07T15:19:57Z</time>
      </trkpt>
      <trkpt lat="45.83586" lon="4.23464">
        <ele>574.153</ele>
        <time>2019-01-07T15:20:02Z</time>
      </trkpt>
      <trkpt lat="45.8359" lon="4.23471">
        <ele>573.759</ele>
        <time>2019-01-07T15:20:08Z</time>
      </trkpt>
      <trkpt lat="45.83593" lon="4.23478">
        <ele>573.601</ele>
        <time>2019-01-07T15:20:13Z</time>
      </trkpt>
      <trkpt lat="45.83597" lon="4.23485">
        <ele>573.191</ele>
        <time>2019-01-07T15:20:19Z</time>
      </trkpt>
      <trkpt lat="45.836" lon="4.23494">
        <ele>572.391</ele>
        <time>2019-01-07T15:20:25Z</time>
      </trkpt>
      <trkpt lat="45.83602" lon="4.235">
        <ele>571.894</ele>
        <time>2019-01-07T15:20:30Z</time>
      </trkpt>
      <trkpt lat="45.83606" lon="4.23509">
        <ele>571.555</ele>
        <time>2019-01-07T15:20:36Z</time>
      </trkpt>
      <trkpt lat="45.8361" lon="4.23519">
        <ele>571.143</ele>
        <time>2019-01-07T15:20:42Z</time>
      </trkpt>
      <trkpt lat="45.83613" lon="4.23526">
        <ele>570.349</ele>
        <time>2019-01-07T15:20:48Z</time>
      </trkpt>
      <trkpt lat="45.83616" lon="4.23535">
        <ele>569.26</ele>
        <time>2019-01-07T15:20:54Z</time>
      </trkpt>
      <trkpt lat="45.83617" lon="4.23545">
        <ele>568.554</ele>
        <time>2019-01-07T15:20:59Z</time>
      </trkpt>
      <trkpt lat="45.8362" lon="4.23554">
        <ele>567.869</ele>
        <time>2019-01-07T15:21:04Z</time>
      </trkpt>
      <trkpt lat="45.8362" lon="4.23567">
        <ele>567.039</ele>
        <time>2019-01-07T15:21:10Z</time>
      </trkpt>
      <trkpt lat="45.8362" lon="4.23574">
        <ele>566.381</ele>
        <time>2019-01-07T15:21:15Z</time>
      </trkpt>
      <trkpt lat="45.83622" lon="4.23584">
        <ele>565.476</ele>
        <time>2019-01-07T15:21:21Z</time>
      </trkpt>
      <trkpt lat="45.83624" lon="4.23594">
        <ele>564.461</ele>
        <time>2019-01-07T15:21:27Z</time>
      </trkpt>
      <trkpt lat="45.83626" lon="4.23604">
        <ele>563.763</ele>
        <time>2019-01-07T15:21:32Z</time>
      </trkpt>
      <trkpt lat="45.83626" lon="4.23607">
        <ele>562.174</ele>
        <time>2019-01-07T15:21:38Z</time>
      </trkpt>
      <trkpt lat="45.83631" lon="4.23612">
        <ele>561.015</ele>
        <time>2019-01-07T15:21:43Z</time>
      </trkpt>
      <trkpt lat="45.83637" lon="4.23616">
        <ele>559.237</ele>
        <time>2019-01-07T15:21:49Z</time>
      </trkpt>
      <trkpt lat="45.83644" lon="4.23619">
        <ele>557.715</ele>
        <time>2019-01-07T15:21:55Z</time>
      </trkpt>
      <trkpt lat="45.8365" lon="4.2362">
        <ele>556.134</ele>
        <time>2019-01-07T15:22:00Z</time>
      </trkpt>
      <trkpt lat="45.83658" lon="4.23623">
        <ele>553.989</ele>
        <time>2019-01-07T15:22:06Z</time>
      </trkpt>
      <trkpt lat="45.83664" lon="4.23627">
        <ele>552.187</ele>
        <time>2019-01-07T15:22:11Z</time>
      </trkpt>
      <trkpt lat="45.83672" lon="4.23623">
        <ele>550.509</ele>
        <time>2019-01-07T15:22:17Z</time>
      </trkpt>
      <trkpt lat="45.83678" lon="4.23624">
        <ele>549.934</ele>
        <time>2019-01-07T15:22:22Z</time>
      </trkpt>
      <trkpt lat="45.83685" lon="4.23627">
        <ele>548.963</ele>
        <time>2019-01-07T15:22:28Z</time>
      </trkpt>
      <trkpt lat="45.83691" lon="4.23633">
        <ele>547.922</ele>
        <time>2019-01-07T15:22:33Z</time>
      </trkpt>
      <trkpt lat="45.83694" lon="4.23636">
        <ele>546.7</ele>
        <time>2019-01-07T15:22:39Z</time>
      </trkpt>
      <trkpt lat="45.83702" lon="4.23642">
        <ele>545.199</ele>
        <time>2019-01-07T15:22:45Z</time>
      </trkpt>
      <trkpt lat="45.83707" lon="4.23641">
        <ele>544.393</ele>
        <time>2019-01-07T15:22:51Z</time>
      </trkpt>
      <trkpt lat="45.83712" lon="4.23647">
        <ele>543.998</ele>
        <time>2019-01-07T15:22:56Z</time>
      </trkpt>
      <trkpt lat="45.83715" lon="4.2365">
        <ele>542.897</ele>
        <time>2019-01-07T15:23:01Z</time>
      </trkpt>
      <trkpt lat="45.83715" lon="4.2365">
        <ele>542.201</ele>
        <time>2019-01-07T15:23:07Z</time>
      </trkpt>
      <trkpt lat="45.83718" lon="4.23647">
        <ele>541.389</ele>
        <time>2019-01-07T15:23:12Z</time>
      </trkpt>
      <trkpt lat="45.83724" lon="4.23643">
        <ele>540.233</ele>
        <time>2019-01-07T15:23:18Z</time>
      </trkpt>
      <trkpt lat="45.83733" lon="4.23637">
        <ele>539.646</ele>
        <time>2019-01-07T15:23:23Z</time>
      </trkpt>
      <trkpt lat="45.83736" lon="4.23636">
        <ele>539.406</ele>
        <time>2019-01-07T15:23:29Z</time>
      </trkpt>
      <trkpt lat="45.83743" lon="4.23634">
        <ele>539.076</ele>
        <time>2019-01-07T15:23:34Z</time>
      </trkpt>
      <trkpt lat="45.83745" lon="4.23633">
        <ele>538.903</ele>
        <time>2019-01-07T15:23:40Z</time>
      </trkpt>
      <trkpt lat="45.83747" lon="4.23632">
        <ele>538.21</ele>
        <time>2019-01-07T15:23:46Z</time>
      </trkpt>
      <trkpt lat="45.8375" lon="4.2363">
        <ele>537.33</ele>
        <time>2019-01-07T15:23:52Z</time>
      </trkpt>
      <trkpt lat="45.83753" lon="4.23627">
        <ele>536.491</ele>
        <time>2019-01-07T15:23:58Z</time>
      </trkpt>
      <trkpt lat="45.83755" lon="4.23626">
        <ele>536.052</ele>
        <time>2019-01-07T15:24:03Z</time>
      </trkpt>
      <trkpt lat="45.83762" lon="4.23623">
        <ele>534.447</ele>
        <time>2019-01-07T15:24:09Z</time>
      </trkpt>
      <trkpt lat="45.83767" lon="4.2362">
        <ele>533.045</ele>
        <time>2019-01-07T15:24:14Z</time>
      </trkpt>
      <trkpt lat="45.83771" lon="4.23619">
        <ele>531.826</ele>
        <time>2019-01-07T15:24:20Z</time>
      </trkpt>
      <trkpt lat="45.83778" lon="4.23611">
        <ele>530.738</ele>
        <time>2019-01-07T15:24:26Z</time>
      </trkpt>
      <trkpt lat="45.83784" lon="4.23606">
        <ele>529.815</ele>
        <time>2019-01-07T15:24:31Z</time>
      </trkpt>
      <trkpt lat="45.83786" lon="4.23601">
        <ele>528.549</ele>
        <time>2019-01-07T15:24:37Z</time>
      </trkpt>
      <trkpt lat="45.83789" lon="4.236">
        <ele>527.448</ele>
        <time>2019-01-07T15:24:42Z</time>
      </trkpt>
      <trkpt lat="45.83794" lon="4.236">
        <ele>526.281</ele>
        <time>2019-01-07T15:24:47Z</time>
      </trkpt>
      <trkpt lat="45.83803" lon="4.23602">
        <ele>525.16</ele>
        <time>2019-01-07T15:24:53Z</time>
      </trkpt>
      <trkpt lat="45.83807" lon="4.23607">
        <ele>524.847</ele>
        <time>2019-01-07T15:24:58Z</time>
      </trkpt>
      <trkpt lat="45.8381" lon="4.23609">
        <ele>524.201</ele>
        <time>2019-01-07T15:25:03Z</time>
      </trkpt>
      <trkpt lat="45.83813" lon="4.23614">
        <ele>523.918</ele>
        <time>2019-01-07T15:25:09Z</time>
      </trkpt>
      <trkpt lat="45.83815" lon="4.23614">
        <ele>524.039</ele>
        <time>2019-01-07T15:25:14Z</time>
      </trkpt>
      <trkpt lat="45.83818" lon="4.23612">
        <ele>524.461</ele>
        <time>2019-01-07T15:25:19Z</time>
      </trkpt>
      <trkpt lat="45.83822" lon="4.23612">
        <ele>524.905</ele>
        <time>2019-01-07T15:25:24Z</time>
      </trkpt>
      <trkpt lat="45.83822" lon="4.23617">
        <ele>525.596</ele>
        <time>2019-01-07T15:25:30Z</time>
      </trkpt>
      <trkpt lat="45.83822" lon="4.23622">
        <ele>526.106</ele>
        <time>2019-01-07T15:25:36Z</time>
      </trkpt>
      <trkpt lat="45.83825" lon="4.23628">
        <ele>525.895</ele>
        <time>2019-01-07T15:25:41Z</time>
      </trkpt>
      <trkpt lat="45.83833" lon="4.23637">
        <ele>525.683</ele>
        <time>2019-01-07T15:25:46Z</time>
      </trkpt>
      <trkpt lat="45.83836" lon="4.23642">
        <ele>525.528</ele>
        <time>2019-01-07T15:25:52Z</time>
      </trkpt>
      <trkpt lat="45.83836" lon="4.23648">
        <ele>525.945</ele>
        <time>2019-01-07T15:25:58Z</time>
      </trkpt>
      <trkpt lat="45.83837" lon="4.23648">
        <ele>526.987</ele>
        <time>2019-01-07T15:26:04Z</time>
      </trkpt>
      <trkpt lat="45.83842" lon="4.2364">
        <ele>528.861</ele>
        <time>2019-01-07T15:26:09Z</time>
      </trkpt>
      <trkpt lat="45.83848" lon="4.23638">
        <ele>529.892</ele>
        <time>2019-01-07T15:26:15Z</time>
      </trkpt>
      <trkpt lat="45.83853" lon="4.23649">
        <ele>530.765</ele>
        <time>2019-01-07T15:26:21Z</time>
      </trkpt>
      <trkpt lat="45.83856" lon="4.23655">
        <ele>532.296</ele>
        <time>2019-01-07T15:26:27Z</time>
      </trkpt>
      <trkpt lat="45.8386" lon="4.2366">
        <ele>533.924</ele>
        <time>2019-01-07T15:26:32Z</time>
      </trkpt>
      <trkpt lat="45.83865" lon="4.23665">
        <ele>535.294</ele>
        <time>2019-01-07T15:26:37Z</time>
      </trkpt>
      <trkpt lat="45.83867" lon="4.23667">
        <ele>536.494</ele>
        <time>2019-01-07T15:26:42Z</time>
      </trkpt>
    </trkseg>
  </trk>
</gpx>